GFSSW_sfc_thetae_000.txt.gz
Theta_e
316 317 317 317 317 318 319 320 321 322 324 326 327 327 327 327 325 320 313 317 318 325 326 324 327 328 327 320 318 314 305 301 303 303 305 308 308 315 316 313 314 315 315 318 323
316 317 316 316 316 317 318 319 320 320 321 323 325 325 326 325 319 313 322 326 327 327 317 318 319 324 319 317 317 312 305 304 309 310 308 309 311 313 313 312 312 313 316 318 318
316 316 316 316 316 316 317 318 319 321 321 322 323 324 324 323 310 310 325 328 329 327 321 319 325 322 315 316 314 312 306 310 310 311 311 311 312 314 312 310 312 312 314 317 317
316 316 315 316 316 316 316 317 318 319 320 321 322 322 323 317 296 315 323 323 327 325 320 314 317 315 312 310 314 307 311 311 312 313 312 311 314 312 314 314 318 318 319 315 315
318 317 316 316 316 316 316 316 317 319 320 320 321 321 316 306 305 318 318 317 317 320 316 311 312 314 310 312 312 309 310 312 313 313 313 314 312 313 313 317 320 319 316 314 314
318 318 317 317 317 316 316 316 317 317 319 320 320 320 311 298 314 316 316 314 312 316 314 313 313 316 312 312 311 312 311 311 313 313 313 311 312 311 314 318 316 314 314 313 312
318 318 317 318 318 318 316 317 317 318 318 319 319 316 307 303 313 313 312 311 313 312 312 316 315 316 315 311 316 313 308 311 312 312 311 313 307 308 314 311 309 311 310 312 313
318 319 319 318 317 317 316 317 318 319 318 317 317 312 300 312 315 312 312 310 314 313 314 317 316 313 314 317 313 309 309 302 309 312 312 309 302 310 309 309 308 308 311 312 312
317 318 318 319 318 318 318 318 318 318 318 316 311 307 298 312 307 311 312 307 310 312 312 315 314 310 313 306 303 307 300 301 304 311 309 307 304 308 309 309 309 309 310 310 312
318 318 319 319 318 318 317 317 318 315 313 312 310 300 302 300 307 308 311 309 307 309 308 308 306 304 306 301 295 298 300 302 302 306 305 303 304 307 310 307 308 308 309 310 310
318 318 318 319 318 315 313 311 302 301 303 298 298 298 301 306 310 306 309 306 306 305 297 304 297 294 303 304 304 303 302 301 304 306 303 304 305 305 310 308 308 307 309 309 309
317 317 318 318 317 315 313 305 303 305 295 301 301 301 305 306 299 303 309 300 299 294 299 297 293 302 305 306 304 304 300 300 304 304 302 304 304 308 309 307 308 307 308 309 309
316 316 317 317 314 311 309 307 311 308 293 296 300 299 301 303 299 300 304 300 296 293 295 293 297 304 304 303 302 302 299 300 300 302 303 301 302 304 302 302 303 307 309 309 309
316 316 317 314 307 311 307 308 309 307 286 290 294 297 302 303 296 305 306 300 298 293 295 294 301 302 302 301 303 298 305 303 301 299 296 301 294 302 304 301 302 306 307 308 308
316 315 316 314 309 306 308 308 307 302 278 292 294 304 301 296 298 299 307 300 294 294 293 292 297 296 299 301 305 301 305 304 302 299 298 299 295 300 299 298 300 304 306 308 309
316 315 315 313 312 311 309 308 304 285 277 289 294 293 293 296 297 300 300 302 302 296 295 295 304 300 304 305 306 305 302 300 299 298 292 298 296 298 299 300 301 304 306 307 308
317 315 313 312 306 313 310 301 285 281 290 288 289 293 291 290 292 294 294 292 290 288 287 290 291 304 307 301 300 303 299 290 289 289 291 294 293 299 302 300 303 304 306 307 308
316 315 313 311 315 313 305 292 282 287 287 292 292 292 288 292 291 293 292 289 293 294 289 286 288 299 306 302 297 298 300 293 286 288 291 292 291 297 301 302 303 306 308 308 308
314 310 308 311 315 310 296 285 286 290 291 289 291 287 288 291 291 291 291 289 293 294 288 287 288 300 304 303 302 296 294 301 292 292 291 295 298 302 301 301 302 304 306 307 307
307 304 305 311 314 305 290 288 290 295 293 294 286 290 286 288 289 290 289 293 293 298 301 294 288 298 298 304 299 301 304 293 294 287 286 292 293 297 299 300 300 302 304 306 307
306 298 308 314 310 297 287 290 294 299 297 292 290 288 290 289 290 290 290 295 297 298 300 299 296 290 299 296 295 298 296 298 297 294 290 289 293 301 300 301 301 302 305 307 306
304 296 311 311 295 295 290 293 298 299 300 295 295 293 291 292 289 289 290 295 299 302 296 300 297 291 292 296 302 302 298 299 293 289 292 292 294 301 301 301 301 303 305 307 307
301 301 311 307 291 291 296 295 297 298 297 295 296 297 296 292 289 293 295 298 301 301 299 300 296 289 289 293 295 295 298 301 299 295 292 290 293 299 302 302 302 303 304 306 306
302 296 302 303 302 297 294 294 295 303 299 301 299 300 296 292 295 293 295 301 304 302 304 301 297 294 290 293 297 294 295 299 299 293 293 293 296 298 299 301 302 303 305 305 305
300 299 301 293 295 296 297 296 294 296 302 303 299 298 296 292 294 294 297 299 302 304 303 300 294 296 295 296 297 296 296 295 294 297 293 297 295 300 302 302 303 304 304 304 303
298 297 300 300 300 298 296 295 294 298 298 296 297 299 299 295 296 295 298 299 298 301 301 302 294 293 291 294 296 294 296 297 297 298 297 297 297 302 301 303 301 302 302 302 302
303 302 299 299 296 297 295 297 295 298 299 300 300 298 298 300 303 304 305 305 303 300 299 298 295 293 290 291 292 290 294 295 296 298 297 294 299 300 298 299 301 302 302 302 302

GFSSW_sfc_thetae_003.txt.gz
Theta_e
318 317 318 318 318 318 318 319 320 321 323 325 326 328 328 327 325 321 314 320 320 324 325 323 322 325 326 321 322 320 306 302 304 305 306 312 310 315 317 314 315 317 316 319 321
318 317 317 317 317 317 317 318 319 321 321 323 325 326 326 325 319 315 324 327 327 327 319 316 316 318 319 318 318 312 305 304 310 310 309 311 311 314 313 313 313 316 319 320 320
318 317 317 317 317 317 317 317 318 319 321 321 322 324 325 323 312 312 327 329 329 328 322 318 318 319 314 317 315 313 305 310 311 312 313 311 311 315 313 310 314 314 316 319 319
318 318 317 316 317 317 317 317 317 318 319 320 321 323 324 318 297 316 324 322 326 325 321 316 312 313 312 309 315 308 311 311 312 313 312 310 313 312 314 315 319 319 320 320 318
318 318 318 317 318 317 317 317 316 317 318 320 321 321 318 308 307 320 319 317 319 321 317 314 308 309 309 311 311 308 311 312 313 313 313 314 311 311 313 318 320 320 319 319 318
318 318 318 317 318 318 317 317 317 317 317 319 320 321 312 299 316 318 318 316 315 316 316 316 310 311 310 310 309 312 312 312 313 313 313 311 311 313 314 319 317 316 314 316 317
318 318 319 318 318 319 318 318 318 317 317 317 318 316 307 304 314 316 314 312 314 313 311 316 316 311 312 309 313 313 307 310 310 312 311 314 308 309 315 317 310 310 312 313 315
318 318 319 319 319 318 318 318 318 318 317 317 317 313 302 313 316 312 313 311 313 314 312 315 317 311 309 314 310 306 307 301 308 311 312 311 302 310 314 310 309 310 312 314 314
319 318 318 319 319 319 318 318 318 318 317 317 312 308 299 313 307 312 313 307 309 312 312 313 314 308 308 303 301 304 299 300 304 311 310 309 304 310 313 310 309 311 312 313 313
320 319 319 319 319 319 318 317 318 317 315 314 310 302 304 301 307 309 312 310 306 306 307 306 306 302 302 300 292 298 299 301 302 307 309 306 305 309 311 311 310 310 312 312 312
320 319 319 318 319 317 314 311 303 301 305 300 300 301 302 307 310 307 309 307 305 302 297 303 296 293 298 300 304 303 302 301 304 308 307 305 305 307 310 311 310 310 311 311 311
319 318 318 317 317 317 313 303 304 305 296 303 303 303 305 307 300 304 309 300 298 294 298 296 292 299 301 301 302 302 300 301 304 306 305 304 303 308 310 311 312 310 310 311 310
318 317 316 316 316 314 310 305 310 309 294 295 301 300 301 303 298 301 304 302 296 293 294 292 296 301 299 297 300 301 300 300 300 305 305 303 302 305 310 310 309 310 312 311 310
317 316 315 315 309 311 306 311 311 309 286 291 294 298 300 301 296 304 306 301 296 292 294 294 298 297 297 296 298 297 304 303 301 301 295 305 294 302 305 303 304 307 310 310 310
317 315 315 314 310 306 307 309 309 303 279 294 295 305 302 296 298 298 306 302 293 294 293 290 294 294 294 296 300 300 306 303 303 301 300 299 297 301 306 302 303 306 309 309 310
317 316 315 312 311 311 309 308 304 285 279 289 295 293 293 296 296 299 299 303 301 294 295 293 300 299 299 302 302 305 303 302 303 300 292 298 298 298 301 302 304 306 308 308 309
317 316 313 312 306 312 308 301 286 281 291 287 289 292 292 291 293 295 293 292 289 285 287 290 290 295 300 295 301 303 298 291 289 290 290 300 297 300 302 303 305 305 307 308 309
317 315 312 311 315 311 304 291 281 288 288 292 291 291 288 291 291 293 291 289 293 290 288 285 284 292 297 298 296 298 299 292 285 287 291 296 292 299 304 306 307 308 308 309 309
316 312 309 310 314 309 296 284 286 291 292 290 291 287 288 290 290 290 290 290 292 292 288 286 287 298 300 304 301 295 296 301 295 296 293 295 299 302 304 303 304 306 307 307 308
307 304 304 313 314 305 291 287 291 296 293 293 286 290 286 288 288 289 289 294 292 294 295 291 286 295 301 304 301 301 304 294 297 288 287 293 295 296 300 302 303 304 306 308 309
306 299 310 313 312 297 286 289 294 299 297 293 291 289 290 288 290 289 290 293 295 295 295 296 290 289 299 297 295 297 297 300 299 297 291 290 293 303 301 303 303 304 307 308 309
304 295 312 312 295 294 289 292 297 297 299 298 295 293 291 291 290 291 290 292 297 297 291 297 293 288 290 299 304 303 300 301 295 291 295 293 293 304 304 304 304 305 307 309 309
300 302 310 307 290 290 294 293 296 295 298 296 295 296 296 292 289 292 293 297 299 296 297 300 294 288 290 294 300 298 300 302 302 299 294 291 294 304 305 305 305 305 306 309 309
301 295 300 302 301 296 292 292 292 300 299 298 297 298 295 293 295 292 294 297 301 299 303 303 297 294 290 294 298 296 298 300 299 294 294 295 297 299 302 303 304 305 307 308 308
300 298 302 293 294 295 297 294 292 294 300 299 298 298 295 291 293 293 295 297 299 302 300 300 294 297 297 299 299 298 298 298 297 299 294 297 297 301 304 304 305 306 306 307 306
297 298 303 300 298 296 295 293 293 294 299 296 297 299 299 295 294 292 296 297 297 300 299 300 295 296 294 297 298 296 298 299 299 300 299 299 299 305 305 305 305 305 305 305 306
304 306 301 300 300 296 296 295 295 297 299 302 301 299 298 300 302 304 303 303 303 300 299 297 296 294 290 295 295 291 296 298 299 300 300 296 301 306 301 302 304 304 305 304 305

GFSSW_sfc_thetae_006.txt.gz
Theta_e
318 318 318 319 319 318 318 319 321 321 322 324 325 327 328 328 326 320 313 320 323 327 326 319 319 319 322 319 320 318 304 299 301 302 305 309 307 311 313 309 311 312 311 313 316
318 318 318 318 318 317 318 318 319 321 321 322 324 325 326 326 318 315 324 328 328 326 318 313 311 314 311 316 315 310 303 302 307 307 306 309 308 309 309 310 309 310 314 315 315
318 318 318 318 317 318 317 318 318 320 321 321 322 324 326 323 311 311 328 331 331 328 321 318 315 313 309 313 313 311 304 308 308 309 310 309 308 310 308 306 310 309 312 315 313
319 318 318 317 317 317 317 317 318 319 319 321 321 323 325 319 298 316 323 322 324 324 320 316 311 307 308 306 312 306 310 310 311 312 311 307 310 308 308 309 314 314 315 315 314
319 318 318 318 318 318 317 317 317 318 319 319 321 322 317 306 306 319 320 319 318 319 315 313 309 305 303 308 309 307 309 311 311 311 311 311 308 308 309 312 315 316 316 314 314
319 318 318 318 318 318 318 317 317 318 318 319 320 321 311 298 314 316 318 316 314 314 314 314 310 310 304 306 306 310 310 311 311 310 310 308 308 309 310 313 313 315 312 308 310
320 318 319 319 318 318 319 319 318 318 318 318 319 316 307 303 314 315 316 313 313 311 308 313 314 310 308 303 310 310 305 309 309 310 308 310 304 305 311 312 311 310 305 307 310
320 319 319 320 319 319 318 318 318 319 318 318 318 312 301 314 315 312 312 310 311 311 310 312 312 310 307 309 306 304 305 298 307 309 309 307 298 308 312 310 308 305 303 308 310
320 320 319 320 320 320 319 318 318 318 318 317 311 308 297 313 307 311 312 306 308 309 311 311 308 305 306 299 297 301 294 297 301 309 307 305 300 308 312 307 304 303 304 308 309
322 321 319 319 319 319 318 316 316 316 315 314 310 301 304 301 307 308 311 310 305 304 303 304 302 298 299 296 287 292 295 297 298 304 307 303 303 307 309 306 303 303 303 306 308
321 321 319 319 318 318 315 311 304 301 305 299 300 300 302 307 309 306 308 306 304 301 293 299 294 290 293 296 297 298 297 298 301 306 304 302 303 306 307 307 304 304 303 306 306
321 319 318 318 318 317 314 303 304 305 296 304 303 303 306 307 300 303 308 299 298 292 295 294 290 295 298 298 297 297 296 296 302 306 304 303 302 305 306 306 306 305 304 305 305
320 318 317 317 316 313 308 306 311 309 295 297 302 301 302 304 298 300 304 300 295 292 292 289 292 298 296 294 294 296 295 297 298 303 303 300 297 300 304 306 307 308 305 306 305
319 317 316 316 309 309 306 313 312 309 287 290 293 299 302 301 295 304 305 300 295 291 292 291 296 294 294 292 294 290 299 300 299 299 292 299 287 297 302 303 303 302 303 305 304
318 317 316 315 311 305 308 310 309 304 277 293 295 305 302 296 297 297 305 301 292 292 292 289 291 291 290 293 296 293 300 300 299 297 294 296 290 294 301 300 297 299 302 304 304
317 316 316 312 310 310 311 309 304 285 277 289 295 293 294 295 295 298 298 302 300 293 293 291 297 295 294 296 297 299 297 297 300 296 289 295 293 292 296 298 298 300 303 304 304
317 316 313 312 304 311 309 302 285 281 292 288 289 292 291 291 292 293 292 291 287 283 284 289 290 295 295 292 297 297 293 286 286 285 285 296 294 292 297 300 302 301 303 304 304
317 315 313 309 312 310 305 291 280 288 288 293 291 291 288 291 291 291 290 287 292 289 285 282 281 290 294 291 293 294 293 286 282 283 286 295 289 293 300 301 303 304 304 304 304
316 312 308 309 311 308 296 283 285 290 293 290 290 287 287 290 290 289 289 288 290 291 284 286 284 295 295 295 298 293 287 293 291 292 287 289 292 295 299 298 300 302 303 303 304
308 306 305 311 311 304 291 286 289 295 294 292 287 288 284 287 286 287 287 292 291 294 294 288 283 293 296 298 299 297 299 289 293 284 283 287 289 290 294 295 298 301 301 303 304
304 298 307 312 309 298 286 288 292 296 296 291 290 288 289 286 288 286 287 292 294 294 293 290 288 288 293 295 293 296 294 297 297 292 286 283 288 297 296 298 297 300 303 304 304
303 294 309 311 294 295 289 292 296 295 298 296 295 293 290 291 288 288 287 292 297 295 289 293 289 286 288 297 301 301 298 297 291 288 289 288 287 298 298 299 300 299 304 305 305
299 301 309 307 289 290 293 293 294 295 297 295 294 295 294 291 286 289 292 297 297 295 292 294 288 285 286 294 298 296 298 299 297 294 289 285 286 299 298 298 300 299 302 305 305
300 294 300 301 299 295 291 292 290 297 295 297 296 296 293 290 292 291 291 297 299 296 302 300 293 287 287 291 296 294 297 298 296 289 289 289 289 294 296 297 298 299 301 303 304
300 296 299 291 293 295 296 293 290 291 298 298 295 294 293 289 290 290 293 295 298 299 298 295 291 294 295 297 298 297 296 297 294 293 289 291 292 294 296 297 298 299 301 303 303
296 295 301 299 296 295 294 293 292 293 295 295 293 297 297 291 292 290 293 293 292 297 296 297 291 295 292 296 297 295 297 297 296 296 295 295 294 298 299 299 298 298 300 302 302
304 304 299 298 297 294 294 294 295 295 296 298 297 295 297 297 300 299 299 299 299 297 295 295 294 291 286 292 293 288 294 296 296 298 297 293 297 298 297 299 298 298 300 301 301

GFSSW_sfc_thetae_009.txt.gz
Theta_e
317 317 318 318 318 318 318 319 319 321 322 324 326 327 329 328 328 321 312 318 321 326 326 316 313 314 314 313 317 313 299 297 299 299 302 307 304 308 310 307 308 309 308 312 317
318 318 318 317 317 317 317 318 319 320 321 322 323 326 326 327 319 314 323 329 331 327 317 312 309 310 306 310 312 306 299 301 305 304 303 306 305 306 306 306 306 308 312 312 313
318 319 319 317 317 317 317 317 318 319 320 322 322 324 326 323 311 310 328 332 332 328 321 318 314 310 304 306 308 307 302 306 307 309 308 306 306 308 304 303 307 308 309 312 312
319 318 318 318 317 317 317 317 317 318 319 320 321 323 324 319 298 315 323 324 330 325 320 315 311 303 302 302 306 303 309 309 310 312 309 306 308 305 306 306 310 311 313 312 312
320 319 318 318 318 317 318 317 317 317 317 319 320 321 317 307 306 318 321 320 318 318 314 312 307 304 298 302 305 303 306 310 311 311 310 310 306 305 306 310 311 312 313 312 312
321 320 318 318 318 318 318 318 317 317 318 317 319 321 310 297 312 315 316 313 314 315 313 312 309 308 303 300 300 305 306 307 310 309 309 307 305 306 308 310 310 311 310 311 308
322 321 320 318 319 318 318 319 319 318 317 317 317 315 306 301 312 311 317 313 311 309 306 313 312 309 307 301 306 307 303 305 307 308 307 309 303 303 308 309 309 309 308 306 308
322 321 320 319 318 319 318 318 318 319 317 318 317 311 300 313 313 311 310 308 309 309 308 309 311 305 306 307 302 300 301 296 304 307 308 307 298 305 309 307 307 307 304 305 308
322 322 320 320 320 320 320 318 317 318 318 317 310 305 297 315 307 310 309 305 306 307 307 309 306 300 302 297 293 295 291 293 299 306 306 305 300 305 307 307 305 303 301 304 306
322 321 321 320 319 319 319 316 315 316 315 315 311 300 303 300 307 309 309 308 304 303 302 302 299 294 293 294 285 290 289 294 295 301 304 302 302 303 306 306 304 301 300 304 305
322 321 320 319 319 318 314 308 300 300 306 299 299 298 302 307 309 306 307 305 304 299 290 296 291 288 290 293 294 292 292 294 297 303 301 301 302 303 306 304 301 299 300 302 304
321 320 320 319 319 318 311 302 301 302 296 304 304 303 305 307 300 303 307 298 296 291 293 291 287 293 296 295 294 293 291 290 295 301 301 300 300 304 305 306 304 303 300 302 303
320 320 319 318 318 312 306 305 308 307 294 298 302 301 302 305 299 299 303 299 293 290 290 287 290 296 295 292 291 292 290 291 291 298 301 299 297 300 303 305 305 304 303 304 304
319 319 318 317 307 307 303 309 310 307 287 290 293 299 302 302 296 305 305 300 295 289 291 289 294 292 292 291 292 287 294 295 294 293 289 300 290 298 301 300 302 301 302 302 303
318 318 317 313 304 302 307 309 309 304 274 291 294 305 302 296 297 298 305 301 292 291 292 287 289 289 288 290 294 289 295 294 295 293 293 293 291 294 299 298 300 297 301 302 304
317 317 316 311 307 308 309 308 303 285 273 289 295 293 293 296 296 298 297 301 300 294 293 290 294 293 291 294 294 296 293 294 294 292 285 291 290 290 295 298 301 296 301 302 303
317 316 314 311 303 309 308 300 285 278 289 287 289 292 291 290 292 293 292 291 289 284 283 288 289 293 296 290 294 292 289 282 280 282 282 294 289 292 296 301 303 298 301 302 303
316 315 313 310 311 308 302 292 279 285 286 293 291 291 288 290 291 291 288 287 292 288 283 278 276 288 293 291 288 288 288 283 275 279 283 294 287 295 301 302 303 302 302 302 302
315 311 307 309 310 307 293 282 281 287 293 291 290 287 287 290 289 290 288 287 289 289 280 282 281 292 293 295 294 287 286 292 287 290 286 290 293 297 296 296 299 300 301 301 301
310 306 304 310 310 302 291 284 287 294 294 293 286 288 284 286 287 286 286 290 289 292 292 288 281 290 293 294 295 293 295 286 287 281 282 287 287 289 291 294 298 299 299 301 302
306 299 307 310 308 296 286 286 291 296 296 291 290 287 286 285 286 285 285 290 293 293 293 290 285 285 290 289 289 289 289 292 291 288 284 283 287 293 294 296 297 299 300 301 301
303 295 308 308 294 293 289 291 296 294 298 295 294 292 289 288 286 284 285 288 296 295 289 291 288 283 285 296 296 295 293 292 285 285 288 286 285 294 296 296 300 299 301 302 302
299 300 308 305 288 289 293 293 294 294 295 295 293 295 294 290 286 288 290 296 296 294 290 292 287 281 285 291 296 292 295 296 295 291 287 282 284 295 294 295 297 299 301 302 302
300 293 299 301 299 293 291 291 291 296 294 297 296 296 293 290 291 289 289 295 297 295 298 295 289 287 285 289 294 292 294 296 292 288 287 285 287 290 293 295 295 299 301 301 302
301 296 298 290 292 295 294 293 291 290 295 297 293 293 291 287 288 288 292 294 296 299 295 292 285 285 288 291 295 294 293 293 288 294 289 288 290 292 294 295 295 299 301 301 301
296 296 299 295 295 293 294 293 292 292 293 294 293 295 293 290 289 287 293 291 291 295 292 293 287 291 293 295 297 293 295 297 296 295 295 293 292 293 295 295 295 297 301 301 301
303 304 301 298 295 292 292 292 293 296 296 297 296 295 294 295 298 295 298 295 294 295 293 293 291 291 286 294 294 289 295 295 295 296 295 291 294 294 294 296 295 296 301 300 300

GFSSW_sfc_thetae_012.txt.gz
Theta_e
318 318 318 318 318 318 317 318 318 319 322 323 325 325 327 329 327 321 312 316 319 327 326 315 312 311 312 308 314 311 298 295 297 298 301 305 303 307 309 305 307 307 307 310 314
319 319 319 318 318 317 317 317 318 318 320 322 323 325 325 327 320 315 323 329 330 328 316 311 308 311 304 307 309 305 299 299 303 304 302 305 304 304 304 305 304 306 310 311 316
320 319 319 319 318 317 317 317 317 317 319 320 321 323 326 324 312 310 329 332 332 328 319 317 314 309 302 304 305 306 301 304 306 308 307 305 304 306 304 302 305 305 307 309 311
321 320 319 318 318 317 317 316 316 317 318 319 321 322 324 318 294 313 325 326 332 326 319 314 310 303 300 300 304 300 307 308 309 310 309 305 307 305 304 305 309 310 311 310 310
322 321 319 319 319 318 317 317 316 317 317 318 319 321 316 306 305 316 320 323 319 319 316 312 306 303 297 299 301 300 303 308 310 310 310 310 306 305 305 308 310 310 311 310 310
323 321 320 319 319 319 318 318 317 316 317 317 318 319 308 295 311 313 316 312 314 315 312 312 308 307 302 300 298 301 302 304 307 307 308 307 307 305 307 308 308 309 309 309 309
324 323 322 320 318 319 318 319 319 318 317 316 317 315 306 300 311 311 312 311 311 309 307 313 312 307 305 300 304 303 299 302 303 305 305 308 303 304 307 307 307 307 308 308 307
323 324 322 320 319 320 318 319 317 319 318 317 317 310 298 312 312 310 310 308 309 309 308 308 308 304 304 306 301 297 295 291 300 304 306 305 297 305 307 305 305 305 305 306 306
324 323 322 320 320 320 320 319 317 318 318 318 309 304 295 313 307 309 309 305 305 305 306 309 307 302 300 298 293 293 287 289 295 303 304 302 299 305 307 304 304 304 304 304 303
323 322 321 320 320 320 319 317 316 315 315 315 311 301 303 300 306 307 308 307 302 302 301 301 298 292 292 294 285 289 288 289 290 298 301 300 300 304 305 304 303 305 303 299 304
321 321 321 320 319 319 314 306 299 298 306 300 300 299 300 306 308 306 307 304 302 297 290 294 290 287 288 292 293 291 289 288 291 298 296 297 299 302 306 303 301 303 301 298 303
320 320 320 320 319 318 308 299 299 301 294 303 304 302 305 307 299 303 306 297 297 291 292 291 287 292 294 293 292 291 288 288 292 296 297 296 297 302 304 305 305 304 299 300 302
319 319 319 319 318 313 305 304 307 304 292 297 301 301 302 304 299 300 302 298 294 292 291 288 289 293 292 291 290 289 288 287 288 293 295 295 291 296 303 305 306 305 301 303 304
318 318 318 317 308 306 303 308 306 306 286 289 293 299 302 304 296 305 305 300 295 290 290 290 293 291 290 289 290 285 293 292 292 290 284 295 284 293 299 301 302 304 299 302 302
317 318 317 314 302 302 305 308 307 302 267 289 293 305 302 297 298 298 306 301 292 291 291 287 289 289 287 288 293 288 293 291 291 288 287 289 286 291 298 297 301 304 299 302 303
317 317 316 310 306 306 308 308 301 278 268 288 294 292 293 296 296 299 298 302 300 294 293 290 295 293 291 292 292 294 291 291 290 288 281 286 288 288 293 296 300 300 299 301 303
315 316 312 310 303 309 308 299 282 270 288 286 288 291 290 291 292 294 292 291 288 284 283 287 288 292 295 290 293 291 286 278 276 277 278 287 286 288 295 299 301 302 299 301 303
312 315 312 309 310 309 303 289 269 283 284 292 290 291 287 290 291 291 290 286 291 289 285 282 279 289 293 290 288 288 287 279 271 273 278 290 284 289 299 302 302 303 301 302 302
312 312 307 309 310 307 296 280 277 284 291 289 290 286 287 289 290 289 289 287 289 290 282 281 280 290 291 292 292 287 283 289 283 284 281 286 290 297 301 299 297 299 299 300 302
305 306 303 310 309 302 290 282 285 293 294 292 285 288 283 285 286 286 286 289 288 292 291 284 276 288 290 293 292 289 291 282 283 274 275 283 287 291 295 296 295 297 298 300 302
303 298 305 310 307 295 285 285 289 296 295 291 289 289 287 284 285 284 284 289 291 291 292 288 284 284 287 286 286 287 285 287 285 284 281 281 286 297 299 297 296 298 299 300 301
303 290 306 308 293 292 289 291 295 293 296 294 293 292 289 287 284 283 284 287 294 293 287 290 287 281 283 290 293 290 287 287 282 280 286 284 284 295 301 298 300 299 300 300 301
299 298 306 304 287 288 293 292 294 293 294 294 293 294 293 288 284 286 288 293 296 293 290 292 286 279 282 287 291 289 289 290 289 290 285 283 286 295 294 297 299 298 299 300 300
297 291 297 299 298 292 290 290 290 296 294 296 295 295 292 290 290 288 288 294 296 295 298 295 288 284 280 286 289 288 290 290 288 285 285 286 289 293 293 294 295 297 299 299 300
300 295 297 289 291 293 293 293 290 290 295 296 292 293 292 286 286 287 290 292 295 298 295 291 284 285 287 289 290 291 290 291 290 290 285 288 288 292 296 294 296 298 298 298 299
297 296 298 294 295 294 293 292 292 293 294 292 290 294 293 289 288 286 289 290 290 294 291 292 284 286 288 291 290 292 292 294 294 291 289 290 290 298 294 294 295 297 298 299 299
303 303 299 295 293 291 292 292 293 295 296 296 296 295 292 293 295 297 296 296 295 293 290 289 286 288 286 293 292 288 292 293 289 291 290 286 293 293 292 294 294 296 299 299 300

GFSSW_sfc_thetae_015.txt.gz
Theta_e
321 319 319 319 319 319 319 318 319 319 320 323 324 326 327 328 328 322 312 316 319 326 325 314 312 312 310 306 311 308 297 294 295 296 299 303 302 305 306 302 305 305 308 308 312
322 320 319 318 319 319 319 318 318 319 319 321 322 325 324 327 321 316 323 329 331 330 315 310 307 310 303 304 306 305 298 297 301 301 300 303 303 303 303 303 303 305 309 312 317
323 321 320 319 320 319 318 318 318 318 318 319 320 322 325 324 312 312 329 332 332 329 317 315 312 308 301 302 303 303 299 303 304 306 306 304 303 305 302 300 304 305 306 308 313
324 322 321 320 318 319 318 318 317 317 317 318 320 321 323 317 295 311 324 327 332 324 318 313 308 301 298 298 303 297 303 306 307 309 308 305 306 303 303 303 307 307 309 308 309
325 323 321 320 319 319 319 319 317 317 317 318 319 320 315 305 305 315 322 322 322 321 315 312 304 301 296 298 299 298 301 304 307 308 308 309 307 305 305 307 309 309 308 308 309
325 324 322 320 319 319 319 319 318 317 317 317 317 319 308 293 309 312 312 312 315 315 313 313 307 306 301 299 297 299 300 301 304 305 306 305 305 306 306 307 307 307 307 308 308
324 324 323 322 320 319 319 319 319 318 317 316 317 314 305 300 309 310 311 309 310 313 309 312 312 306 306 300 303 301 296 299 300 302 302 306 301 302 307 308 305 305 306 308 307
324 324 323 322 321 319 319 319 318 319 318 317 317 309 297 311 311 309 309 307 309 308 307 309 313 305 303 305 301 296 293 288 296 301 303 304 293 303 308 307 307 304 304 305 306
322 322 323 322 321 319 320 319 317 317 318 318 308 302 294 311 307 308 308 305 304 304 305 309 307 301 301 297 293 294 286 287 292 301 302 301 296 302 306 305 302 302 303 305 305
321 321 321 321 320 319 319 318 316 315 315 315 310 299 301 299 305 307 307 307 302 301 300 300 300 295 295 293 283 284 286 286 288 296 297 297 297 301 304 304 303 304 305 303 302
318 320 320 320 320 319 315 305 298 296 305 301 300 299 300 305 308 305 306 303 301 297 289 293 290 288 291 291 291 290 288 286 290 296 293 292 294 297 302 303 304 301 302 302 300
314 319 319 320 320 319 307 298 297 299 293 302 303 302 304 306 299 302 306 297 296 290 291 290 285 290 292 291 289 289 287 287 290 294 293 292 291 296 298 300 304 305 304 303 299
313 317 318 319 318 313 306 302 306 302 291 295 300 301 302 304 298 299 302 297 292 290 289 287 288 293 291 289 288 287 285 286 286 290 292 290 287 289 295 299 303 306 306 307 302
311 315 317 318 310 308 304 307 306 304 277 286 293 298 302 302 296 304 304 299 295 290 291 291 294 291 289 287 289 284 291 290 289 286 280 289 279 286 291 295 299 303 305 302 300
312 314 316 316 305 303 305 306 305 296 267 288 292 304 303 297 298 297 305 300 292 291 290 287 288 288 286 288 291 287 292 290 290 287 284 286 283 284 293 293 297 300 303 301 301
311 312 316 308 306 306 308 307 302 277 268 287 293 293 293 296 296 298 298 303 300 294 292 289 293 292 290 292 292 294 290 289 290 286 279 283 283 283 286 292 295 299 302 300 301
310 312 313 310 301 308 308 300 280 270 287 286 288 291 290 290 292 294 291 291 289 285 284 288 289 292 293 288 291 290 286 279 278 278 276 285 283 285 290 293 297 299 301 299 301
310 311 309 310 309 308 303 289 273 282 283 291 290 289 286 289 290 291 290 286 291 289 285 281 279 289 292 289 287 287 285 279 273 273 275 285 280 285 294 297 299 299 300 298 301
309 304 305 308 309 308 296 280 278 282 289 288 289 286 286 290 290 288 288 286 289 290 282 279 280 289 291 292 292 287 283 288 282 283 280 282 286 294 297 297 298 297 298 298 300
303 300 303 310 310 303 290 281 283 291 292 291 283 287 283 285 286 285 285 288 288 290 292 286 278 286 289 291 291 288 290 282 283 274 273 278 282 285 290 294 296 296 296 298 301
301 294 305 310 307 296 285 282 287 295 295 290 287 287 286 284 285 285 284 287 291 290 292 290 282 280 286 285 284 286 284 286 285 280 272 273 279 292 293 295 294 295 296 298 300
299 287 306 307 292 293 288 289 294 294 296 294 292 291 289 286 284 283 282 286 292 292 287 290 286 279 282 290 292 290 286 285 281 274 279 279 281 293 295 295 297 296 299 302 302
295 295 306 304 285 287 291 291 293 293 293 293 291 293 294 287 283 285 286 292 293 291 288 291 285 279 282 286 289 286 287 287 286 286 279 276 279 296 296 296 298 299 299 300 300
297 286 296 298 297 290 289 288 289 295 294 295 293 295 292 289 289 286 287 292 294 294 298 294 287 283 279 283 286 284 286 288 285 280 281 283 285 291 295 294 296 297 299 299 299
296 291 293 287 290 291 290 292 289 290 294 296 293 293 292 287 287 287 290 291 295 298 295 292 283 285 286 287 287 287 286 287 285 285 281 284 288 291 294 295 296 297 298 297 298
295 295 297 293 294 292 291 290 291 291 293 291 291 293 292 290 287 284 289 290 290 294 292 292 283 285 284 288 287 286 288 289 288 288 288 289 289 296 298 296 294 296 297 297 298
299 303 297 293 292 291 291 291 292 295 295 296 295 293 292 294 296 295 294 295 295 293 291 288 285 285 284 290 288 284 287 290 290 292 291 286 292 297 295 293 293 296 298 298 298

GFSSW_sfc_thetae_018.txt.gz
Theta_e
324 322 320 319 319 319 319 319 318 319 320 321 323 326 327 328 327 321 311 316 318 327 324 313 311 311 309 305 310 306 296 292 294 295 297 301 300 304 306 301 304 304 304 307 312
325 323 321 320 318 319 319 319 318 318 319 320 322 324 325 326 321 316 324 329 329 328 315 309 306 308 302 304 305 303 296 296 300 299 299 301 302 302 302 302 302 304 308 311 315
325 324 322 321 319 319 319 318 318 318 318 319 321 321 324 324 311 310 328 332 332 330 317 313 311 306 299 301 301 301 297 301 303 305 306 303 302 304 301 300 303 302 305 308 312
324 325 324 322 320 318 319 318 318 317 318 319 320 321 323 317 294 309 324 326 332 326 318 312 306 300 297 297 301 295 302 304 306 308 307 304 306 303 302 303 306 307 306 307 307
324 325 324 322 321 319 319 318 318 317 317 318 319 320 314 306 305 313 322 318 321 322 316 312 302 300 295 296 297 296 299 303 304 304 305 307 305 305 305 308 309 310 308 307 307
323 324 323 323 321 320 319 319 319 317 317 317 317 318 306 293 306 310 310 311 318 320 315 313 308 305 299 298 296 298 299 299 301 302 303 302 303 303 305 307 306 306 306 307 306
321 323 322 322 321 320 319 319 319 318 317 316 317 313 304 299 308 309 311 307 310 313 310 313 310 305 303 297 302 300 295 297 299 300 299 303 298 299 306 307 306 305 305 306 307
318 320 322 321 322 321 319 319 319 318 318 317 317 308 296 309 309 309 308 305 308 308 307 311 314 307 303 301 300 296 297 289 295 298 300 301 291 299 303 303 304 306 305 305 307
315 317 320 321 321 320 320 319 318 317 318 318 307 301 294 310 306 307 307 303 304 305 305 309 305 298 298 292 289 294 286 289 292 297 298 299 293 300 303 302 301 302 301 303 304
313 314 316 320 320 319 319 318 317 315 314 314 309 297 300 298 304 306 306 306 301 301 300 299 300 293 295 292 281 284 286 289 290 292 294 293 294 298 301 301 301 301 302 302 303
312 313 315 318 320 319 315 308 300 297 303 300 299 298 300 304 306 304 305 303 300 296 290 293 290 288 291 291 291 290 286 286 289 294 292 291 291 294 297 298 299 301 303 302 303
310 313 314 315 320 319 310 300 299 298 291 301 303 301 304 305 298 302 305 297 295 290 291 290 285 290 293 292 291 290 287 286 288 292 291 290 289 293 294 296 299 300 302 303 304
309 310 312 312 319 313 306 301 305 302 289 294 299 301 301 303 298 299 301 297 291 288 289 286 288 293 291 288 287 286 284 284 284 288 290 288 285 287 291 294 296 298 300 303 305
309 310 312 311 312 309 304 307 305 301 277 285 293 297 301 302 295 304 304 298 293 289 291 289 293 290 288 287 287 283 289 289 287 284 279 285 277 284 288 290 291 294 297 302 304
309 310 311 313 308 304 306 307 304 294 268 288 293 304 303 296 297 296 304 300 292 290 291 287 287 287 287 287 289 286 290 289 288 285 284 284 281 281 287 287 290 294 297 300 304
309 310 310 306 309 308 308 307 300 277 267 287 293 293 294 296 296 297 299 302 300 293 293 290 294 292 289 291 291 292 288 288 288 286 278 282 281 281 284 287 289 293 296 300 302
309 309 306 307 303 309 308 299 282 274 287 285 287 291 291 290 292 294 292 292 289 284 284 289 290 293 293 287 290 290 286 278 277 277 275 283 280 283 287 289 291 293 295 299 300
308 309 307 307 309 309 304 286 274 282 283 291 289 289 286 289 290 291 290 287 292 290 285 281 276 288 292 289 285 286 285 279 273 271 274 283 278 282 291 294 295 296 296 298 298
308 304 302 306 310 307 294 280 279 282 289 288 289 285 285 289 289 289 288 288 289 291 283 279 278 288 291 291 290 287 282 287 282 282 279 279 283 289 295 294 295 295 294 295 297
302 298 298 306 310 302 290 282 283 289 291 290 282 286 282 286 286 287 284 287 288 290 290 282 279 285 288 291 292 289 291 282 281 274 272 276 278 280 288 290 293 294 295 296 297
301 292 301 309 307 295 285 282 286 294 293 289 286 285 287 285 287 285 283 286 289 288 291 288 284 280 286 284 283 286 284 285 284 282 274 270 275 287 291 291 294 295 296 297 297
297 287 304 308 290 292 287 287 294 293 294 292 291 290 287 287 284 282 282 285 291 291 286 290 287 280 282 289 291 289 285 285 279 274 278 275 278 290 292 293 296 297 296 295 298
293 293 305 303 285 287 291 290 291 292 292 292 290 292 293 288 284 285 285 291 292 291 288 290 284 279 280 285 289 285 287 287 286 285 278 274 278 290 290 294 297 297 296 298 298
295 287 294 297 295 291 288 289 288 294 294 294 294 295 291 289 288 285 285 291 293 292 296 294 287 283 278 282 286 284 286 287 285 279 279 280 283 287 292 294 296 295 295 295 298
296 290 292 285 288 291 291 289 288 289 293 295 293 290 292 287 288 287 287 289 292 294 295 292 283 285 286 287 286 287 286 286 284 284 279 281 283 288 291 294 296 298 298 298 298
293 293 294 290 293 290 290 287 287 290 292 291 290 293 293 290 289 285 288 289 288 293 292 293 284 286 283 287 286 284 288 288 287 287 285 285 285 293 295 297 296 298 297 298 298
297 298 296 292 292 289 288 290 291 293 294 296 294 293 292 294 296 296 295 294 293 292 291 289 285 285 281 287 287 284 285 287 288 289 288 283 288 293 292 295 296 295 297 297 298

GFSSW_sfc_thetae_021.txt.gz
Theta_e
325 326 324 321 319 319 318 319 319 319 319 319 320 324 326 328 327 321 312 317 320 328 325 315 314 312 312 309 313 309 301 296 297 297 300 305 304 308 309 307 309 310 310 313 318
325 325 325 323 321 319 319 319 319 318 318 319 320 322 325 326 320 316 323 328 329 328 316 311 308 309 305 307 308 307 300 299 302 302 302 304 305 306 307 306 308 309 312 314 319
324 325 325 324 322 320 319 319 318 318 318 319 320 321 323 324 312 311 327 332 332 330 318 315 312 308 303 305 305 305 300 303 305 307 308 306 306 308 306 305 308 308 310 312 315
321 323 324 324 324 321 319 319 318 318 318 318 319 320 322 318 296 311 324 325 331 325 318 312 308 302 300 299 303 299 303 305 307 309 307 306 308 307 307 308 310 310 312 311 313
318 321 323 323 323 322 319 319 318 318 317 317 318 319 315 307 306 314 321 318 320 321 316 311 304 301 297 299 301 300 301 304 305 304 304 307 305 306 307 311 313 313 314 312 313
316 318 319 322 323 322 320 319 319 319 317 317 317 318 307 294 307 310 311 312 320 320 316 313 308 306 301 300 298 300 300 301 302 303 304 303 303 305 306 310 311 311 311 312 311
312 316 317 320 321 322 320 320 319 319 318 317 317 312 304 299 309 310 310 309 313 318 313 316 312 307 305 300 304 302 297 299 300 301 301 303 298 299 306 308 307 308 310 312 313
311 313 315 317 320 321 321 320 319 319 319 317 317 308 296 309 310 309 309 307 310 309 311 315 314 309 305 303 300 297 297 290 297 299 301 301 291 300 305 305 305 307 308 309 311
311 310 313 315 317 320 320 320 319 317 319 318 307 301 294 309 306 308 308 304 306 306 307 315 307 300 300 295 290 293 286 289 292 299 299 299 294 302 305 303 303 304 306 307 309
310 310 310 313 315 318 319 319 317 314 314 314 308 298 300 298 305 306 308 305 302 302 301 301 299 295 295 292 282 285 287 289 289 294 295 293 293 297 300 300 301 302 303 305 306
309 310 310 311 314 317 317 309 300 299 304 298 298 297 300 304 307 304 306 303 301 298 292 295 292 288 291 292 292 290 289 287 291 295 292 292 292 294 298 298 298 300 301 303 305
308 308 309 310 314 314 312 302 300 300 291 300 302 301 304 305 298 301 305 297 295 290 292 291 287 293 293 294 292 291 288 288 291 292 291 290 289 293 295 296 298 299 300 302 305
307 307 307 309 312 310 307 302 304 302 290 293 299 301 300 303 297 298 301 297 293 289 289 287 289 293 291 290 289 288 286 286 286 289 291 289 286 289 293 295 296 298 300 301 303
307 308 309 309 305 309 304 306 305 300 278 285 292 297 302 303 295 304 303 298 293 290 292 290 293 290 288 287 288 284 290 289 288 285 280 288 278 287 290 292 293 293 295 298 300
307 309 309 309 304 304 306 307 303 298 268 287 293 304 302 296 295 297 304 300 291 291 291 287 288 288 287 288 289 286 290 288 288 286 284 284 281 285 289 288 291 295 296 296 299
308 309 309 306 306 305 309 305 298 281 269 286 293 293 294 295 296 297 298 302 299 293 293 289 294 292 290 291 291 293 288 288 288 286 279 283 282 283 286 288 290 293 296 298 301
307 308 307 306 298 310 308 300 282 272 287 285 287 292 292 290 292 293 293 291 289 284 284 289 290 293 293 288 290 290 286 279 277 278 277 284 282 284 289 292 293 293 294 297 299
307 308 306 305 307 309 304 288 276 281 283 290 289 290 287 290 290 292 290 288 292 290 285 280 277 289 293 289 286 286 285 279 273 274 277 283 279 284 291 295 295 296 297 297 299
306 304 302 304 308 308 293 281 279 282 288 288 288 285 285 288 288 289 288 288 291 292 284 281 281 288 291 291 290 286 282 288 281 282 278 281 284 288 291 292 296 297 299 298 297
300 299 298 306 310 301 288 284 282 290 291 290 283 286 282 285 285 286 285 287 289 293 293 285 279 285 288 291 292 289 290 281 282 273 273 278 279 282 286 288 294 295 298 299 299
299 293 301 308 307 292 284 284 286 293 292 288 286 285 285 285 286 286 283 286 289 288 291 287 284 281 286 286 284 286 284 286 284 282 275 274 278 286 287 291 293 296 298 299 299
296 287 302 306 287 286 285 287 294 292 294 292 291 289 286 286 285 285 282 285 290 290 286 289 285 279 280 289 291 289 286 286 280 278 281 278 279 292 294 294 296 296 298 300 300
291 293 305 301 284 286 290 290 292 291 292 291 289 291 291 286 283 285 285 291 291 290 287 290 284 277 279 285 288 285 287 287 286 285 279 276 279 290 290 293 296 297 300 299 299
292 286 289 296 294 290 287 287 287 293 292 294 293 293 291 289 289 285 285 290 292 292 295 293 286 279 278 283 286 283 285 286 285 280 280 280 282 286 289 291 294 296 300 300 299
295 290 291 285 289 290 290 289 287 287 293 294 292 290 291 287 288 287 287 289 291 294 293 291 284 285 286 287 287 285 285 286 284 284 280 283 283 286 289 291 295 297 300 300 298
291 291 293 289 292 290 291 287 286 289 290 290 289 292 291 290 290 286 288 287 288 289 291 292 284 286 284 288 287 284 286 286 286 286 285 285 284 292 292 295 296 298 299 300 299
296 296 295 292 289 288 287 288 288 292 292 295 294 292 291 293 296 297 296 294 293 292 290 290 286 285 281 288 287 284 288 287 288 289 287 283 288 292 291 294 295 297 298 299 300

GFSSW_sfc_thetae_024.txt.gz
Theta_e
323 324 325 325 323 321 320 319 320 320 319 320 320 321 324 327 328 322 316 320 322 328 326 319 317 316 317 313 318 316 303 299 301 301 303 309 307 312 314 312 313 315 314 317 322
321 323 325 325 325 322 321 320 320 319 319 319 320 321 323 325 322 317 324 328 330 328 321 315 311 312 310 310 313 310 303 302 306 307 305 308 308 310 309 310 311 313 317 318 323
316 320 322 324 324 324 322 319 319 319 319 318 319 321 322 324 314 313 327 331 332 330 322 318 315 311 307 310 309 308 303 306 307 309 310 309 309 312 309 307 311 312 314 317 318
314 316 320 321 323 324 323 321 320 319 318 318 319 320 321 320 299 316 324 326 333 328 321 316 312 307 304 302 308 303 307 307 307 310 310 308 311 310 310 310 314 316 316 318 319
312 313 315 318 321 323 323 321 320 319 318 318 318 319 317 309 309 318 320 318 324 324 318 313 309 307 303 304 305 303 304 306 308 308 308 309 307 307 308 313 316 317 317 318 319
311 312 312 316 318 321 322 322 320 320 318 318 317 318 309 300 311 314 314 316 321 321 318 315 310 310 305 303 303 304 304 305 306 306 306 304 305 306 308 312 311 312 313 315 317
311 310 311 313 316 319 321 321 321 320 319 318 318 315 307 301 312 314 314 315 318 321 315 316 314 308 309 304 307 305 300 303 304 304 303 306 301 302 308 310 309 310 311 313 315
310 311 311 311 314 316 319 321 321 321 319 318 318 312 301 311 315 311 313 313 315 317 319 319 315 309 306 306 303 299 300 295 301 302 304 303 295 302 308 308 308 309 311 312 313
310 310 311 311 311 314 317 321 320 319 319 318 311 306 298 311 306 310 312 311 310 311 315 318 313 304 303 299 296 297 292 293 296 302 301 301 298 304 308 307 307 308 310 311 313
309 309 310 310 310 311 314 320 319 317 317 312 309 301 303 300 306 308 311 311 307 308 307 306 304 299 299 296 289 291 291 293 293 297 299 298 298 302 305 305 305 307 309 310 311
308 308 309 309 308 310 312 312 302 301 307 301 301 299 301 306 309 306 309 306 306 304 297 299 294 291 295 296 296 294 292 292 295 298 296 295 296 298 302 302 302 303 304 306 308
307 307 308 308 308 309 309 303 302 305 296 304 304 303 305 306 299 303 308 301 300 295 298 294 290 296 297 296 294 292 289 289 294 297 295 293 293 296 299 299 301 301 302 303 305
307 307 307 307 308 307 304 305 309 309 296 297 302 302 303 305 299 300 304 301 297 294 295 291 292 296 295 293 291 291 289 289 288 294 295 293 291 295 298 299 301 301 302 303 304
307 307 308 308 303 305 303 310 308 305 290 290 295 299 303 304 297 306 306 301 297 293 294 292 296 293 292 291 293 288 294 292 290 288 283 291 284 292 296 296 298 299 301 302 304
307 309 308 308 303 302 306 309 306 302 279 291 294 306 303 297 299 299 306 301 294 294 294 290 292 291 289 290 293 289 293 291 291 288 286 288 282 289 293 293 296 299 302 303 305
307 307 307 307 306 306 310 306 301 284 278 287 294 294 294 296 296 300 299 303 300 295 295 293 297 295 293 295 294 294 291 291 290 287 281 286 284 287 292 294 296 298 301 302 303
307 307 306 308 299 309 308 299 283 282 289 285 288 293 292 290 293 295 293 292 290 285 286 291 292 295 295 290 293 292 287 281 279 279 279 288 286 288 294 296 297 298 300 302 304
308 306 307 307 309 309 303 288 281 285 287 291 292 292 289 291 291 292 291 289 294 291 288 284 284 291 294 290 289 289 287 282 276 278 281 287 282 288 296 298 299 300 302 305 306
306 304 304 306 308 304 292 284 285 287 290 288 289 286 286 289 290 290 289 288 292 293 286 285 283 291 294 295 292 288 284 291 283 285 280 284 288 293 296 296 297 298 302 303 305
299 299 301 307 308 300 289 286 287 293 293 292 285 288 283 286 287 287 288 292 291 295 295 288 283 289 291 294 294 291 292 282 284 276 275 282 284 285 290 293 296 298 300 303 305
297 291 301 308 306 293 286 286 291 295 295 291 288 287 288 286 288 287 288 290 293 293 296 291 286 285 289 287 287 287 285 287 287 284 278 277 282 293 292 294 295 297 300 303 304
296 288 303 305 287 288 288 290 295 293 297 294 293 291 289 289 288 288 287 289 294 294 290 292 287 281 284 291 293 292 288 287 281 280 282 282 283 294 295 297 298 298 300 303 305
292 292 304 303 286 287 290 292 295 293 294 293 291 293 293 290 286 289 289 293 294 293 291 292 286 280 284 288 291 287 289 289 288 286 282 279 282 293 294 294 297 298 300 301 304
292 286 291 297 296 292 290 289 290 296 295 296 293 295 292 290 291 288 289 292 294 294 296 295 288 284 282 287 290 285 287 289 286 282 283 284 286 290 292 293 295 297 298 300 303
295 289 292 287 291 293 293 292 290 290 295 296 293 293 291 288 289 288 290 291 293 295 295 292 284 286 287 288 288 287 287 288 284 286 282 286 287 291 293 294 296 297 299 301 300
290 289 294 293 294 291 292 290 290 291 293 291 291 293 294 290 290 289 291 292 291 293 292 294 286 288 285 289 289 286 289 289 288 288 287 288 287 294 296 297 296 297 299 299 300
296 296 292 292 292 291 291 291 291 294 294 296 295 293 292 294 296 297 297 296 296 292 291 291 287 285 283 288 288 286 289 290 290 290 289 284 290 294 294 294 295 298 298 298 300

GFSSW_sfc_thetae_027.txt.gz
Theta_e
318 319 322 323 325 325 323 321 320 320 320 320 320 320 322 325 328 323 316 322 324 329 325 321 318 318 318 314 316 318 305 299 302 302 304 310 308 313 315 312 314 316 316 320 324
314 316 318 321 323 324 324 322 321 320 320 319 319 320 322 324 321 316 325 326 327 328 321 316 313 315 311 311 312 310 302 302 306 307 306 309 309 310 310 310 311 314 318 320 324
312 313 315 317 320 322 324 323 321 320 320 319 319 320 321 322 314 313 331 330 331 330 323 319 316 313 308 311 309 309 302 306 307 310 311 309 309 312 309 308 311 311 315 318 320
312 313 313 314 316 319 322 324 321 321 319 319 318 319 321 319 300 320 326 329 333 328 321 316 312 307 305 304 309 303 307 308 309 310 310 308 311 309 310 311 314 316 318 318 318
310 312 312 312 314 317 319 322 322 321 319 319 318 319 316 309 310 321 321 320 326 325 318 313 310 308 303 305 305 304 306 307 309 309 309 310 308 308 309 314 316 316 317 317 318
310 311 312 312 312 314 318 321 322 321 320 319 318 318 312 301 315 319 318 317 320 322 318 315 311 312 307 306 304 306 306 306 308 307 308 305 305 306 308 312 312 313 313 315 316
309 310 311 312 312 313 315 318 322 321 320 319 318 315 307 304 313 314 314 316 321 321 316 317 315 310 310 305 308 307 302 305 306 306 305 307 302 303 309 310 309 310 311 312 314
308 309 310 311 312 312 313 315 318 320 320 319 318 312 303 313 316 312 314 317 321 322 320 320 317 310 308 307 304 301 302 296 303 305 305 303 296 304 309 309 308 309 310 311 312
308 308 309 310 310 310 311 313 315 320 320 318 312 308 301 312 306 311 314 313 314 318 321 318 314 306 304 300 297 299 294 296 299 305 303 302 299 305 309 309 307 308 310 311 312
307 308 308 309 309 309 310 311 313 319 316 314 311 302 305 302 308 309 313 314 309 312 310 309 303 297 298 296 291 294 294 296 295 300 300 299 298 303 306 306 307 308 309 310 311
307 308 308 308 308 309 308 305 305 303 307 301 301 301 304 308 310 307 311 310 309 307 298 302 296 294 298 300 299 297 294 294 297 301 298 296 297 300 303 303 303 304 306 308 309
307 307 307 308 308 308 306 296 300 305 297 306 305 304 307 308 300 305 311 302 301 296 298 296 292 298 300 298 296 295 293 293 296 298 296 295 295 298 300 301 302 303 304 306 307
306 307 307 308 307 307 302 300 305 307 297 300 303 303 303 306 301 302 306 303 299 295 295 293 295 298 297 295 293 294 292 291 291 295 296 294 292 296 300 301 303 304 304 305 305
305 307 307 308 304 305 300 306 305 306 289 291 297 301 304 305 298 306 307 302 298 293 295 294 298 294 294 293 294 290 296 294 293 290 286 293 285 293 297 298 301 302 302 303 304
306 307 308 308 302 301 304 309 307 302 280 293 296 307 304 299 300 300 308 302 295 296 295 292 293 293 290 292 295 291 295 292 292 289 287 289 285 291 296 295 298 301 303 304 306
306 307 308 306 307 306 310 306 301 285 280 288 294 294 295 297 298 300 300 303 301 295 296 295 298 296 294 296 296 295 292 291 291 287 280 287 287 288 292 295 298 301 303 303 304
307 308 306 306 300 310 308 298 282 280 291 286 288 293 293 291 293 295 294 292 291 285 286 291 292 295 296 292 295 293 288 283 281 280 280 290 287 289 295 297 298 299 301 303 304
308 307 307 307 310 309 300 289 280 287 287 292 292 293 289 291 292 293 292 289 293 292 289 284 285 292 295 292 290 290 289 283 277 280 283 290 284 289 297 299 300 301 301 303 303
306 303 305 307 309 305 292 283 286 289 290 290 291 288 288 290 291 291 291 290 292 294 288 287 285 294 296 296 293 289 284 291 284 285 281 285 289 294 297 297 298 299 300 301 304
300 299 301 309 308 301 288 286 288 294 294 294 286 288 285 287 288 289 288 294 292 296 297 291 285 291 293 295 294 291 294 283 284 276 277 284 285 287 292 294 297 297 299 301 304
298 291 302 307 306 294 287 288 292 296 296 292 290 288 287 287 289 288 289 293 296 295 296 293 288 287 289 288 288 288 285 287 288 286 279 279 284 295 293 294 294 297 300 302 304
296 287 303 307 289 288 289 291 295 294 297 295 295 293 290 291 290 290 290 291 297 297 290 293 288 283 286 293 294 293 288 288 282 281 284 283 283 296 296 296 297 297 300 303 303
292 291 303 302 287 289 292 293 295 294 295 294 293 294 295 292 288 291 292 295 296 295 293 293 287 282 285 289 292 289 290 290 290 288 282 280 283 295 296 295 297 296 299 300 302
294 288 294 298 298 293 291 291 291 298 296 297 295 296 294 292 294 291 291 294 296 295 297 297 290 285 283 287 290 285 288 290 287 282 284 285 287 292 294 295 297 298 299 299 301
294 290 293 289 293 294 294 292 290 291 296 298 294 294 293 289 290 290 292 293 295 296 295 294 285 287 288 289 289 288 288 289 286 287 283 287 287 291 294 295 297 299 298 299 300
290 290 292 294 296 294 293 292 292 293 294 292 293 294 295 291 292 289 292 293 292 294 293 294 286 289 285 289 290 288 290 290 290 290 289 288 287 295 297 298 297 298 298 299 300
297 297 292 294 293 293 293 293 293 295 297 298 296 295 293 295 297 298 298 297 296 293 291 290 288 285 283 289 288 287 289 290 291 293 291 286 292 295 294 295 295 297 297 299 300

GFSSW_sfc_thetae_030.txt.gz
Theta_e
313 314 315 317 319 321 323 325 323 322 320 321 320 320 321 322 324 322 312 320 324 330 325 323 319 316 315 313 313 314 301 296 299 299 301 306 304 309 310 307 309 309 308 316 328
311 313 314 314 316 318 321 323 324 322 321 321 320 320 320 322 318 314 322 328 327 330 318 315 311 313 308 309 309 306 300 301 305 304 303 306 305 306 305 305 306 308 315 319 320
311 311 312 313 314 315 318 321 323 323 322 321 320 319 320 320 311 311 329 330 330 328 321 317 315 311 306 308 306 305 299 304 305 306 309 307 306 308 305 303 307 305 310 314 318
311 311 311 313 313 313 316 318 321 323 322 320 319 319 320 316 297 319 330 332 332 327 321 315 311 306 303 302 306 300 305 306 306 308 308 306 308 306 306 306 311 311 312 313 314
311 311 310 311 313 313 313 316 320 322 322 320 319 319 314 307 308 323 326 326 326 324 318 313 307 305 301 302 304 302 303 306 307 307 306 308 305 305 306 309 311 312 312 311 312
311 311 310 311 312 312 313 314 318 321 322 320 319 319 310 299 317 319 318 317 318 321 318 316 309 309 305 303 301 304 304 304 305 304 305 303 304 305 304 308 308 310 309 309 311
311 310 309 309 310 311 312 314 315 317 322 320 319 314 305 304 313 315 316 314 318 319 315 318 315 309 309 304 308 305 300 302 303 304 303 304 299 300 306 307 305 306 307 309 310
310 310 309 308 309 311 311 311 312 314 317 320 319 311 301 314 315 312 312 313 318 320 320 320 316 310 307 307 304 300 300 293 301 303 304 302 293 302 306 305 304 305 306 306 308
309 309 309 308 309 309 310 310 311 312 315 319 312 308 299 312 307 312 312 311 315 319 320 319 315 306 305 299 296 297 290 293 296 302 301 299 294 302 305 304 303 303 304 306 307
308 308 308 308 309 309 309 310 310 311 316 315 311 302 304 301 306 309 311 314 310 313 311 309 303 299 299 295 288 290 292 293 293 298 298 296 295 300 302 302 301 303 304 304 306
308 308 307 307 308 308 306 304 300 302 308 300 301 301 302 308 310 307 310 310 308 307 298 304 296 292 294 297 297 297 293 291 294 298 294 293 294 296 299 300 300 301 302 304 305
307 307 306 307 308 308 305 296 297 301 297 305 305 304 306 307 300 304 312 303 301 297 299 296 291 298 301 300 296 294 290 290 294 297 293 292 291 295 297 298 299 300 300 301 303
307 306 307 308 309 305 300 298 305 302 293 299 304 302 303 305 300 301 307 303 298 295 295 292 294 299 297 295 292 291 289 289 289 293 294 291 288 292 296 298 299 300 301 302 302
306 306 307 308 303 302 299 306 305 303 285 292 297 301 303 305 298 307 308 303 299 294 295 294 298 295 293 293 293 287 294 293 291 288 281 290 279 288 292 293 295 295 296 299 301
306 307 307 308 301 297 303 305 304 298 277 294 296 308 304 299 300 300 307 302 295 295 295 291 293 292 290 292 294 290 294 292 291 286 285 284 280 285 291 290 292 295 297 298 299
306 307 308 305 305 304 307 305 299 280 277 289 294 295 295 298 298 300 300 303 302 296 296 294 298 295 294 295 295 295 291 290 289 287 278 283 283 282 286 289 291 294 295 298 299
306 307 306 306 299 308 306 298 282 276 290 287 289 294 293 292 294 295 294 292 289 285 286 291 292 295 296 291 294 293 288 276 276 277 274 287 283 285 291 294 295 294 293 296 296
307 307 305 306 308 305 301 288 277 286 286 292 292 292 289 292 292 293 291 289 294 291 288 282 282 291 294 291 289 289 288 278 273 274 277 286 280 284 293 295 296 296 296 297 297
307 303 303 307 309 305 294 281 282 288 290 289 291 287 287 291 291 291 290 289 292 293 286 284 285 294 294 295 293 288 283 288 281 281 274 280 284 290 294 294 295 294 295 295 296
301 298 300 308 307 300 289 285 287 293 294 293 286 289 284 287 288 289 288 293 291 295 294 291 283 291 294 295 294 290 291 281 281 269 272 278 281 283 288 289 292 291 293 295 297
298 293 301 308 306 294 284 285 291 296 296 292 289 287 288 287 289 287 287 293 294 294 295 292 287 285 288 287 286 287 285 286 285 283 274 274 279 289 288 291 291 292 295 297 299
297 287 303 306 289 290 287 290 295 295 298 295 294 291 289 289 288 287 288 291 296 295 290 293 288 279 283 291 292 291 287 286 277 275 279 278 280 294 291 294 293 293 296 297 301
292 291 304 301 286 288 291 293 295 295 295 294 293 294 293 289 286 291 291 295 295 294 292 292 285 275 281 287 290 285 288 289 287 286 280 277 280 294 294 294 296 296 296 296 296
295 288 295 299 298 291 291 291 291 298 296 296 294 295 292 291 293 290 290 294 295 295 298 296 289 280 276 281 287 283 287 288 287 281 281 282 284 289 292 294 296 297 297 296 296
294 290 293 290 293 294 294 293 291 291 297 298 294 294 292 289 290 289 292 292 294 296 294 292 284 282 286 287 287 286 286 287 285 286 283 285 286 290 293 295 296 298 298 297 297
291 290 292 294 296 294 293 291 291 293 294 293 292 294 294 290 291 289 291 291 290 293 291 292 283 284 282 287 287 285 288 289 290 290 289 289 289 296 297 297 295 296 297 296 297
297 298 293 294 293 292 293 293 293 296 297 297 296 294 293 295 296 296 296 296 295 291 290 291 287 284 276 287 287 284 288 291 291 293 292 287 292 298 297 296 295 296 295 295 297

GFSSW_sfc_thetae_033.txt.gz
Theta_e
313 313 313 313 315 316 318 320 322 325 323 321 321 321 321 321 321 319 313 319 322 332 326 321 317 315 312 307 310 307 295 292 296 297 299 304 301 306 308 304 306 306 309 319 328
313 313 312 312 312 314 315 317 320 322 324 322 321 321 320 321 316 312 322 328 331 330 321 313 311 311 304 305 305 301 296 297 301 302 300 303 304 304 303 303 301 306 313 319 327
313 313 313 312 311 313 314 315 318 320 323 323 321 320 320 319 310 308 327 330 331 330 319 315 314 309 303 303 302 300 296 303 305 305 305 305 305 306 302 299 303 303 308 314 318
313 312 312 312 311 311 313 314 315 318 321 323 321 320 320 315 293 317 330 331 331 326 319 315 310 305 301 299 303 297 302 304 305 306 305 303 306 304 303 303 307 307 309 310 312
312 312 312 311 310 311 312 313 314 317 320 322 322 320 314 305 305 322 329 331 326 323 317 313 307 303 299 300 301 298 301 304 305 304 303 305 303 302 303 307 308 308 308 307 309
312 311 311 311 310 309 310 312 314 316 317 320 322 320 309 298 314 321 320 321 322 320 316 315 307 306 301 301 297 300 301 302 303 303 303 302 301 302 303 306 304 305 306 305 307
311 310 310 310 309 309 310 312 312 313 314 317 321 315 304 302 311 315 316 313 316 320 314 317 314 307 305 302 304 302 297 300 301 302 301 303 297 298 303 304 303 303 302 305 306
310 309 310 309 309 309 309 310 311 311 312 315 320 311 300 312 311 311 311 311 313 318 319 320 316 308 304 304 302 297 297 290 299 301 302 300 292 300 303 302 301 304 304 304 306
309 309 309 309 308 309 309 309 310 311 312 314 313 306 298 315 308 310 309 308 313 317 318 319 314 306 303 297 294 294 287 290 294 301 300 298 292 301 303 301 299 300 302 305 305
308 308 308 308 307 308 309 309 309 309 309 310 311 300 304 301 307 310 309 310 311 313 310 308 304 300 299 295 286 289 288 290 290 296 297 295 294 298 300 299 298 298 300 300 303
307 307 308 307 307 308 305 300 294 298 300 301 299 300 302 307 309 307 308 310 310 307 300 303 296 292 293 295 295 295 293 289 291 296 292 291 291 293 296 295 297 299 299 300 303
306 306 307 307 308 308 305 295 294 298 290 301 303 303 305 306 300 304 310 302 301 295 297 296 292 298 300 299 297 293 289 287 291 294 291 290 290 294 295 296 297 298 297 298 301
306 306 307 308 308 304 298 297 303 303 288 298 303 302 302 305 299 300 307 302 298 295 295 290 293 299 297 295 293 289 287 287 287 291 290 288 285 288 293 295 297 298 299 300 300
306 306 307 308 302 301 297 303 303 301 283 291 297 301 303 305 297 305 308 302 299 294 296 294 297 294 292 292 292 286 292 291 290 285 279 287 277 284 290 291 293 293 295 298 299
306 307 307 307 300 297 301 302 302 297 272 292 297 307 303 298 299 300 308 302 295 295 295 291 293 292 289 291 293 289 293 290 289 284 281 281 277 282 287 287 290 291 292 294 298
307 307 308 304 303 303 304 301 297 280 272 288 296 295 294 297 298 300 300 304 302 297 295 293 296 294 292 294 293 294 289 287 286 283 271 280 280 279 283 287 289 290 292 294 296
307 308 306 306 298 305 303 295 278 272 286 286 290 294 293 293 293 295 294 292 288 284 284 291 291 294 295 289 292 291 282 271 271 275 273 283 280 281 288 291 291 292 293 292 294
308 308 305 306 307 304 298 286 273 283 285 294 292 292 289 292 292 293 291 287 291 288 282 278 276 289 292 289 287 287 284 273 270 271 275 283 278 283 292 295 294 295 295 296 295
307 303 301 305 305 303 292 277 279 287 290 290 291 287 287 291 291 291 290 289 289 290 282 280 282 292 293 293 292 286 279 286 278 278 270 278 281 287 291 291 291 290 292 292 293
295 298 298 306 304 298 288 285 285 292 294 293 284 288 284 287 287 288 288 291 290 292 291 288 282 291 293 295 294 288 289 279 275 266 270 275 277 281 285 288 290 290 292 295 296
295 293 300 306 304 293 283 285 291 295 296 292 287 288 287 287 288 287 286 291 292 292 294 292 286 283 290 286 284 286 285 286 282 277 272 272 277 286 287 288 288 290 291 294 297
292 287 299 303 288 289 285 287 295 294 297 295 291 289 287 288 287 287 285 288 294 295 288 292 287 277 281 288 291 288 284 283 274 273 276 274 278 293 292 290 293 294 297 299 300
293 291 301 299 285 286 293 293 296 294 295 294 292 292 292 288 284 288 290 293 296 294 292 292 283 271 282 283 287 284 287 287 284 282 278 277 279 291 292 293 295 296 299 300 301
294 286 291 296 295 291 290 290 291 297 295 294 292 292 291 290 290 288 289 292 294 295 299 294 285 277 275 279 284 277 285 286 284 280 280 281 283 288 291 293 296 298 298 299 300
290 287 292 282 287 291 294 292 290 290 295 295 293 291 291 289 289 288 290 290 292 296 293 291 282 278 283 286 285 283 284 286 284 285 282 284 286 290 293 295 298 297 298 298 298
291 289 291 290 293 290 291 289 291 292 293 291 291 293 293 290 290 288 291 289 288 290 288 289 278 284 281 286 286 283 287 287 287 287 287 288 288 296 299 300 298 297 297 297 298
297 297 293 290 289 290 289 292 292 294 295 295 294 294 293 294 294 294 295 294 292 289 288 290 286 277 272 284 285 284 287 288 290 292 292 288 293 298 297 298 295 295 295 296 297

GFSSW_sfc_thetae_036.txt.gz
Theta_e
313 314 313 313 312 312 314 316 317 319 322 325 322 321 321 321 320 316 309 316 320 329 327 320 316 314 312 306 307 304 294 291 294 295 296 302 300 304 306 302 303 304 314 320 327
314 314 313 312 313 311 311 314 315 317 320 322 324 321 321 320 314 309 320 328 330 331 321 315 311 310 303 303 303 299 293 295 300 301 299 301 302 304 302 301 300 307 315 324 326
315 314 314 314 313 312 312 313 314 315 317 320 323 322 321 318 307 306 324 329 331 329 320 319 313 309 302 302 301 299 295 301 303 305 304 303 303 305 301 299 301 303 312 318 321
314 314 313 312 312 312 311 311 313 314 315 319 322 322 320 314 292 313 328 329 331 325 318 314 310 304 300 298 302 296 301 303 304 306 303 301 304 302 302 302 306 306 306 309 313
313 312 312 312 311 311 310 310 311 313 315 318 320 321 315 303 303 316 327 329 325 321 315 311 306 303 298 300 300 296 298 302 304 304 302 303 302 301 302 306 307 305 307 306 307
312 311 311 311 310 310 310 310 311 312 314 316 317 320 308 295 312 319 322 323 321 319 315 313 309 307 300 299 299 300 301 300 302 302 302 301 300 300 301 305 305 305 304 304 306
310 310 310 310 310 309 310 310 310 312 312 313 315 315 304 299 311 317 321 319 321 319 314 316 314 305 303 300 302 301 297 298 300 300 300 301 298 296 302 304 302 302 302 304 304
309 309 309 309 309 309 309 309 309 310 311 312 313 312 299 311 312 311 312 311 316 319 318 319 316 306 303 303 300 297 295 290 297 299 300 300 292 298 302 299 300 301 301 302 305
308 308 308 308 308 308 308 309 310 310 311 311 306 307 296 316 307 309 309 308 309 316 317 318 314 305 301 295 291 292 285 289 293 300 299 297 292 300 304 300 299 299 300 301 303
308 307 307 308 307 307 308 309 308 308 307 308 306 299 302 301 308 309 308 309 310 312 310 308 306 299 297 293 284 288 287 288 290 295 295 294 293 298 299 298 298 298 299 300 301
307 307 307 307 307 308 306 301 291 294 299 295 298 299 301 307 310 307 308 306 311 306 299 303 297 294 297 296 294 293 292 290 291 295 291 290 289 292 295 294 294 297 297 298 300
307 306 307 307 308 308 304 294 294 296 290 298 298 301 305 306 300 304 308 303 303 297 300 296 293 299 300 299 297 295 289 288 290 293 291 289 289 293 294 295 296 297 298 299 299
306 307 307 307 308 304 297 297 303 300 288 292 296 298 301 304 299 300 305 303 298 295 295 293 294 300 298 296 294 291 286 286 286 290 289 287 287 288 291 293 295 297 298 299 299
306 307 307 308 302 300 295 304 303 300 283 288 294 301 303 303 296 306 309 302 298 293 294 292 295 297 295 293 291 285 291 290 288 285 279 286 277 283 288 289 291 291 291 294 296
307 308 308 308 300 297 300 304 301 297 273 291 296 307 303 297 299 300 308 302 295 295 294 290 292 291 289 292 293 288 292 289 288 283 280 280 277 281 285 287 288 290 291 292 293
309 309 309 305 302 303 303 300 297 278 274 286 295 295 294 296 297 301 301 303 302 296 294 291 296 294 291 293 293 293 288 286 285 281 271 279 279 278 282 285 287 288 291 292 294
309 308 305 306 298 305 303 293 276 273 285 285 291 294 293 292 294 296 294 293 290 286 286 291 290 293 294 289 292 289 282 272 270 273 273 281 278 280 286 290 289 291 292 292 294
307 306 306 306 305 304 297 287 273 281 281 291 292 292 289 292 293 293 292 288 292 288 283 281 281 289 291 289 286 286 283 273 270 271 274 282 278 282 289 291 291 291 291 292 292
305 299 301 305 305 302 292 277 277 283 287 291 291 287 288 291 292 291 290 289 290 288 282 279 281 291 292 292 291 285 279 285 277 276 270 276 280 284 288 288 289 290 294 295 295
295 294 299 306 305 298 288 283 285 290 294 292 284 287 283 287 287 288 288 292 289 291 290 286 279 289 292 294 293 288 289 277 272 264 269 274 275 279 283 286 288 289 290 292 295
293 290 297 304 304 293 284 284 290 296 296 291 287 285 286 286 287 287 286 290 291 290 291 289 283 283 290 285 284 285 283 282 280 275 270 271 276 284 284 287 288 290 291 293 295
290 281 298 302 287 286 285 289 294 294 296 293 290 289 286 289 286 286 285 287 293 292 287 290 284 274 283 287 289 287 284 282 272 271 274 273 278 289 288 288 290 294 295 297 300
288 288 298 297 286 288 292 293 296 294 293 292 289 290 290 287 284 286 288 292 294 293 289 289 280 272 279 283 286 283 285 285 283 281 270 273 277 289 289 292 294 297 300 301 300
289 281 288 295 291 287 288 289 290 295 294 292 290 291 289 287 288 287 287 292 296 295 299 294 283 277 274 278 281 275 283 285 282 275 276 278 282 287 290 294 297 299 301 298 299
289 289 290 282 287 289 290 290 289 290 294 294 291 291 291 287 288 287 290 289 293 297 294 289 276 276 281 284 283 282 283 284 281 283 277 283 284 288 293 295 298 300 299 298 298
288 289 292 288 290 287 289 288 290 291 292 291 290 294 293 290 288 286 288 287 287 291 287 288 278 280 279 284 284 280 284 285 285 285 285 286 286 293 297 300 295 295 295 295 298
297 296 293 290 288 286 287 289 291 292 293 295 293 294 293 294 294 293 292 292 290 288 286 286 281 280 276 282 282 280 285 286 287 288 288 286 293 298 297 297 292 292 291 288 290

GFSSW_sfc_thetae_039.txt.gz
Theta_e
316 316 315 315 314 313 314 312 312 315 317 318 321 324 322 322 321 315 307 314 319 328 330 320 317 314 311 306 306 303 293 290 292 293 295 300 299 303 304 301 302 303 312 316 324
315 316 316 315 314 314 313 312 311 313 315 316 318 322 322 322 313 308 316 324 327 328 321 313 309 310 304 303 303 298 292 294 299 299 297 301 300 302 302 300 299 306 317 323 324
314 314 314 314 313 314 313 312 311 311 313 314 317 320 323 318 304 303 320 325 328 328 322 319 313 308 301 301 300 298 294 299 302 303 303 301 301 303 300 299 299 300 307 313 320
312 312 313 313 313 312 313 312 311 311 311 313 316 320 322 313 290 309 324 325 330 325 318 313 309 303 299 297 301 295 300 302 303 305 303 299 302 300 302 302 305 305 306 306 313
312 311 311 311 312 311 311 311 311 311 311 313 316 318 314 302 301 313 324 327 324 322 315 311 305 303 298 299 299 296 298 302 303 303 301 302 299 300 301 305 305 306 306 305 305
311 310 310 310 310 310 310 310 310 310 311 313 315 316 308 294 309 313 314 320 320 318 313 311 306 306 301 299 298 299 300 300 301 301 301 300 299 299 299 304 304 303 304 304 304
310 309 309 309 309 309 309 310 310 310 310 312 313 310 305 299 309 312 319 320 321 318 312 314 311 305 302 298 302 299 295 297 299 299 299 300 296 295 301 303 301 303 301 302 303
309 309 308 308 308 308 308 309 309 309 310 311 311 307 300 312 311 309 316 317 319 319 317 318 316 306 302 301 299 296 294 289 296 299 300 299 291 298 301 299 299 299 300 301 302
308 308 308 308 308 308 307 308 309 309 310 310 305 303 297 314 305 307 309 309 313 316 318 318 312 304 300 294 290 291 285 288 293 299 297 296 290 298 301 299 298 299 300 300 301
308 307 307 307 307 308 308 309 309 307 305 306 305 299 303 300 306 308 308 310 310 311 310 309 306 297 294 293 285 287 286 287 288 293 294 293 291 297 299 298 297 297 299 300 300
307 306 307 307 307 308 306 300 292 293 296 291 295 296 301 307 309 306 307 308 310 305 300 303 298 293 294 294 292 291 290 288 290 294 290 289 288 292 295 293 293 294 297 298 300
307 306 307 307 308 308 303 294 295 297 289 297 298 301 303 307 299 303 308 303 302 297 300 297 293 298 301 299 296 295 289 287 290 292 289 288 287 292 294 295 296 297 297 298 300
308 308 307 308 308 303 298 296 303 299 288 292 295 296 300 304 299 300 304 304 299 297 296 292 295 301 298 297 295 294 289 286 286 289 288 286 284 287 291 292 293 296 298 298 298
310 309 309 308 302 301 294 302 302 299 275 286 291 297 302 303 296 305 306 304 299 294 295 294 296 298 297 294 295 287 290 290 287 284 280 286 277 284 288 289 290 291 291 293 295
309 309 309 308 301 295 300 304 299 296 272 290 293 307 302 296 298 300 309 303 295 295 294 290 293 294 293 294 293 289 291 288 287 282 279 280 277 282 285 286 288 289 290 291 292
309 309 308 301 302 302 301 301 296 279 274 285 295 295 295 296 297 302 301 304 303 295 294 292 296 294 291 293 293 293 288 284 283 280 271 278 278 279 282 284 286 288 292 291 291
309 309 305 305 296 303 301 294 278 274 284 284 289 293 293 293 295 296 294 293 291 286 286 290 290 293 294 289 291 288 282 272 270 271 272 280 278 281 285 289 289 289 289 291 292
308 307 305 304 303 300 297 285 273 282 282 291 293 292 289 293 293 293 291 289 292 289 284 281 281 289 291 288 286 284 282 273 270 270 273 280 277 282 287 288 289 292 291 293 294
305 298 302 303 305 302 291 279 280 283 286 291 291 287 287 291 292 291 289 289 290 288 283 278 281 290 291 292 290 285 277 283 276 274 270 277 280 283 288 288 288 289 291 291 293
294 296 297 304 304 295 286 285 286 292 294 290 284 286 283 286 288 288 287 291 290 290 289 285 280 288 291 293 292 287 288 277 272 267 269 273 275 278 282 285 288 288 289 291 293
292 288 299 304 300 293 283 284 292 296 295 290 286 285 285 285 287 285 286 290 292 290 291 287 283 285 290 285 284 284 282 281 280 276 271 271 276 283 283 285 287 289 291 293 297
289 281 298 302 289 288 287 290 294 293 295 291 290 288 286 286 285 287 285 287 293 292 287 288 283 280 284 287 288 286 283 281 272 271 273 275 277 288 286 287 290 292 296 300 303
287 287 296 296 286 283 290 292 293 292 292 291 288 290 289 286 283 286 287 292 293 291 288 288 279 272 278 282 286 282 284 283 281 277 267 271 276 288 288 291 294 297 300 302 301
288 282 287 290 289 286 287 288 289 294 292 291 289 290 288 287 288 286 286 291 293 293 298 293 282 277 274 278 281 276 283 284 279 274 275 277 279 287 289 292 295 299 298 299 300
289 288 291 282 286 287 288 289 288 288 292 292 289 289 289 286 287 286 288 288 294 298 293 288 277 276 281 284 283 282 283 283 277 281 276 280 281 286 290 293 296 297 296 296 296
290 290 292 289 288 287 288 287 288 290 291 290 288 293 292 289 287 286 288 286 287 290 289 287 278 280 278 283 283 279 283 284 284 284 283 285 285 292 294 298 298 294 294 292 291
296 296 293 287 286 285 286 288 289 291 294 296 295 294 292 294 293 291 291 291 290 288 286 285 280 276 275 280 282 278 283 285 286 288 287 283 289 295 297 299 292 293 292 289 289

GFSSW_sfc_thetae_042.txt.gz
Theta_e
315 315 316 315 316 316 315 315 315 312 312 314 316 318 321 324 323 316 309 313 318 327 327 319 319 316 310 305 304 302 293 289 292 293 295 298 297 302 303 299 301 302 306 315 325
314 314 314 314 314 315 315 315 314 313 311 312 314 316 318 322 314 309 316 323 326 326 319 314 312 309 304 303 302 297 291 293 298 297 296 299 299 300 301 300 298 303 315 321 331
313 313 313 313 313 313 313 313 313 313 312 311 312 314 316 319 305 303 322 324 325 325 321 316 313 308 301 300 299 298 292 298 300 302 303 300 300 302 298 297 299 299 303 312 318
312 312 312 312 312 312 312 312 312 312 312 311 311 313 317 314 293 305 319 324 326 321 320 314 308 303 299 297 300 295 300 300 302 304 302 299 300 298 301 301 304 305 305 305 309
311 311 311 310 310 311 311 311 311 311 311 311 311 313 313 303 300 312 322 324 318 319 316 311 306 302 297 299 299 296 298 301 303 303 301 301 298 298 299 303 304 305 305 304 303
311 310 309 309 309 309 310 310 310 310 310 310 312 313 306 296 310 311 311 318 315 318 315 311 307 305 301 299 297 299 300 300 301 301 300 298 298 298 299 301 302 302 304 304 303
310 309 309 309 309 308 309 309 309 309 310 310 311 309 303 300 311 311 312 317 317 319 312 312 310 305 302 298 301 299 294 296 298 299 299 299 295 295 301 302 300 300 301 303 303
310 309 309 308 308 308 309 309 308 309 309 309 310 306 297 312 314 311 314 316 319 318 316 316 313 305 301 301 298 295 294 288 295 298 299 299 289 297 300 298 299 298 298 299 302
310 309 308 307 307 308 308 308 309 309 309 309 302 301 296 313 306 309 308 314 315 315 316 317 310 303 300 294 290 290 284 288 292 298 296 295 289 296 299 297 297 297 297 298 299
309 307 306 307 307 308 308 309 308 306 304 305 303 295 301 299 306 307 310 314 311 311 309 307 304 297 295 293 283 287 285 287 288 292 293 292 290 295 297 297 297 297 297 298 299
309 308 307 307 307 308 305 299 292 291 295 290 292 295 300 307 310 306 307 310 310 307 299 303 298 292 294 294 291 291 289 287 289 293 290 289 288 291 295 293 293 294 295 297 299
310 310 309 308 308 308 301 293 292 296 287 296 296 297 302 307 299 303 308 302 302 297 300 297 293 298 298 297 295 292 288 286 290 291 289 288 287 291 294 294 295 296 296 297 298
310 310 310 309 308 301 298 296 302 299 287 291 295 296 299 304 298 300 304 304 298 297 296 291 296 301 299 296 294 293 289 286 286 288 286 285 285 286 290 291 292 294 294 295 296
310 310 309 308 300 299 295 301 302 298 279 285 290 297 301 303 295 305 306 304 299 295 296 294 300 298 296 294 296 289 291 290 287 284 280 285 278 284 287 287 288 288 289 290 291
310 310 309 307 298 294 300 300 300 296 263 288 292 305 304 297 298 300 308 303 296 295 295 291 295 295 293 294 295 291 291 288 286 282 279 280 277 282 284 285 287 287 289 290 291
309 309 307 300 299 300 303 299 296 275 271 286 294 292 294 296 297 301 301 304 302 296 295 293 297 295 293 294 294 292 287 284 283 280 271 277 277 278 281 282 286 287 289 291 293
309 308 305 304 295 301 299 292 276 271 284 284 287 293 292 293 294 295 294 293 291 285 286 290 290 293 294 289 291 288 283 273 271 269 272 279 277 280 284 287 287 287 290 291 292
309 306 305 303 303 302 297 282 271 281 277 290 292 293 290 292 293 293 292 289 292 289 285 281 282 290 292 288 286 284 283 274 270 270 273 280 276 280 286 287 288 290 289 291 292
305 297 299 302 305 302 290 279 280 283 286 290 291 288 288 291 292 291 289 287 289 287 283 281 281 290 291 291 289 284 277 282 275 273 269 275 279 282 285 286 287 288 291 291 292
293 295 297 303 302 295 288 286 288 291 294 290 284 286 284 288 289 288 287 290 289 290 288 284 280 288 289 291 290 286 287 276 272 266 269 273 274 276 281 283 287 290 289 290 293
292 287 296 301 298 291 284 286 290 294 293 289 285 284 285 285 286 285 285 289 291 289 290 286 283 285 288 284 283 284 281 280 279 275 270 271 275 282 283 285 287 289 290 292 297
288 283 296 299 288 289 286 289 294 292 294 290 289 287 284 285 283 284 284 286 292 292 286 287 283 279 284 286 287 285 283 281 272 270 274 273 275 286 286 286 288 290 295 301 301
287 286 295 295 284 282 288 290 292 291 290 289 287 289 288 285 283 285 286 291 293 290 288 287 279 272 279 282 285 282 284 283 280 277 269 270 276 287 285 288 291 292 298 298 297
287 281 287 290 289 284 285 287 288 293 290 290 289 290 288 286 287 285 286 291 292 292 297 291 281 277 273 278 281 277 283 283 280 271 275 276 278 286 287 288 292 293 296 297 297
288 287 290 284 285 285 286 287 287 287 291 291 288 288 288 284 285 285 287 288 292 297 291 288 276 275 281 283 282 282 283 282 277 280 275 278 280 285 288 290 292 294 296 295 294
290 289 292 289 286 285 287 286 287 288 289 287 287 291 290 287 286 284 286 285 286 288 289 288 279 280 277 283 282 279 283 283 283 283 282 284 283 291 292 292 294 297 294 292 289
295 296 292 287 284 284 285 287 289 290 292 293 294 293 292 293 291 290 290 290 289 287 285 286 280 275 272 280 281 278 282 283 284 286 287 281 287 291 291 294 296 293 292 289 288

GFSSW_sfc_thetae_045.txt.gz
Theta_e
315 315 315 314 314 314 314 315 316 315 315 313 312 313 316 318 320 318 309 314 318 326 325 320 322 320 312 307 307 305 298 293 296 295 298 301 300 306 307 305 306 308 311 319 327
314 314 313 313 313 313 313 313 314 314 314 314 312 312 313 316 311 310 317 323 325 325 318 314 315 311 306 305 304 302 296 295 299 301 299 302 303 305 305 303 304 308 311 327 332
313 313 313 312 312 312 312 312 312 313 313 313 312 312 312 313 306 308 325 325 326 324 318 318 316 310 304 303 302 300 296 299 301 302 304 303 303 305 303 302 305 304 308 318 328
313 312 312 311 311 311 311 311 311 311 312 312 312 311 311 310 294 307 322 327 326 321 319 314 311 305 301 298 302 298 300 301 303 305 304 303 304 303 304 305 308 309 309 309 324
312 312 311 310 310 310 309 310 310 310 311 311 311 310 308 303 302 313 318 317 320 317 314 311 307 306 301 300 300 298 300 303 305 304 303 304 302 302 302 306 307 307 308 309 309
311 311 311 310 309 309 309 309 309 310 310 310 311 311 303 296 311 313 311 315 316 315 314 312 308 307 303 301 300 301 301 301 303 303 303 300 300 301 303 305 305 305 307 307 308
310 311 310 309 309 308 309 309 309 309 309 310 310 307 300 300 311 314 312 314 315 316 313 313 311 306 303 299 303 300 297 299 300 301 301 302 297 297 303 304 304 304 304 306 307
310 310 310 308 308 307 308 308 308 308 309 308 308 304 295 311 314 312 312 314 316 319 318 316 312 306 303 303 300 297 297 291 298 299 301 300 291 299 302 302 302 303 303 303 305
311 311 309 307 308 307 308 308 309 309 309 307 303 299 294 312 307 311 311 308 314 316 315 316 311 305 302 295 292 293 287 289 293 299 298 298 292 299 302 300 300 301 301 301 303
311 311 310 309 307 308 308 309 308 305 305 306 303 294 299 299 306 308 310 312 311 311 308 307 304 298 296 293 285 288 287 290 290 294 296 294 293 298 299 297 298 299 300 302 302
311 311 310 310 308 307 304 298 290 291 295 289 291 292 299 306 310 306 309 311 310 306 298 302 295 291 295 295 293 292 290 289 292 294 293 292 291 294 296 296 296 297 299 300 301
311 310 310 310 308 306 301 291 292 295 286 295 295 296 299 301 299 303 309 304 303 296 300 297 291 297 298 296 294 292 289 289 292 293 292 289 289 293 296 296 297 297 297 298 299
311 310 310 309 308 301 296 295 301 298 286 291 295 295 297 303 298 299 305 304 299 294 290 292 296 300 298 296 294 293 290 289 289 290 290 287 288 289 292 293 293 293 292 294 296
310 310 309 308 300 298 293 302 301 297 273 284 290 296 299 302 296 305 307 304 299 291 292 290 300 298 297 294 296 290 292 291 288 287 284 287 282 287 288 289 289 292 293 294 295
310 309 308 306 297 294 299 300 298 293 268 287 291 304 303 297 298 300 309 303 295 294 296 290 296 295 293 294 297 291 293 289 287 284 284 283 282 285 286 287 288 291 293 294 296
310 308 307 301 300 300 301 299 295 273 272 285 294 293 294 296 298 301 301 304 301 295 295 293 297 296 294 294 296 292 288 286 284 283 279 281 280 282 284 287 288 291 293 294 295
310 308 303 304 296 301 299 292 273 273 282 285 287 293 293 292 294 296 294 294 291 286 286 290 290 293 296 291 292 289 287 279 276 275 278 281 280 283 286 289 290 291 292 294 295
309 305 303 302 301 303 298 281 274 282 282 291 292 293 290 292 292 293 291 289 291 289 285 283 282 290 292 290 289 287 286 280 274 274 276 281 278 283 288 289 292 293 292 293 296
304 297 300 300 305 303 292 282 280 278 287 291 291 287 288 290 291 291 287 288 289 289 285 282 282 291 292 292 291 286 283 284 277 276 275 278 281 284 288 288 290 291 294 295 297
292 291 294 301 301 295 287 286 288 291 292 289 284 286 284 288 288 288 288 291 289 290 289 286 282 289 290 292 290 288 287 280 277 272 273 275 276 279 283 287 289 291 292 294 297
291 288 295 300 297 290 283 285 290 294 292 288 284 284 286 287 286 285 285 290 291 290 290 287 285 285 290 286 284 285 283 281 280 277 274 273 277 284 286 288 289 290 292 295 300
288 285 296 298 287 288 287 290 294 291 292 289 288 286 284 285 284 284 284 287 293 292 287 288 285 282 284 287 289 287 284 282 276 274 275 275 278 288 287 289 289 291 293 300 300
286 286 294 295 281 279 287 289 291 290 289 289 287 289 288 285 283 285 286 291 293 290 287 288 281 276 281 284 286 284 284 283 280 278 274 274 278 288 288 289 291 292 295 299 299
286 280 287 289 287 283 284 286 287 292 289 289 288 289 287 285 287 284 285 291 292 292 296 291 282 278 275 279 282 279 283 283 281 276 276 277 279 285 288 289 291 293 296 298 297
287 287 290 283 284 284 284 286 285 287 290 290 287 287 287 283 285 284 287 288 292 296 290 288 277 276 282 283 283 282 283 282 279 281 278 280 280 286 288 290 292 293 297 296 292
287 289 292 289 285 282 286 284 286 288 288 286 286 289 288 285 285 284 286 286 286 288 287 286 281 279 278 283 283 280 283 284 284 283 282 283 284 291 293 292 293 297 295 292 289
295 296 292 286 283 282 283 285 288 289 291 292 291 290 289 291 290 289 289 289 289 287 285 285 281 276 273 281 282 278 282 283 284 285 286 281 287 291 291 292 295 295 291 289 288

GFSSW_sfc_thetae_048.txt.gz
Theta_e
315 315 314 314 314 314 314 314 314 314 315 316 315 313 313 314 316 312 311 316 318 326 326 318 318 322 316 312 313 313 303 300 301 302 303 307 306 309 311 309 310 312 314 324 330
314 315 314 313 313 312 312 312 313 313 314 314 314 313 312 313 309 306 316 325 325 324 319 313 314 317 309 309 309 305 300 300 306 306 304 305 306 308 308 308 309 311 317 330 334
314 314 313 313 312 312 311 311 311 312 312 313 314 313 312 310 303 307 324 327 327 325 319 316 318 314 307 308 307 305 300 304 304 306 306 306 307 310 307 306 309 309 314 324 331
313 313 312 312 312 311 311 310 311 311 311 312 312 312 311 306 291 313 323 328 327 322 318 315 314 308 305 302 307 301 304 304 306 307 306 305 309 307 308 308 312 314 314 315 327
313 311 311 312 311 310 310 310 309 310 310 311 311 311 307 298 300 315 317 316 322 319 314 312 310 308 303 304 305 302 303 305 306 307 307 308 306 306 307 311 313 313 313 314 314
312 311 311 311 310 310 309 309 309 309 309 310 310 310 303 292 311 316 314 315 317 317 313 314 310 311 306 305 303 305 304 304 305 306 306 304 305 306 307 311 310 311 311 313 314
313 312 311 310 309 308 309 309 309 308 308 309 309 307 300 297 313 316 314 312 318 315 311 316 314 309 308 303 307 305 300 302 304 304 303 306 301 301 308 310 308 309 310 311 313
313 312 312 310 307 307 308 309 309 309 308 308 309 305 295 308 314 313 313 312 319 317 316 318 317 310 306 307 304 300 300 294 300 303 304 303 294 301 307 307 306 308 309 310 311
313 312 312 310 309 307 308 309 309 309 309 307 303 301 293 312 307 311 313 308 314 315 317 317 314 307 304 299 295 297 290 292 295 303 301 301 295 302 305 305 305 307 308 309 310
312 311 311 311 310 307 308 309 307 306 307 305 303 295 299 300 308 309 313 313 310 310 309 307 306 301 301 296 287 291 291 293 292 298 300 298 297 301 305 304 304 305 307 308 308
311 311 310 310 308 307 307 304 298 295 298 292 293 293 298 305 311 307 312 309 310 307 297 302 297 294 297 298 296 296 293 291 295 297 297 297 297 300 303 304 303 305 306 307 308
311 310 310 310 308 308 306 297 295 298 289 297 296 296 300 302 300 304 311 303 303 296 300 297 293 299 301 300 297 295 292 292 295 296 296 295 295 299 302 302 301 301 302 303 304
310 310 310 309 308 305 301 298 304 301 291 292 295 295 298 302 299 300 306 303 300 296 297 293 296 300 299 297 295 294 292 293 293 294 294 293 294 294 295 297 298 299 299 300 302
311 310 309 307 303 303 299 305 305 302 285 285 291 297 300 303 298 306 307 303 294 292 293 294 300 298 296 295 297 291 297 296 293 292 289 292 287 291 292 294 296 299 300 302 304
311 310 308 307 303 298 301 304 304 299 276 286 292 303 302 297 299 301 309 304 292 293 294 290 294 296 295 296 299 293 296 294 292 292 290 289 288 290 292 291 294 298 300 302 305
309 309 306 305 304 302 304 304 299 284 276 286 293 294 295 297 298 302 301 305 303 297 296 292 299 296 294 295 298 295 292 290 290 290 286 288 286 287 289 292 294 297 300 302 304
309 309 306 306 299 305 305 298 285 280 286 285 289 294 293 293 294 297 295 296 294 288 288 291 290 295 296 290 293 294 292 285 284 283 284 285 284 289 292 294 296 297 299 302 305
309 306 305 306 306 305 302 290 281 284 285 291 293 294 289 293 292 292 292 292 295 294 289 287 283 291 293 293 291 290 291 287 280 279 282 284 282 288 293 295 297 298 299 300 304
305 305 306 306 307 307 295 285 283 285 288 291 292 289 289 292 293 291 290 291 293 295 289 287 285 293 293 294 295 290 288 288 283 282 282 285 286 290 291 293 295 298 300 302 304
303 301 302 306 307 302 295 287 290 292 294 293 287 289 287 288 290 290 289 293 291 294 294 290 284 291 292 295 293 292 292 286 286 279 279 282 282 286 289 291 294 297 299 301 305
301 299 302 304 305 300 286 287 292 296 295 291 289 288 290 288 290 289 289 292 294 293 294 293 290 286 291 290 289 288 288 286 287 284 280 279 283 290 292 294 293 296 299 302 304
298 297 303 304 297 295 292 293 295 295 296 293 293 292 290 290 289 289 289 292 296 295 291 292 291 285 287 290 292 291 289 288 285 281 282 282 285 292 294 295 295 297 300 303 305
295 296 303 303 293 293 293 293 295 293 292 292 291 293 292 290 288 290 290 294 296 294 292 293 288 282 283 287 290 288 289 288 286 285 281 282 284 293 294 294 297 298 301 303 303
296 293 299 299 296 293 291 291 291 296 293 293 292 293 291 289 291 289 290 293 295 296 295 295 287 286 283 284 288 285 287 287 287 284 284 284 286 291 293 294 298 299 301 303 300
295 288 291 292 293 292 292 292 290 290 295 294 292 292 291 288 289 288 291 292 295 296 293 293 285 284 286 287 287 286 287 286 284 287 285 286 286 291 293 296 298 299 302 300 298
291 289 293 291 291 291 291 291 291 292 293 291 290 293 293 290 290 288 291 291 291 293 292 291 285 285 284 286 286 284 287 288 287 288 287 288 288 296 298 298 298 301 300 298 295
297 297 293 290 290 291 292 291 292 293 295 296 295 294 292 294 296 296 296 296 295 292 290 290 286 285 282 284 285 283 286 287 288 289 289 286 291 296 295 296 298 300 297 295 293

GFSSW_sfc_thetae_051.txt.gz
Theta_e
315 315 315 315 314 314 313 313 313 313 314 315 315 316 314 313 313 310 306 317 321 324 325 316 317 321 321 314 315 315 304 301 303 304 306 312 309 313 314 311 311 313 315 325 330
314 315 315 314 314 313 313 312 312 312 313 313 314 315 314 312 307 304 316 325 327 324 319 311 312 317 312 310 310 307 303 303 308 308 307 310 309 310 308 308 309 311 318 329 332
315 314 314 313 313 313 312 312 311 311 312 312 313 314 314 311 302 301 319 326 328 325 320 316 315 315 307 309 308 305 300 306 307 307 307 308 308 310 308 306 309 309 314 323 330
314 313 313 312 312 312 312 311 311 310 311 311 312 312 312 308 289 306 324 326 329 324 317 313 312 309 305 302 307 301 305 305 307 307 306 305 309 307 309 309 313 313 316 316 325
312 313 314 313 312 311 311 310 310 310 310 311 311 311 307 299 299 315 321 326 323 320 313 311 307 308 303 304 304 302 305 306 307 307 307 307 306 306 308 312 314 315 314 314 315
314 314 313 313 312 311 310 309 309 310 310 310 310 309 303 293 308 309 315 317 319 317 311 312 308 311 305 304 302 305 305 305 306 306 307 305 306 307 309 313 312 312 312 313 314
314 313 313 312 310 310 308 308 309 309 309 308 309 307 300 298 310 314 316 314 317 317 310 313 312 309 308 303 307 305 300 303 304 305 304 306 301 303 309 311 309 309 311 311 312
313 313 312 311 310 309 308 308 309 309 308 308 308 305 295 307 310 309 314 313 317 320 314 315 315 310 307 307 304 300 301 294 301 304 304 303 295 304 309 308 307 308 309 309 311
313 312 312 311 310 309 307 308 309 309 309 307 304 301 293 310 305 308 314 308 315 316 315 317 314 307 306 300 296 298 291 293 296 303 302 301 296 303 307 306 306 307 308 309 310
313 311 312 311 309 309 306 308 307 307 307 306 303 296 299 298 306 310 315 310 311 311 310 308 305 301 300 296 288 290 291 293 293 299 300 299 298 302 304 304 305 306 307 308 308
312 311 311 310 309 307 307 305 299 297 300 293 294 294 297 305 309 307 310 309 309 306 298 303 296 293 297 298 296 295 293 292 295 299 298 297 298 300 303 304 304 305 306 306 307
312 311 310 309 309 307 307 298 297 300 291 297 296 296 300 302 299 305 311 303 301 296 300 297 292 299 300 299 297 295 293 292 296 298 297 296 296 300 302 302 304 304 305 306 307
311 310 309 308 307 307 302 300 306 303 292 293 297 296 297 301 299 300 305 304 299 296 297 293 294 301 299 296 295 294 292 292 293 296 297 296 293 296 297 300 300 301 302 302 304
310 311 309 308 304 304 299 305 306 305 287 287 292 295 300 301 297 306 306 303 296 295 297 295 300 298 297 295 296 291 297 296 295 293 287 296 286 295 294 296 298 300 302 303 305
310 310 308 309 305 300 301 305 305 302 276 290 292 304 302 298 299 298 307 301 294 294 295 290 295 295 295 296 298 294 299 296 295 293 292 292 289 292 294 292 295 299 302 304 306
309 310 309 307 306 304 307 306 301 285 278 286 293 295 294 297 299 300 301 305 303 294 295 293 298 297 297 298 299 299 296 294 294 292 286 292 290 288 290 293 295 299 302 304 305
309 310 308 308 302 308 307 300 285 282 289 286 290 295 293 293 295 295 294 293 290 286 287 288 289 296 297 293 295 296 293 286 284 284 285 289 287 292 294 297 298 299 301 304 306
309 307 308 307 309 308 304 293 283 286 287 293 294 294 290 294 294 294 295 292 297 296 290 286 283 287 294 293 291 293 293 288 281 282 285 286 284 290 296 298 300 301 303 304 306
308 308 307 309 309 308 297 286 286 287 290 292 293 290 290 293 293 292 292 293 295 297 290 288 285 293 294 296 295 289 288 292 286 286 284 286 289 292 294 295 298 300 302 304 306
305 304 306 308 309 302 296 288 291 293 295 295 288 291 288 291 292 292 292 295 294 296 297 293 285 291 293 296 295 295 296 287 289 281 280 285 286 287 289 292 297 299 300 303 306
304 301 306 308 308 302 288 290 293 298 297 293 291 290 291 290 292 291 292 294 296 295 297 296 292 288 292 291 290 290 290 290 290 286 283 281 284 291 292 294 295 297 300 303 306
303 298 306 309 300 301 295 295 296 296 297 295 296 294 293 293 291 291 291 294 298 297 293 295 292 286 288 293 294 294 292 292 287 284 285 284 285 293 296 297 297 297 301 304 306
298 300 307 307 296 296 296 295 297 295 294 294 293 295 295 292 289 292 293 296 297 296 294 295 290 283 284 289 292 290 292 292 289 289 284 284 285 295 296 296 297 299 302 303 305
298 294 302 304 301 297 294 293 293 297 295 295 294 295 294 292 294 291 292 295 297 297 296 297 291 287 285 286 291 287 289 291 289 285 286 286 288 291 294 295 299 301 302 304 303
298 292 292 294 296 296 296 294 292 292 296 296 293 293 293 290 291 290 293 294 296 295 295 295 286 286 288 289 289 288 288 289 286 288 287 288 288 293 295 296 299 301 303 303 301
293 290 294 294 295 294 293 294 292 293 294 292 292 294 294 291 292 290 293 293 293 296 294 294 286 287 286 288 288 286 288 289 289 288 289 289 289 296 298 300 299 301 302 301 299
297 299 294 293 294 293 295 294 294 295 296 297 296 295 293 295 297 298 298 297 296 294 293 292 289 286 284 286 286 283 287 288 290 291 290 286 292 297 296 298 299 301 301 299 297

GFSSW_sfc_thetae_054.txt.gz
Theta_e
315 315 316 315 315 314 314 314 313 313 313 314 314 315 316 316 313 310 304 314 321 325 323 315 314 315 321 315 315 314 301 298 301 303 305 310 306 309 310 306 305 306 317 323 337
316 316 315 315 314 314 313 313 313 312 312 312 313 314 314 315 307 302 312 321 326 328 318 309 308 315 313 311 310 305 299 301 308 308 305 309 308 307 305 305 303 305 319 326 333
314 314 314 315 314 313 313 313 312 312 311 311 312 313 314 312 301 300 317 321 326 327 319 313 313 314 309 309 307 304 299 306 308 307 306 307 307 308 303 302 304 304 309 324 326
314 315 315 315 315 313 313 312 312 311 310 311 311 312 312 308 288 308 319 321 328 323 316 314 306 307 304 302 307 299 304 305 307 307 305 304 308 304 304 304 309 311 312 316 323
315 315 315 314 314 313 312 311 311 310 310 310 311 311 306 298 298 309 321 320 322 320 312 310 303 306 301 303 304 301 302 304 306 306 305 306 304 302 303 307 310 312 311 309 308
315 314 314 313 313 312 311 309 309 309 310 309 310 308 302 292 307 309 315 317 318 317 313 311 305 308 304 302 301 303 304 304 304 305 306 302 302 303 304 306 308 308 306 307 308
315 314 312 312 312 310 309 308 309 309 308 309 308 306 299 296 308 314 313 313 317 317 311 312 310 307 307 303 306 304 299 301 302 303 303 305 299 300 305 306 306 305 305 307 308
314 313 312 312 311 310 308 308 308 309 309 309 308 304 294 306 307 308 313 311 315 319 315 313 312 308 306 307 303 299 299 293 300 302 303 302 292 302 306 304 304 303 303 304 307
313 313 312 312 310 309 307 308 309 310 309 308 303 300 292 310 302 305 307 308 312 316 316 314 313 306 305 298 295 296 289 292 296 302 301 299 293 301 305 304 302 302 303 303 304
313 312 311 311 310 309 307 309 307 307 307 306 303 294 298 297 303 304 311 312 309 311 308 307 304 299 298 295 287 289 289 292 292 298 299 297 295 299 301 300 300 300 300 301 303
312 312 311 310 309 308 307 305 298 296 299 293 294 294 297 302 308 305 310 308 310 305 297 302 295 291 295 297 295 294 292 290 295 299 296 295 296 298 300 300 299 300 300 301 302
311 311 311 310 309 310 307 297 297 298 290 297 297 296 301 303 297 302 310 302 302 295 299 296 291 297 300 299 296 292 290 290 294 297 296 294 293 296 299 299 301 299 299 300 301
311 310 311 310 309 308 301 300 306 304 292 294 297 297 297 300 296 299 305 303 298 295 296 292 295 299 297 296 293 291 290 290 290 295 295 292 289 293 297 297 298 298 296 298 298
310 310 311 309 304 304 298 304 306 304 286 288 292 296 299 296 291 306 307 303 298 294 296 295 299 297 296 295 295 289 294 294 294 290 284 293 279 289 293 293 295 295 295 296 299
309 309 311 309 304 300 302 306 306 301 275 290 291 304 300 296 297 298 307 303 295 295 296 291 295 295 294 295 297 293 297 295 294 291 288 288 283 286 291 290 292 295 297 300 301
308 309 310 307 306 304 307 306 302 284 277 286 293 294 294 298 297 299 301 305 303 295 293 293 298 298 297 298 298 299 294 293 292 290 282 288 285 283 287 290 292 295 298 300 301
308 309 307 307 301 308 307 299 284 280 289 287 290 292 293 292 292 295 295 294 291 286 287 288 288 295 297 293 297 295 289 280 280 279 279 288 285 286 291 293 294 295 297 300 302
308 307 308 306 309 308 303 291 279 286 286 294 294 294 290 293 293 291 291 291 295 294 288 285 281 289 295 293 290 290 289 281 276 278 280 285 280 285 292 295 297 299 299 301 301
309 308 306 309 309 307 296 284 284 287 289 292 293 290 290 294 292 293 293 292 295 296 288 286 284 292 294 297 296 289 286 289 282 281 279 281 284 288 292 293 295 297 299 299 302
303 305 306 310 309 301 293 288 291 295 296 295 288 291 287 291 291 291 292 295 293 296 296 291 283 290 292 296 294 292 295 285 281 274 276 280 281 281 286 288 293 296 297 300 303
304 300 304 309 307 298 286 288 294 298 297 293 291 290 290 290 292 291 292 294 296 294 296 295 290 287 291 289 288 288 288 289 286 282 276 275 278 286 288 290 292 294 297 299 302
303 296 306 308 297 300 291 294 297 296 298 296 296 294 292 292 291 290 291 293 297 296 292 294 290 285 288 292 294 292 291 290 283 282 279 278 280 290 291 293 294 293 299 301 303
296 298 307 306 293 294 296 295 297 295 295 294 293 295 295 292 288 291 292 297 297 296 292 293 287 281 282 286 290 288 291 291 286 284 279 277 279 291 292 293 294 293 299 300 302
297 292 297 303 299 295 293 293 293 298 296 296 294 295 293 291 292 290 291 295 296 296 297 296 288 283 278 282 287 283 288 289 284 277 281 281 282 286 290 291 294 298 298 300 300
297 291 292 289 295 293 295 295 292 292 296 296 293 293 292 289 290 290 292 292 295 295 294 293 281 279 286 289 287 286 287 288 280 285 279 284 285 288 290 291 295 297 299 301 299
291 289 292 290 294 293 293 293 292 294 294 292 291 294 293 290 290 289 292 291 291 292 292 293 281 283 281 287 286 282 286 287 287 287 286 287 286 291 293 294 295 298 300 299 298
294 296 293 291 293 291 291 292 294 295 296 297 295 293 292 294 296 295 295 294 293 291 289 289 284 281 278 284 283 280 285 287 288 289 288 284 288 292 293 296 295 297 299 297 295

GFSSW_sfc_thetae_057.txt.gz
Theta_e
317 316 316 316 316 315 314 314 314 314 313 313 313 314 315 316 316 309 303 309 317 327 321 315 314 314 315 315 316 315 301 297 300 302 304 311 307 306 307 304 304 310 317 331 335
315 315 316 316 316 316 315 314 313 313 313 312 312 313 314 315 308 303 311 318 324 327 315 310 307 310 311 311 311 307 301 299 305 307 305 309 309 309 303 302 302 314 328 333 334
315 316 317 316 315 315 315 314 313 312 312 311 311 312 313 312 301 301 317 319 322 326 318 311 310 312 307 308 306 304 300 305 306 308 309 307 309 309 301 299 302 307 318 327 329
316 316 316 315 314 314 314 312 312 311 311 310 311 311 312 306 289 303 320 322 322 321 317 311 307 306 303 302 307 299 304 306 308 309 308 304 306 306 301 302 308 306 320 322 324
316 316 315 314 313 313 312 310 310 310 309 309 310 310 305 296 297 309 316 319 315 318 312 309 304 305 300 303 304 301 302 305 306 305 304 305 303 301 300 305 309 309 309 311 318
316 315 314 313 313 312 310 308 308 309 309 309 308 308 300 290 306 308 307 311 315 316 312 310 302 307 303 303 300 303 304 303 304 303 303 301 300 302 301 305 305 307 305 304 305
314 314 312 313 313 311 309 308 309 309 308 308 308 305 298 294 307 307 312 310 314 315 310 311 307 306 304 301 304 302 299 301 302 301 301 303 299 298 303 303 302 301 302 306 305
314 314 312 312 312 310 308 308 309 309 309 309 308 303 293 305 306 305 310 309 313 316 314 313 311 305 303 305 301 298 298 292 299 301 302 301 293 300 303 301 302 301 299 301 305
313 313 312 311 311 310 308 308 310 309 309 308 303 299 292 309 301 304 307 304 309 313 315 315 310 305 302 296 293 295 288 291 294 300 301 298 293 300 302 300 301 300 301 301 301
313 311 312 311 310 309 309 310 308 307 306 306 304 294 297 296 303 304 308 307 307 309 308 306 303 297 298 292 286 288 288 292 291 296 298 296 294 299 299 299 299 299 299 298 301
311 311 311 310 311 311 307 302 294 293 297 292 294 293 296 302 307 304 306 304 307 305 296 301 293 290 294 294 294 294 291 291 294 298 296 295 295 298 299 297 297 297 298 299 300
310 310 311 311 310 311 305 295 296 296 289 297 298 297 301 302 296 301 307 300 300 294 299 295 289 295 298 298 296 292 290 289 293 297 295 295 293 297 297 297 298 298 297 297 298
309 310 310 311 310 304 299 299 304 302 290 294 297 297 297 299 293 296 303 301 296 294 295 291 293 298 297 295 293 290 288 288 289 292 293 291 289 292 295 297 298 297 296 296 296
308 309 310 311 302 300 296 303 304 301 283 288 292 296 298 296 294 304 306 301 298 294 295 294 297 295 293 293 293 286 292 292 292 288 283 292 279 286 292 292 294 294 294 293 298
308 309 309 310 299 297 300 303 302 296 272 290 291 304 297 292 296 297 306 302 295 293 293 291 293 294 292 294 296 291 295 293 291 288 287 286 281 286 290 288 291 293 294 297 299
308 308 309 305 305 303 304 304 298 279 275 286 290 289 290 291 296 297 300 304 302 295 294 292 297 297 297 298 298 298 293 291 289 287 279 286 283 282 286 290 290 292 296 299 300
308 309 307 306 300 304 306 298 281 275 289 287 290 294 293 291 293 296 295 293 290 286 285 290 289 294 298 294 296 294 288 277 276 274 276 285 283 285 290 291 293 294 295 298 300
309 308 306 305 304 304 301 289 275 285 285 293 294 294 290 293 291 292 293 289 293 290 283 282 281 291 295 293 291 291 288 278 273 274 277 284 281 285 290 293 296 297 297 298 300
308 301 300 304 305 304 295 278 278 283 287 291 293 289 289 293 291 292 291 291 292 292 285 284 283 292 294 296 295 289 282 288 280 279 274 280 283 288 291 292 294 296 297 297 299
296 297 300 306 304 297 288 285 288 293 295 294 287 289 285 290 289 290 290 294 294 296 295 290 283 291 293 296 295 292 294 283 279 273 274 277 279 282 286 289 292 294 295 297 300
296 293 300 306 303 293 284 283 291 297 296 291 289 290 288 289 289 289 290 292 294 292 293 292 286 287 291 289 289 289 288 288 286 279 275 274 278 285 289 290 291 294 296 298 300
292 287 301 303 292 287 282 291 296 295 296 294 292 293 289 292 288 288 288 290 294 294 292 293 288 283 286 293 295 292 289 289 281 280 278 276 278 289 289 290 293 294 297 299 301
289 290 301 299 285 286 291 294 295 294 292 292 291 293 292 290 286 289 290 295 296 293 291 292 286 279 281 286 291 288 290 291 287 284 280 278 279 289 290 292 293 293 296 300 300
290 284 289 294 293 288 289 291 291 295 294 294 292 292 290 288 289 287 289 293 295 294 298 296 287 282 279 283 287 284 288 288 284 276 280 280 281 285 288 290 292 293 297 298 298
289 288 291 281 288 288 289 292 291 290 293 293 290 291 290 286 287 287 290 290 293 295 292 290 278 277 285 289 286 285 286 287 283 285 278 283 283 286 288 289 291 296 297 298 296
285 285 287 285 288 288 290 292 290 293 291 290 289 291 290 289 288 286 290 289 288 289 289 289 278 280 280 286 285 281 285 287 287 286 285 285 285 290 290 290 293 295 298 298 296
288 290 291 287 288 287 288 291 292 293 296 295 293 291 290 292 292 291 292 292 292 289 287 287 281 276 273 282 282 278 283 285 286 288 288 283 288 290 291 293 294 297 298 297 295

GFSSW_sfc_thetae_060.txt.gz
Theta_e
316 317 317 317 317 317 317 316 315 314 314 314 314 313 314 315 316 312 304 309 313 325 324 314 313 313 314 314 317 315 300 295 298 300 302 308 305 310 307 302 310 314 319 328 334
317 317 317 317 316 315 315 316 315 314 313 313 313 312 312 313 307 304 311 319 320 325 313 309 305 309 309 311 311 307 300 298 304 305 305 308 306 307 303 303 311 322 329 333 332
316 317 317 316 315 314 314 314 313 313 312 312 311 311 311 311 300 300 318 320 320 320 317 311 308 308 308 308 307 306 300 304 306 308 310 308 307 310 304 299 306 319 324 328 327
316 316 316 314 315 314 313 313 311 311 310 310 309 310 310 306 286 302 317 320 322 316 317 308 306 305 302 301 307 300 305 307 308 309 309 306 309 305 305 302 307 320 327 325 325
316 315 314 314 314 313 311 310 309 309 308 308 309 309 305 296 295 308 314 314 314 313 313 306 302 304 299 302 305 300 303 306 309 309 309 310 306 305 305 306 306 315 320 322 323
316 314 313 313 313 312 309 309 309 310 309 308 308 309 299 289 304 308 307 309 312 310 312 309 303 306 302 302 302 304 304 304 305 304 307 305 306 306 304 304 303 306 306 306 315
315 314 312 313 312 311 309 309 309 309 307 307 308 305 297 293 304 307 306 310 311 312 309 311 306 305 303 300 304 303 299 301 302 302 302 305 300 300 305 304 302 300 301 304 305
315 313 312 311 311 310 309 308 309 309 309 309 308 302 292 305 305 304 307 308 312 315 313 314 310 305 301 302 300 297 298 292 299 301 302 300 292 300 304 301 301 299 298 300 303
312 312 312 311 311 310 310 310 309 309 308 309 302 298 291 308 301 304 306 303 309 312 312 315 309 302 300 294 292 294 288 291 295 300 300 298 292 299 302 299 299 299 300 301 301
311 312 310 312 310 311 312 311 310 307 306 306 303 293 297 295 302 305 308 307 302 307 305 307 302 296 293 293 285 288 289 292 292 297 298 296 293 298 298 296 298 299 300 300 299
309 310 310 311 311 311 307 299 292 291 296 291 293 293 295 302 306 304 305 302 301 303 296 301 293 289 292 292 293 293 291 291 293 297 296 295 293 297 298 294 295 297 298 299 299
309 309 310 311 311 311 302 294 295 296 288 297 297 298 301 301 296 299 305 295 298 295 298 296 291 294 297 296 294 293 289 289 293 297 295 293 293 296 297 296 297 297 297 297 297
309 308 310 310 311 302 297 298 303 301 289 294 297 296 296 299 295 295 300 298 296 294 294 291 293 298 297 294 292 289 289 287 288 292 292 291 288 291 294 294 297 298 297 297 297
308 308 309 310 302 299 295 302 303 302 279 289 292 296 299 296 294 302 303 301 295 293 295 294 297 295 294 292 293 286 292 292 290 288 284 290 280 285 291 292 293 293 294 295 296
308 309 309 309 297 295 300 302 302 297 274 291 292 302 299 293 294 298 306 302 294 294 294 291 292 292 291 293 294 289 293 291 290 287 285 285 281 283 286 288 290 291 292 293 298
308 309 308 304 301 301 303 302 296 277 276 286 291 291 292 294 295 297 298 304 302 295 294 292 296 295 294 297 297 295 291 289 288 286 279 284 282 280 284 287 290 291 293 297 298
309 310 307 306 297 303 303 294 277 276 288 287 291 293 292 291 293 292 294 293 290 286 286 289 290 294 296 292 295 293 286 279 278 278 276 284 282 286 288 290 291 292 295 297 298
309 308 305 304 303 303 298 284 274 284 283 293 294 293 289 292 291 294 292 289 293 289 285 283 282 292 295 292 290 290 286 277 273 274 277 283 280 286 289 291 293 295 297 297 298
307 299 299 303 304 301 289 276 277 279 285 290 292 288 289 292 291 292 290 289 291 290 284 284 283 292 294 297 295 290 286 287 279 277 273 279 283 287 289 289 292 293 296 296 298
295 296 298 304 303 296 284 284 284 292 293 293 285 288 284 289 290 289 290 293 292 294 292 287 282 291 294 296 295 292 292 282 278 272 272 276 277 281 285 288 292 293 295 296 299
296 292 299 304 302 290 279 282 290 296 295 290 288 288 289 288 289 289 288 294 294 293 293 290 285 286 292 290 289 290 289 286 284 279 274 273 277 284 288 291 292 295 295 296 299
290 286 300 302 293 285 280 289 296 293 294 293 291 290 289 288 286 287 287 289 294 293 289 291 286 283 286 293 295 291 289 289 282 276 275 275 277 287 288 291 294 295 297 298 300
288 288 299 298 284 282 290 292 294 292 291 291 290 291 290 288 285 288 289 294 294 292 290 292 282 275 282 286 291 289 289 289 286 283 274 274 278 289 287 291 294 294 297 299 299
288 281 287 292 290 289 287 290 289 294 292 292 290 291 289 287 289 286 287 292 293 292 298 295 285 281 277 280 284 281 287 288 286 279 282 279 283 285 287 290 291 293 296 299 298
287 285 289 280 286 286 287 291 291 289 292 292 289 289 288 284 286 286 288 289 292 295 291 289 278 277 283 287 285 285 286 287 284 287 283 286 284 287 289 291 292 293 297 298 296
284 282 285 283 286 286 289 288 290 292 292 289 287 291 289 287 287 286 288 287 287 288 288 288 277 280 280 285 284 281 285 287 287 287 285 284 284 290 290 289 291 293 296 297 296
286 287 286 285 283 288 288 289 291 291 295 293 292 290 289 291 291 290 291 291 290 288 286 285 280 276 273 282 281 277 283 284 285 287 288 283 289 289 289 290 292 294 296 297 296

GFSSW_sfc_thetae_063.txt.gz
Theta_e
318 318 318 318 318 317 316 316 315 315 315 315 315 314 313 313 314 309 304 309 313 324 324 316 312 311 313 313 317 316 300 295 297 299 301 307 304 309 311 302 312 317 319 327 332
316 317 317 316 315 315 315 315 315 314 314 313 314 313 311 311 306 302 311 319 322 322 314 309 305 309 309 308 312 307 299 298 303 305 304 307 308 307 305 305 311 320 328 331 332
317 317 316 314 315 315 314 314 313 311 311 311 313 310 310 310 299 297 315 320 321 319 316 312 308 307 305 306 307 307 300 303 305 307 310 308 308 308 303 301 302 315 325 326 327
317 316 314 314 315 314 312 311 310 310 310 311 309 309 310 305 285 304 314 320 322 317 312 310 306 302 300 301 305 302 306 306 308 310 308 306 310 306 304 303 308 306 325 324 325
316 315 313 313 313 312 311 310 311 310 309 309 309 310 304 295 294 307 313 310 311 310 308 307 302 300 298 300 303 300 304 307 310 309 309 309 306 305 304 308 310 308 324 321 322
315 314 313 312 312 310 310 310 311 310 309 308 308 310 298 287 302 307 307 306 308 310 308 308 303 305 301 301 301 303 304 306 307 307 309 305 305 305 305 307 304 316 319 320 321
314 313 312 311 311 310 309 310 310 309 308 308 308 305 296 292 302 304 306 304 308 311 306 311 307 305 301 299 304 302 299 302 303 304 304 307 300 300 306 307 302 302 303 306 314
313 313 312 312 311 311 310 310 310 310 309 309 308 301 290 304 302 304 305 304 311 312 310 313 311 305 300 301 299 296 298 292 299 302 303 304 295 303 308 306 302 300 300 300 302
310 312 312 311 311 311 312 312 310 310 308 308 300 296 289 307 301 304 305 302 307 311 311 314 309 302 299 293 290 291 287 290 294 302 301 300 294 302 308 306 303 300 299 301 300
309 310 311 310 312 311 311 311 310 306 305 306 303 292 296 294 302 304 307 307 302 306 304 306 301 295 293 291 285 287 287 291 291 297 298 296 294 299 302 301 302 304 299 299 300
309 308 310 310 311 312 306 298 292 290 295 291 292 293 295 301 305 303 305 302 301 301 293 301 292 289 290 291 291 291 290 290 292 298 296 295 294 297 298 296 295 296 296 298 299
309 308 309 310 311 311 301 295 293 294 289 298 297 297 300 301 295 299 304 295 295 291 295 294 288 293 296 296 292 291 289 289 293 296 296 294 294 298 299 296 296 296 295 296 296
309 308 309 309 311 301 297 297 303 299 289 294 297 295 296 299 295 295 300 297 293 291 291 288 293 297 296 294 291 287 287 288 289 292 292 291 289 293 297 295 296 297 296 296 296
309 308 309 308 301 298 294 301 302 299 276 288 292 296 299 297 294 301 302 299 294 291 294 294 297 295 293 292 292 285 291 291 290 289 283 291 282 287 291 293 294 295 294 295 295
309 309 308 308 296 295 299 301 300 295 270 290 292 301 299 294 295 297 306 301 292 294 294 290 293 292 291 292 293 289 291 291 290 287 284 284 282 286 286 287 292 295 292 293 294
309 310 308 304 300 300 302 300 294 276 271 286 292 292 292 295 294 297 299 304 302 296 294 292 295 294 293 296 295 294 290 289 288 286 278 284 283 282 284 287 288 293 291 292 296
309 310 306 304 296 302 302 292 278 273 287 287 291 293 292 290 293 294 293 293 290 286 287 291 290 293 295 292 295 291 284 278 278 278 277 284 282 287 289 289 290 291 291 293 296
309 307 305 304 302 302 297 282 274 285 286 293 293 293 289 292 292 293 292 289 293 291 286 284 282 289 293 290 289 290 284 277 273 275 277 283 280 285 291 291 292 293 293 295 296
306 298 298 302 303 302 289 275 278 278 284 288 291 286 288 291 291 290 287 289 291 290 284 282 283 292 295 295 293 289 282 285 277 276 274 279 282 287 289 290 289 292 294 294 296
295 295 297 303 302 298 282 281 283 290 291 291 283 287 283 288 289 287 287 291 291 292 291 286 283 291 293 296 294 291 291 283 277 270 271 276 277 281 284 287 289 291 293 295 297
294 292 298 303 302 289 276 278 288 294 294 289 286 286 287 287 287 287 287 292 293 292 291 287 284 286 293 290 289 290 288 286 284 278 274 273 277 284 285 288 289 292 294 295 297
290 286 299 301 292 284 279 288 295 292 293 291 290 289 288 288 288 286 286 288 293 294 288 289 285 282 287 292 295 294 291 286 278 275 274 274 277 286 285 288 292 293 296 296 299
287 288 297 300 281 281 288 291 292 291 290 290 289 290 290 286 284 287 287 292 293 292 290 290 280 280 283 287 291 290 291 289 285 280 273 274 279 288 286 289 293 294 296 297 298
287 281 286 290 288 284 285 288 288 293 291 291 289 290 288 285 288 286 286 291 292 292 298 295 284 279 276 279 284 285 289 288 284 278 282 279 282 286 286 288 291 294 296 297 299
285 282 285 278 287 287 285 288 288 288 291 291 288 288 287 283 285 285 287 288 291 295 291 289 280 278 283 286 284 283 284 288 282 287 282 286 285 290 290 290 292 294 296 297 296
282 281 283 282 284 283 286 286 289 289 289 288 286 290 288 285 286 285 287 286 287 287 287 286 277 279 279 284 284 281 284 287 288 288 287 286 285 291 291 290 290 292 294 296 297
285 287 284 283 281 282 283 285 289 290 294 293 291 289 287 289 290 289 290 290 289 287 286 284 279 275 273 280 281 277 282 284 286 287 288 282 290 290 289 289 291 291 293 295 296

GFSSW_sfc_thetae_066.txt.gz
Theta_e
317 317 318 317 314 316 317 316 315 315 315 315 315 315 314 313 312 307 302 310 313 322 322 317 313 311 315 311 316 314 300 294 296 299 300 307 304 308 309 303 307 322 319 325 331
318 319 317 315 315 316 315 315 314 314 313 313 313 313 313 311 305 300 309 317 321 322 314 309 306 309 308 307 310 306 299 297 302 304 303 307 306 305 304 303 306 307 325 329 335
317 317 315 314 315 314 313 312 312 312 310 310 310 311 310 309 297 296 312 318 321 320 314 312 309 307 304 305 305 305 300 302 304 308 310 307 307 306 302 300 302 303 307 325 331
316 316 314 314 314 312 311 311 312 311 310 310 311 311 311 304 281 301 317 316 320 317 312 310 306 300 300 299 304 299 305 306 308 310 308 305 309 305 303 303 307 307 309 323 325
315 315 314 313 312 311 311 311 311 311 310 310 309 310 303 294 293 305 312 312 312 313 308 306 303 299 295 299 301 297 303 307 309 309 308 309 305 305 305 307 307 308 313 321 322
314 315 313 312 311 311 310 310 311 310 309 309 308 309 298 285 300 305 307 305 306 307 305 307 305 303 299 300 300 302 304 306 308 308 308 305 303 305 305 307 306 306 308 319 320
312 313 313 312 311 311 311 311 311 310 308 308 309 304 295 291 301 303 304 303 305 303 305 308 308 303 302 299 303 302 301 304 305 306 306 306 301 299 306 306 304 304 301 307 315
311 311 312 311 312 311 312 313 312 310 309 309 308 300 289 302 301 303 304 303 306 310 310 312 312 304 302 301 299 297 299 294 301 304 305 302 294 302 308 304 303 304 301 300 302
310 309 311 312 311 312 312 312 312 310 308 308 300 295 288 305 301 302 304 301 305 309 311 312 309 301 300 293 290 295 287 288 294 303 302 299 294 302 308 304 303 305 302 300 301
310 309 309 311 310 312 312 311 309 306 305 305 303 290 295 293 301 303 307 305 302 304 302 301 300 295 292 291 284 286 285 286 289 297 300 297 294 301 305 305 302 305 305 300 300
310 309 308 309 310 312 305 297 291 290 294 290 292 292 295 301 305 302 305 302 301 300 291 293 291 289 290 290 290 290 288 288 290 298 297 296 295 297 301 302 302 303 304 301 300
310 309 308 309 309 311 299 292 293 295 289 296 297 296 300 301 295 298 304 295 295 291 294 289 287 291 295 294 292 291 287 286 290 295 296 294 294 297 297 300 302 302 304 303 297
310 308 309 309 309 300 295 296 301 299 288 294 298 295 297 299 295 294 299 296 293 290 289 288 290 296 295 291 290 287 287 286 287 291 291 292 290 292 297 300 299 300 299 296 296
309 309 310 307 301 297 293 300 300 297 280 288 291 295 299 297 292 300 302 297 294 291 292 291 297 294 293 292 290 285 291 290 289 287 283 290 281 288 294 296 296 299 300 296 295
309 309 309 308 295 295 297 300 299 293 268 291 292 301 299 294 296 296 305 300 291 293 291 290 293 291 291 292 294 288 291 289 288 285 283 283 282 285 287 292 296 299 299 296 295
309 310 308 304 300 299 301 299 294 275 268 285 294 292 292 295 294 297 299 303 301 295 295 293 296 294 293 294 294 293 289 288 286 284 275 283 283 282 284 289 290 293 297 297 295
309 310 305 303 295 301 300 291 276 273 287 283 290 292 292 291 293 294 293 291 287 285 286 291 291 293 294 291 294 289 284 276 275 275 274 282 281 286 289 288 290 292 292 292 293
308 307 305 303 301 301 299 281 273 281 286 293 293 293 289 292 292 292 292 289 291 290 286 282 283 290 293 290 288 286 284 276 273 274 275 281 279 285 291 292 291 293 293 292 294
305 297 297 301 304 302 289 273 276 277 283 288 292 287 288 291 291 290 289 288 289 289 285 281 283 293 295 293 292 288 284 283 276 274 272 278 282 286 289 290 290 289 292 292 294
294 294 296 302 302 298 282 280 283 288 290 290 283 286 283 287 286 286 285 290 290 291 290 285 282 291 292 293 293 290 289 282 276 270 271 274 276 280 285 287 289 289 291 293 296
294 291 297 302 303 288 277 277 287 293 293 288 285 285 285 284 285 285 286 291 293 291 289 286 283 286 291 287 286 289 285 284 282 278 273 272 277 284 285 286 286 289 292 294 295
289 286 298 299 290 285 279 287 294 291 293 290 289 288 287 287 285 283 285 287 294 293 287 288 284 283 286 291 292 290 288 285 278 275 274 273 277 286 285 286 287 290 293 295 297
287 287 295 299 279 278 287 290 291 290 289 289 288 291 291 288 284 285 286 292 293 291 289 289 281 281 282 285 290 290 291 290 284 280 273 276 279 288 285 288 290 291 293 295 297
286 281 286 289 287 283 284 287 287 292 290 290 288 289 288 286 287 285 285 290 291 291 298 293 283 279 276 279 283 285 288 290 288 284 284 279 282 287 288 287 289 292 293 294 296
284 281 282 279 283 283 284 288 287 287 290 290 287 288 286 283 284 284 287 287 291 295 290 290 279 276 281 284 284 283 284 288 286 288 284 286 286 290 291 290 289 291 293 295 296
281 281 282 280 283 282 286 285 288 288 289 287 286 289 287 284 285 284 286 286 286 286 286 285 277 278 278 283 283 280 284 285 287 288 287 288 286 293 290 289 290 292 294 295 297
283 285 284 281 280 281 280 282 287 287 292 291 290 288 286 288 289 288 289 289 288 287 285 284 279 275 273 279 280 277 282 283 284 287 288 285 290 290 290 291 291 291 292 294 296

GFSSW_sfc_thetae_069.txt.gz
Theta_e
318 319 317 315 315 316 315 315 314 315 315 315 315 315 315 315 313 307 302 308 312 321 320 316 316 314 317 314 316 313 300 296 298 299 302 308 306 310 311 308 316 318 324 328 335
317 318 316 314 315 314 313 313 313 313 312 312 313 313 312 313 305 300 309 316 319 321 313 310 308 310 309 310 312 307 300 299 304 305 304 308 307 307 307 305 306 308 312 327 334
316 317 315 314 314 312 312 313 313 312 312 312 311 311 311 309 296 295 315 317 318 319 315 313 310 309 304 307 308 307 300 303 305 309 310 308 307 308 306 303 306 305 308 315 331
315 316 314 312 313 312 312 312 312 312 312 311 310 310 309 305 283 300 315 316 318 315 313 310 307 303 300 301 306 302 306 306 309 310 308 306 309 306 307 307 310 308 312 311 327
313 314 315 313 311 311 311 311 311 311 311 310 309 310 304 295 294 304 312 311 312 313 309 307 304 301 296 301 304 302 305 307 309 309 308 309 305 306 306 309 310 310 310 320 324
312 312 313 313 312 311 311 311 311 311 309 309 310 308 298 286 300 304 304 306 309 308 307 307 305 304 301 301 301 304 304 306 308 308 308 306 305 306 305 308 308 309 308 308 321
312 311 312 313 312 312 311 312 313 312 310 309 309 304 296 291 301 303 303 304 305 306 303 308 309 304 302 300 305 304 300 303 305 307 306 307 302 302 307 308 307 307 308 307 306
312 311 310 312 312 312 312 312 312 311 309 309 309 300 289 302 302 303 304 303 307 309 305 311 311 306 302 304 302 298 299 294 303 306 305 304 295 303 308 307 306 307 308 307 307
312 310 309 310 311 311 312 312 312 310 309 309 300 296 289 305 300 302 305 301 305 309 309 311 308 302 301 296 293 296 289 292 296 305 303 301 297 303 308 307 305 307 307 306 306
311 310 309 309 310 310 312 310 309 306 304 305 303 291 295 293 300 303 306 305 302 304 303 303 297 296 294 293 284 288 288 291 292 300 301 298 297 302 305 306 306 306 306 306 307
311 309 308 309 310 310 304 296 290 289 295 290 292 292 295 301 305 301 304 301 302 300 292 292 287 288 292 292 292 291 291 290 294 300 299 297 296 300 304 304 305 307 305 306 306
310 308 308 309 309 310 299 291 292 294 288 296 297 296 299 301 293 298 304 295 293 290 292 289 287 292 295 295 292 292 290 289 293 298 298 297 296 299 301 302 304 306 305 305 306
309 308 308 309 308 300 295 296 300 298 289 294 298 296 298 299 294 294 300 296 292 290 290 287 291 295 295 292 290 289 288 288 289 293 295 294 292 295 298 301 303 305 306 305 304
309 309 310 307 301 296 293 300 300 296 279 289 292 295 299 298 293 300 302 298 293 289 291 290 296 294 292 291 291 287 292 292 290 289 286 293 284 291 295 296 299 302 304 304 303
309 309 309 308 295 294 297 300 298 292 273 291 293 302 300 294 295 296 304 300 292 292 292 289 291 293 291 292 294 289 292 291 290 287 287 286 285 288 292 293 296 299 301 303 304
309 309 308 303 299 298 300 298 294 275 269 286 294 292 292 295 295 297 299 302 301 293 293 293 297 295 294 295 294 292 290 288 287 287 282 285 286 285 288 291 295 300 302 303 304
309 309 305 303 295 300 300 291 276 273 286 284 290 293 292 291 293 295 293 291 290 284 285 291 292 295 295 292 295 291 286 280 281 280 278 284 283 288 292 292 293 295 298 300 301
308 308 305 302 301 303 299 283 273 280 285 293 293 293 289 292 292 293 291 288 293 291 287 285 282 291 293 292 290 289 286 279 274 276 278 283 281 287 293 294 294 294 294 295 295
306 296 297 300 304 303 290 271 277 278 283 288 292 286 288 291 291 291 288 289 291 291 284 282 285 293 295 294 292 288 283 285 278 277 277 280 283 288 290 291 292 293 293 294 295
294 293 295 301 304 298 281 280 282 287 290 290 283 286 283 288 287 286 287 292 291 292 290 286 283 291 293 294 294 290 290 283 280 273 274 277 279 283 287 289 289 290 292 294 296
293 290 297 301 303 288 275 277 286 292 292 288 285 284 284 284 286 285 285 291 293 290 290 287 285 287 291 289 289 289 286 285 284 280 277 275 280 286 288 288 287 288 291 294 296
290 285 297 301 290 286 278 285 294 290 292 290 288 288 286 286 285 284 285 288 294 292 287 288 285 283 286 292 293 291 287 286 280 277 276 277 280 289 288 289 288 291 294 295 298
287 287 294 299 279 277 286 288 290 289 288 288 287 291 290 286 283 285 287 291 294 291 288 289 283 280 282 287 289 289 289 288 285 284 275 279 281 289 288 290 292 294 295 296 298
286 281 285 288 285 283 283 285 286 291 289 289 287 289 289 287 287 285 285 290 292 292 297 292 283 280 277 281 285 284 288 289 287 283 283 282 285 289 291 291 292 294 295 296 298
283 281 282 278 283 282 283 286 286 285 290 289 286 287 286 283 284 283 286 287 290 295 290 289 279 277 283 285 285 285 286 288 286 287 283 285 286 290 293 294 295 293 294 295 296
281 281 281 280 281 281 283 283 285 286 287 286 285 288 286 283 284 284 286 285 286 287 287 286 278 279 280 284 284 281 284 285 287 288 287 288 287 295 295 293 292 292 292 294 296
282 284 284 281 279 281 279 280 286 285 290 290 288 287 286 288 289 288 288 288 288 287 286 287 281 277 274 280 280 278 282 284 286 287 288 285 290 294 293 293 293 293 292 294 296

GFSSW_sfc_thetae_072.txt.gz
Theta_e
318 318 317 315 315 314 314 314 314 314 314 314 314 314 314 315 314 311 305 309 313 321 320 318 317 318 322 317 318 317 305 301 302 301 303 310 309 312 314 314 314 316 323 329 336
316 317 317 314 314 313 313 313 314 313 313 314 313 314 313 313 307 303 310 315 318 320 314 313 311 314 311 312 313 310 304 303 308 308 305 310 311 310 310 312 311 314 320 326 337
314 316 316 314 313 312 312 313 313 312 313 312 312 313 313 309 297 299 312 317 318 318 316 315 314 311 306 310 310 308 301 308 309 309 312 310 310 311 310 309 311 310 315 317 333
313 313 315 314 313 312 311 312 312 312 311 311 311 310 309 304 285 304 314 314 318 315 313 311 310 305 303 303 309 304 307 309 309 311 310 308 311 309 310 312 314 314 318 316 329
314 312 313 314 313 313 311 312 312 312 310 311 310 310 306 295 293 306 311 313 314 312 309 308 306 305 300 303 306 304 306 309 310 311 311 311 308 308 309 313 315 315 316 324 324
315 313 311 313 313 312 312 312 313 313 310 310 310 308 299 288 302 307 306 308 311 310 309 309 307 307 303 303 304 306 307 308 310 310 310 307 307 308 310 313 313 313 314 315 320
314 313 311 311 313 312 313 312 312 312 310 309 309 305 297 293 304 307 306 305 310 310 307 309 311 306 304 300 308 307 302 306 307 309 307 309 303 304 312 312 311 312 313 314 314
313 312 311 309 311 311 312 312 312 312 309 309 309 304 293 303 308 306 306 303 309 311 307 310 311 307 305 306 305 301 302 296 305 308 307 307 299 306 312 310 310 312 313 314 313
313 312 311 309 310 310 311 313 312 311 309 309 304 301 292 306 302 306 308 301 305 308 307 311 308 303 304 299 296 299 292 295 298 307 305 305 300 306 310 309 308 311 312 313 313
312 311 309 309 310 309 311 310 309 308 307 307 305 296 298 295 302 304 307 306 302 303 301 303 297 295 298 296 287 291 293 295 296 303 304 302 301 303 308 309 309 310 312 313 312
312 311 309 309 310 309 309 304 299 297 299 295 295 294 296 300 305 302 305 303 301 298 292 295 289 287 295 297 296 296 295 293 297 303 301 300 300 302 305 306 307 309 310 312 312
311 310 309 309 310 308 305 297 297 299 293 298 299 298 300 300 294 299 305 296 294 286 293 291 287 294 298 298 296 296 294 294 299 303 302 300 300 303 304 306 307 307 310 311 313
311 309 310 310 308 306 301 300 305 303 294 295 299 297 298 300 295 294 300 297 292 289 291 289 292 296 297 295 294 295 293 294 294 300 301 299 296 299 304 305 307 308 309 311 313
310 309 310 308 304 303 299 304 305 302 289 290 293 296 299 299 293 301 303 297 293 289 292 291 296 294 296 293 295 291 297 297 296 295 289 299 288 296 300 301 303 306 308 309 311
309 309 309 308 303 301 301 305 305 301 279 292 294 303 301 294 296 297 305 299 291 292 293 289 292 294 293 294 297 293 298 296 296 293 292 292 289 293 298 297 301 304 306 308 310
309 309 308 306 306 303 306 304 301 286 278 287 295 293 293 295 295 298 300 302 300 293 295 294 299 298 297 297 298 297 295 295 295 293 285 290 290 291 294 297 299 304 306 307 309
309 310 308 307 302 306 305 300 286 283 289 288 290 293 293 290 292 295 293 292 290 287 287 292 294 298 298 294 297 297 293 284 282 283 283 289 289 292 297 299 299 300 304 308 310
308 309 307 306 306 305 301 291 283 285 287 293 294 293 289 293 292 293 292 290 294 293 289 287 284 294 297 296 293 294 293 286 278 280 284 288 285 292 299 300 299 300 302 302 303
307 306 306 306 306 304 294 286 287 288 291 292 293 289 288 291 291 292 291 290 294 296 289 287 285 295 297 298 296 292 289 291 285 284 284 288 290 295 296 298 298 298 299 301 303
304 303 303 306 306 299 291 286 289 290 293 294 288 290 286 288 289 290 290 293 293 295 295 292 285 293 295 298 298 295 295 287 289 280 278 283 285 288 293 295 296 297 297 299 301
302 299 303 305 304 294 288 288 291 295 295 292 290 289 289 289 290 289 289 293 296 293 295 293 291 289 293 290 292 292 291 291 290 288 283 281 286 294 294 295 295 297 299 300 301
301 294 303 304 292 289 291 291 295 295 297 294 293 292 291 291 290 290 290 292 298 296 291 292 292 285 289 294 295 294 293 293 287 284 286 285 287 295 296 296 296 299 300 301 302
296 296 300 301 291 291 293 293 295 293 293 292 292 293 294 292 289 291 292 295 298 295 293 294 289 283 283 288 292 291 294 293 291 290 284 284 287 295 295 296 298 299 301 302 303
295 291 294 297 294 292 291 291 291 295 293 293 292 293 292 291 292 290 291 294 296 296 297 297 289 287 284 286 290 287 290 293 291 287 287 287 289 294 296 297 299 301 303 302 304
292 290 292 290 291 291 291 291 290 290 294 294 292 292 291 289 290 290 291 292 295 296 294 294 287 285 287 288 289 289 289 291 288 290 287 289 290 293 296 298 300 301 300 300 301
290 289 289 289 288 290 289 290 290 290 291 291 290 292 292 289 289 289 292 292 292 293 292 292 286 285 285 287 288 286 289 290 291 291 291 291 290 297 299 300 300 300 301 300 301
291 292 294 285 287 290 288 287 288 289 293 293 293 292 291 292 294 294 295 294 295 293 292 293 288 286 284 284 284 283 287 289 290 292 292 288 293 298 297 297 298 299 300 300 301

GFSSW_sfc_thetae_075.txt.gz
Theta_e
315 317 319 316 315 313 314 314 314 314 313 314 314 314 315 314 315 312 305 311 313 318 320 316 315 316 318 315 317 316 303 301 302 303 304 310 309 313 315 315 317 320 326 329 338
315 314 317 316 314 313 313 313 313 313 313 313 313 313 314 313 308 305 311 319 317 318 313 311 310 313 311 311 313 307 302 304 310 309 307 308 309 311 311 312 313 316 323 335 337
317 314 314 317 315 312 312 312 312 312 312 312 312 311 311 309 300 300 312 316 319 317 314 314 312 311 305 309 309 307 301 309 308 310 311 310 309 312 309 309 312 312 318 329 335
316 316 313 314 315 314 313 312 312 313 312 311 311 309 309 304 287 304 313 317 317 316 311 310 309 306 302 302 307 302 307 306 308 312 312 309 311 308 311 312 315 316 321 325 330
315 315 313 312 314 314 313 312 313 314 312 311 311 310 307 297 295 305 310 312 313 313 307 307 305 305 301 303 305 304 306 308 311 311 311 312 309 308 309 315 316 317 319 325 330
315 315 313 312 311 314 312 313 312 314 312 310 310 309 302 291 303 306 307 308 310 310 307 308 305 307 303 302 302 305 306 307 310 308 310 309 309 309 310 315 314 314 315 320 328
314 314 313 311 311 312 312 313 312 313 312 311 310 306 299 295 306 308 307 307 311 310 306 310 310 306 305 301 306 305 301 305 307 307 308 311 305 304 310 313 312 313 315 316 317
314 313 313 311 310 311 311 312 313 313 311 310 310 306 295 305 310 306 306 305 310 312 309 311 311 307 304 306 304 301 302 295 304 306 308 308 299 307 310 311 311 312 314 315 315
313 313 312 310 310 311 310 312 313 312 309 309 306 302 294 307 302 306 307 302 306 308 309 310 308 303 303 298 295 298 291 295 298 306 306 306 300 306 311 309 308 311 312 314 315
313 312 311 310 310 311 310 312 309 309 308 308 305 298 299 296 303 305 307 306 303 304 303 302 299 297 297 296 287 290 292 295 295 302 304 302 301 306 309 309 308 310 311 313 314
312 311 310 310 310 310 309 306 301 299 301 296 296 296 297 302 306 302 305 302 302 299 293 295 291 289 295 298 296 295 293 294 297 303 302 301 301 304 307 308 308 309 310 311 314
311 311 310 310 310 308 309 300 300 302 295 300 299 299 301 301 295 300 305 297 295 291 292 290 288 294 298 298 296 295 293 294 298 302 302 300 300 304 306 307 308 308 309 311 313
311 310 310 310 308 307 304 301 307 305 295 297 299 297 298 299 295 296 301 298 292 289 289 289 293 296 295 295 293 294 293 294 295 299 301 299 297 300 305 307 307 309 311 312 312
310 309 310 308 303 306 301 306 308 306 289 290 294 297 300 300 292 301 303 298 292 288 288 292 297 293 294 294 295 291 297 297 296 295 289 299 287 296 300 302 304 307 309 310 312
310 309 309 308 306 303 304 307 307 303 280 293 295 305 302 296 297 297 305 299 290 290 295 291 293 292 294 294 297 293 299 297 297 294 293 294 290 294 300 299 302 305 307 309 311
309 308 308 307 308 305 307 307 304 287 278 287 295 294 294 296 296 300 298 301 300 295 296 295 300 298 297 299 299 300 297 296 295 293 286 291 290 290 294 297 300 304 307 308 310
308 309 308 310 302 309 308 302 286 284 291 289 291 293 293 290 292 295 293 291 290 286 288 292 294 299 300 295 299 297 293 285 283 283 283 292 289 292 298 300 301 301 304 307 309
308 310 307 308 309 307 304 293 283 287 288 295 294 294 290 292 292 293 292 290 295 294 290 286 285 294 299 295 293 294 293 286 278 280 284 291 285 292 300 302 303 303 304 305 305
309 309 307 308 308 306 296 287 289 290 291 293 294 289 290 292 292 293 292 291 294 296 289 288 286 296 298 299 298 293 290 293 287 288 286 288 291 297 298 299 301 301 301 303 305
306 304 303 309 308 303 292 289 292 294 296 295 288 292 287 289 290 291 290 295 294 297 297 293 285 293 297 299 298 296 297 287 289 280 279 285 287 289 294 296 298 299 300 301 302
305 297 304 307 306 297 287 290 294 297 297 294 291 290 290 290 292 291 291 293 297 296 297 296 292 289 295 293 292 293 291 292 291 289 283 281 286 296 296 297 298 300 302 303 304
303 295 304 306 293 292 292 294 296 296 298 296 296 295 292 293 291 291 291 294 299 297 292 295 292 286 290 296 298 296 293 293 286 285 287 286 287 297 299 298 300 301 302 304 305
299 296 300 301 289 293 295 295 296 295 295 294 293 295 296 294 290 293 294 297 300 296 294 296 290 283 285 291 294 292 294 295 294 292 287 284 287 298 298 298 300 301 302 304 305
299 292 295 296 299 295 293 293 292 297 295 295 294 296 294 292 295 292 293 295 298 298 297 298 292 289 285 287 292 289 291 294 292 287 287 288 290 294 296 297 299 301 303 304 304
296 294 297 290 294 295 295 294 292 291 296 296 294 294 293 290 291 291 294 294 297 297 296 296 287 287 289 291 291 290 290 292 289 291 288 290 291 294 297 299 300 302 303 302 303
293 292 292 294 295 295 292 293 293 293 294 292 292 294 294 291 292 291 294 294 294 296 295 295 287 288 287 289 289 287 290 292 292 292 292 292 291 299 300 301 300 300 300 301 303
296 295 296 290 292 292 292 293 293 294 294 296 295 294 293 294 296 296 297 296 297 295 294 294 290 287 285 286 287 284 288 290 292 293 293 289 294 299 297 297 298 299 300 300 302

GFSSW_sfc_thetae_078.txt.gz
Theta_e
318 316 315 318 316 314 313 313 313 314 314 314 314 314 315 315 315 311 304 310 313 322 318 315 313 314 315 313 315 316 302 298 300 302 303 308 307 312 314 314 314 320 322 333 339
317 318 315 315 317 315 313 313 313 313 314 313 313 313 313 313 307 303 312 315 316 320 311 309 307 310 308 308 311 306 301 302 307 306 305 307 308 308 309 310 312 316 330 334 337
316 317 316 314 315 316 314 313 313 313 314 312 312 313 311 310 300 298 315 314 316 316 312 311 310 308 304 307 307 306 300 306 308 310 311 307 308 311 308 306 309 309 323 332 335
316 316 316 314 313 315 315 314 313 313 314 312 312 312 312 306 287 303 312 314 317 316 311 307 307 303 301 300 307 301 306 306 309 311 310 308 309 307 309 308 312 314 326 329 332
315 316 315 315 312 312 315 313 314 313 314 312 312 311 306 297 294 307 309 310 311 310 307 305 303 303 298 300 304 301 305 307 309 310 309 311 307 306 309 312 313 315 324 328 330
314 315 315 314 312 311 313 313 314 312 314 312 311 311 301 291 303 306 306 307 309 308 306 306 304 306 301 300 301 304 305 306 307 307 307 305 307 307 307 313 311 313 315 324 329
314 314 314 313 311 311 312 312 313 313 313 312 311 308 299 295 305 307 306 306 310 309 305 309 309 305 303 300 304 303 300 304 305 307 304 308 304 302 308 311 309 310 312 315 317
314 314 314 312 310 310 312 311 312 314 313 311 311 306 295 306 308 305 306 304 310 312 310 311 311 306 303 305 301 299 300 293 301 305 307 305 295 304 308 307 307 308 309 311 313
313 313 313 311 310 310 312 311 313 312 312 311 305 302 294 307 301 305 306 303 306 308 310 311 308 302 302 296 293 296 289 292 296 303 302 301 297 306 308 307 306 307 308 309 311
313 313 312 311 310 310 311 311 311 310 309 308 305 297 299 296 302 304 306 304 302 303 302 301 299 295 296 294 285 289 289 292 293 299 299 298 299 303 307 305 304 305 307 308 309
312 312 311 310 310 311 308 307 300 297 301 296 296 296 298 302 305 302 304 301 302 299 291 294 291 289 291 292 295 293 291 291 294 301 300 298 299 302 304 304 304 304 306 307 308
312 311 310 310 311 310 307 300 300 302 294 300 300 299 301 302 295 299 304 296 295 290 293 290 287 293 297 295 295 292 290 291 296 301 300 298 297 301 303 304 305 305 306 307 309
311 310 309 310 309 306 305 302 307 305 294 297 299 297 299 300 295 295 300 297 292 289 289 288 291 296 295 294 292 292 290 291 292 298 300 297 293 296 302 303 305 307 307 309 309
311 310 309 309 303 306 301 306 308 307 287 291 294 297 300 299 292 301 303 298 293 288 290 288 295 294 293 292 294 289 296 296 295 293 287 296 281 293 297 299 303 303 305 304 307
310 309 309 309 306 302 304 307 307 302 277 293 294 305 301 295 295 296 304 299 290 289 291 289 292 291 292 293 297 292 298 296 296 293 290 291 284 288 296 294 299 301 302 304 306
309 309 308 306 307 306 308 307 303 285 275 287 296 294 293 296 295 297 297 299 299 290 291 293 299 296 297 298 298 298 295 294 295 291 279 288 286 285 289 294 297 301 304 304 305
308 309 307 309 302 309 308 301 286 281 291 287 290 293 292 291 293 293 292 290 289 283 286 292 293 298 299 294 298 296 291 280 277 276 277 288 285 287 293 296 295 297 296 300 305
307 310 308 308 309 308 304 292 281 288 287 295 294 293 289 292 292 293 290 288 294 293 286 283 280 293 298 295 292 291 289 280 274 275 279 287 280 286 294 297 298 299 298 301 300
310 307 306 308 309 307 296 285 288 288 290 292 292 289 289 292 292 292 291 290 293 292 287 285 285 296 298 298 297 291 287 290 284 284 279 283 286 290 295 294 295 295 297 296 298
305 303 302 309 308 302 291 287 291 296 296 295 288 292 287 289 289 290 290 294 294 297 296 290 283 293 296 299 297 294 295 284 282 274 275 281 283 284 288 291 294 294 295 296 297
304 297 304 307 305 296 286 289 294 297 298 294 291 290 290 289 290 290 290 293 297 295 295 293 288 288 294 291 290 291 289 289 287 283 277 275 280 290 291 293 294 295 297 297 298
301 292 304 306 293 292 289 294 297 296 298 296 295 294 291 292 291 290 290 293 299 296 292 294 291 283 289 295 297 295 290 290 280 281 282 280 282 292 294 295 296 296 297 297 300
298 295 300 301 287 288 295 294 297 295 295 295 294 295 296 293 289 292 293 298 298 296 293 294 287 281 282 288 292 289 292 293 290 287 281 277 281 294 293 293 295 295 296 298 300
298 289 293 296 295 292 292 292 292 298 296 296 295 295 293 292 294 291 291 296 298 297 299 297 290 285 280 283 288 284 289 292 289 281 284 284 286 289 292 293 294 296 295 297 297
296 293 294 287 290 293 294 294 292 290 296 296 293 293 293 289 291 291 292 293 296 297 294 293 284 280 286 289 289 288 288 289 285 288 280 286 287 290 292 293 293 295 297 297 299
292 291 293 293 294 293 293 292 292 292 293 291 291 294 293 290 291 290 292 292 292 293 292 292 283 282 282 288 287 283 288 289 290 290 289 289 289 296 294 295 294 295 296 297 297
295 295 293 292 291 291 291 293 293 295 295 296 295 293 292 293 295 293 294 294 293 293 291 290 285 282 278 284 283 280 286 288 289 291 291 287 292 293 292 294 294 296 296 296 297

GFSSW_sfc_thetae_081.txt.gz
Theta_e
317 317 318 315 315 318 316 313 313 314 314 314 313 313 314 313 313 308 303 309 312 321 320 313 313 310 311 311 314 315 300 295 296 299 302 305 305 310 312 312 317 321 324 330 337
316 317 318 316 314 315 317 314 314 313 314 314 313 313 313 312 306 301 312 319 318 316 311 307 305 308 304 307 310 306 299 298 304 305 301 305 305 307 309 310 316 324 329 335 335
316 316 317 317 314 313 316 316 315 313 314 315 313 313 313 310 299 298 312 315 316 315 311 310 307 307 301 305 305 305 299 305 308 311 310 306 306 309 307 304 307 320 326 331 330
316 316 317 316 315 313 313 316 314 314 314 314 312 313 312 305 283 301 310 313 315 313 309 307 304 301 299 299 305 301 306 307 308 310 310 307 309 306 307 307 311 323 330 331 331
316 315 315 315 315 312 312 314 314 315 313 314 313 312 306 297 294 306 312 310 308 308 305 304 300 301 297 298 303 300 304 307 308 309 309 310 306 307 306 310 313 326 328 327 328
316 315 315 315 314 311 311 312 314 314 313 314 312 311 301 290 300 305 306 307 306 305 303 304 303 304 300 299 300 303 304 305 307 308 307 306 307 305 306 309 310 323 324 327 329
315 315 314 314 313 311 311 312 313 313 314 314 312 307 300 295 303 305 306 304 308 308 302 307 308 303 302 298 303 304 299 301 304 306 304 307 303 302 306 308 307 311 320 324 326
315 314 314 314 312 310 311 312 311 312 314 313 311 304 296 305 304 305 306 306 312 311 309 310 310 305 302 302 301 299 299 292 300 305 306 304 296 304 307 305 304 306 308 310 314
315 314 313 312 311 310 310 312 311 313 312 312 304 300 294 308 301 304 306 302 307 309 309 309 307 301 301 295 293 295 287 292 295 304 303 301 296 303 307 304 303 304 305 307 308
314 313 312 312 310 311 312 311 311 310 308 308 305 296 299 296 302 304 306 304 303 303 301 300 298 292 293 292 285 288 288 292 293 298 300 297 296 301 305 304 302 303 305 304 307
313 312 312 310 310 311 307 303 296 294 298 294 296 295 298 302 305 302 305 302 302 297 290 294 288 285 288 293 293 293 291 290 295 301 297 294 294 299 303 303 300 300 302 305 305
313 312 310 310 310 310 304 298 297 298 292 300 300 299 301 301 295 299 304 295 294 289 292 288 285 293 296 295 294 292 290 290 295 300 298 295 294 300 301 303 302 303 302 303 306
312 311 309 309 309 304 301 301 304 302 290 296 299 297 298 299 294 295 300 296 292 287 289 286 290 296 295 292 291 291 288 289 291 297 298 297 294 296 300 302 304 305 304 304 306
311 310 309 309 301 302 299 304 304 302 282 290 294 297 299 298 292 301 303 298 291 286 289 288 293 293 293 291 293 288 294 294 294 292 287 295 284 293 297 299 301 301 301 303 304
310 310 308 309 302 301 303 304 302 298 275 293 294 304 301 294 293 295 303 298 288 288 289 286 292 291 291 292 294 292 296 293 294 292 288 290 286 288 292 294 298 299 299 301 302
310 309 309 305 302 304 304 302 298 282 269 287 294 293 292 295 295 297 297 298 296 290 292 292 298 296 295 297 297 298 294 294 293 291 281 288 286 283 287 294 294 298 300 302 302
310 309 307 309 301 304 304 296 284 274 289 286 288 292 291 290 292 291 291 289 287 281 284 291 292 297 298 294 297 295 288 282 280 280 279 287 284 285 290 294 296 298 298 298 301
309 309 307 308 305 304 299 291 276 287 283 294 292 291 288 291 292 291 290 286 291 289 287 282 281 292 297 294 291 292 289 278 275 276 278 285 280 286 292 294 296 297 297 297 297
310 303 302 304 306 302 296 279 281 283 288 291 291 286 287 291 291 291 290 289 291 291 285 284 284 295 297 297 294 291 286 288 282 281 278 281 285 289 292 292 292 294 295 295 296
302 302 301 306 306 301 290 283 287 294 294 294 287 290 286 287 288 289 289 291 292 294 292 288 282 292 296 297 295 293 293 282 279 275 275 278 279 282 286 288 292 292 293 295 295
300 294 302 307 304 295 284 283 292 296 296 293 291 290 289 287 289 287 287 291 295 293 292 290 285 287 292 289 287 289 288 287 285 280 276 274 278 287 288 291 291 293 295 296 296
297 290 303 304 291 291 286 290 296 294 296 294 294 292 290 290 288 287 287 290 296 295 289 292 287 284 286 293 295 292 289 289 278 280 278 277 279 291 291 293 294 294 296 296 297
294 294 300 301 285 285 289 293 294 294 293 293 292 293 293 290 287 290 290 295 296 293 291 291 283 280 283 286 290 289 291 292 288 284 276 274 279 291 290 293 295 295 293 296 298
292 287 293 296 293 290 288 290 290 295 294 294 292 292 291 291 291 288 289 294 296 295 299 296 287 281 276 281 286 283 288 291 287 276 281 281 283 285 289 291 292 292 294 295 297
293 287 290 286 288 289 289 291 290 289 293 293 290 291 291 287 289 288 290 292 295 297 293 292 281 278 285 289 288 286 286 288 283 287 281 286 287 289 289 291 292 294 295 295 296
289 289 290 287 289 287 289 289 289 291 291 289 288 292 291 288 287 289 290 289 289 291 291 291 281 282 282 286 286 283 287 287 288 288 288 289 287 294 293 292 292 293 295 295 296
292 291 290 288 287 287 287 289 291 292 293 294 292 290 290 291 292 292 291 293 292 290 288 288 282 278 276 283 282 279 284 286 287 289 289 285 290 292 290 292 292 294 294 294 294

GFSSW_sfc_thetae_084.txt.gz
Theta_e
316 317 317 318 316 315 315 317 314 314 314 315 315 314 314 313 313 306 301 307 311 319 319 312 310 310 310 307 313 312 299 295 295 295 299 304 304 308 312 312 318 321 322 328 333
316 316 317 318 317 315 314 316 316 314 314 315 316 314 313 313 305 300 309 316 318 319 309 305 302 306 302 304 308 305 298 298 302 302 300 303 304 306 309 313 319 323 331 332 326
316 316 316 317 317 314 314 313 317 315 314 314 314 313 313 310 298 297 310 313 316 315 310 309 306 304 299 303 303 305 298 304 307 310 310 305 305 308 306 303 311 321 325 330 329
317 316 315 315 315 315 313 312 314 314 315 313 314 313 313 304 282 299 311 310 314 312 308 305 303 298 297 297 302 300 305 306 308 309 309 306 307 304 306 306 316 326 329 330 327
317 316 315 315 315 314 312 312 313 314 315 313 314 313 305 295 295 303 313 310 307 307 303 301 300 299 294 297 300 300 304 307 309 309 308 309 304 303 305 309 318 328 329 329 328
317 316 315 314 315 313 312 311 312 313 313 313 314 312 300 289 300 302 306 307 305 302 302 304 301 303 298 298 297 302 304 305 307 307 307 304 306 304 305 309 320 323 324 327 328
316 315 314 314 314 312 311 311 313 312 313 314 313 307 299 295 303 303 305 305 307 304 300 305 306 302 302 298 301 302 299 302 302 304 305 306 302 302 305 307 315 316 318 325 326
316 315 314 313 312 311 310 311 312 311 313 313 313 303 294 305 303 304 306 307 310 309 306 309 309 305 301 301 298 297 298 292 300 304 306 302 295 303 306 303 304 308 310 316 321
316 314 313 313 312 310 311 311 312 312 313 312 303 300 292 308 301 303 304 301 306 308 309 309 306 300 300 293 291 293 288 291 295 302 303 298 293 303 306 303 301 303 305 307 310
316 314 312 312 310 310 311 311 311 310 307 308 305 295 297 295 301 303 305 304 302 303 300 300 297 293 294 291 283 287 287 291 292 299 300 298 297 302 304 304 301 301 302 304 307
315 313 311 311 309 310 306 301 296 294 297 293 294 295 297 301 304 301 304 301 300 297 289 293 290 287 290 293 294 291 290 289 294 299 296 295 297 300 303 302 300 300 301 302 305
315 313 310 309 309 310 303 297 296 297 290 299 299 298 300 300 295 298 304 294 292 287 291 289 286 292 296 296 293 292 290 290 295 299 296 295 295 299 302 301 301 301 300 302 303
314 312 310 308 309 303 300 301 303 301 289 295 298 296 297 298 293 294 300 296 290 286 288 286 289 294 294 293 292 291 290 290 291 296 298 295 292 295 299 301 302 302 303 302 304
314 312 310 308 301 302 299 304 302 301 279 287 292 296 299 298 290 300 302 296 289 286 289 289 292 293 291 290 292 288 294 294 293 291 287 296 283 291 295 298 298 299 300 302 303
313 311 310 309 301 298 301 303 301 297 267 290 293 303 300 294 292 294 302 296 286 287 289 286 291 291 289 291 294 291 296 293 294 290 289 290 283 288 292 292 295 299 300 301 302
312 311 309 305 302 303 303 301 297 282 268 284 293 292 292 295 295 297 296 297 295 290 292 292 298 295 293 296 296 298 293 292 293 290 283 287 283 284 287 293 294 298 299 300 301
311 310 306 306 299 303 303 295 283 273 287 284 287 291 291 290 291 291 290 286 283 276 282 290 291 296 298 293 297 294 287 279 280 280 278 286 285 286 290 293 296 297 298 299 300
310 309 307 307 304 302 298 286 276 282 282 293 290 289 287 291 290 291 289 285 290 289 287 280 280 292 297 294 290 291 287 279 275 277 278 286 282 286 290 293 294 296 297 296 294
310 304 302 303 305 302 291 278 277 282 286 291 289 285 287 290 289 290 287 285 291 291 286 283 284 295 296 296 293 290 284 288 282 280 276 281 285 289 291 291 293 293 293 292 293
302 301 300 305 304 299 289 281 284 292 293 292 284 287 283 286 286 288 287 290 291 293 293 288 284 292 294 295 293 290 292 281 279 274 275 277 279 281 285 286 290 291 292 293 294
301 294 301 306 304 294 283 281 289 295 295 292 289 289 288 286 288 285 286 290 293 293 291 290 286 285 290 288 286 288 286 286 284 280 275 274 278 285 288 289 290 291 293 294 295
298 289 302 304 290 290 285 287 296 293 294 293 292 291 289 289 287 289 286 288 294 293 288 291 286 279 285 291 293 290 287 285 277 277 276 276 279 288 289 291 292 292 294 295 296
294 293 300 301 283 285 288 290 294 292 292 292 291 292 292 288 285 288 289 294 294 292 288 290 282 280 283 285 288 287 289 290 286 282 275 275 278 291 290 290 292 291 293 295 297
294 287 293 296 294 287 285 289 290 294 293 293 291 291 290 289 290 287 288 293 295 295 299 295 285 280 275 280 284 282 287 289 285 276 280 280 282 286 288 290 290 291 293 293 296
292 286 292 285 287 289 288 290 289 288 291 292 289 290 289 286 287 286 289 290 294 296 292 290 280 276 283 288 286 285 285 287 283 286 279 284 286 287 289 291 291 293 293 294 294
289 287 289 286 288 287 289 287 288 289 289 288 288 290 290 288 287 286 289 288 288 290 288 289 279 281 280 285 286 283 286 286 287 287 287 287 286 291 291 290 290 292 293 293 294
291 291 290 288 285 286 285 288 290 291 292 292 290 290 289 290 291 290 290 291 291 289 287 287 282 279 275 281 282 279 283 285 286 288 288 284 290 292 290 291 291 292 293 293 293

GFSSW_sfc_thetae_087.txt.gz
Theta_e
318 317 317 318 318 317 315 314 316 316 315 314 315 317 314 314 313 305 299 305 309 318 317 310 308 308 309 304 309 309 297 293 295 295 296 303 304 307 313 312 317 322 321 326 331
318 318 317 317 317 317 314 314 314 316 316 315 315 315 313 313 304 299 308 314 316 317 308 305 301 303 300 301 303 301 294 294 301 300 298 303 303 306 311 315 316 324 327 328 332
319 318 317 316 316 316 315 313 313 314 315 315 314 315 313 309 296 295 312 311 313 315 310 307 305 302 297 300 300 299 295 300 304 308 309 305 303 307 308 306 315 319 324 326 328
319 318 317 316 315 315 314 313 312 313 315 315 313 314 313 303 282 297 311 311 312 311 308 304 302 296 294 293 300 295 300 301 307 308 307 305 306 303 305 305 314 325 326 325 324
319 318 317 316 315 315 313 312 311 312 315 314 313 313 304 294 294 304 310 311 307 304 301 300 298 296 292 294 297 296 298 303 308 308 306 308 304 303 304 308 325 328 327 323 324
319 318 317 315 315 314 312 311 312 313 313 313 313 311 300 290 301 301 303 306 306 303 299 302 299 301 296 296 295 298 302 301 307 306 306 304 304 303 304 309 321 325 325 326 325
320 318 317 315 315 313 312 310 311 313 312 313 313 307 298 294 303 302 304 306 307 305 298 303 304 301 299 295 299 299 297 299 304 303 304 305 302 299 304 306 316 318 321 324 324
319 318 316 315 314 313 311 310 311 312 312 313 312 302 294 306 302 303 304 305 309 308 303 306 306 302 300 299 297 295 295 288 301 303 303 302 296 302 305 302 307 311 314 319 324
320 318 316 314 313 312 310 311 311 312 312 312 302 300 291 307 299 302 303 301 306 306 305 308 305 298 300 290 288 291 287 288 294 301 301 298 296 302 305 302 301 301 306 309 314
319 317 315 313 312 311 310 311 310 309 306 307 305 295 296 295 300 302 304 303 302 301 297 299 298 289 293 288 280 285 287 289 289 298 298 294 295 301 304 302 300 301 301 303 306
319 316 314 313 311 310 306 300 295 293 296 293 293 294 296 299 303 300 303 300 300 297 289 292 289 285 290 290 292 291 289 289 293 299 296 293 294 297 302 301 298 300 301 302 305
319 315 314 312 310 310 303 296 295 296 288 297 297 297 299 299 294 297 303 293 292 286 290 286 286 292 295 295 293 291 289 289 294 298 296 294 293 297 301 302 299 300 301 301 302
317 315 313 311 309 304 299 300 302 300 288 294 297 295 296 297 292 293 299 295 289 286 287 285 289 293 294 293 291 290 288 289 291 295 297 295 291 294 299 302 301 301 301 302 302
315 314 313 310 302 301 298 303 301 299 277 285 291 295 298 296 289 299 301 295 289 284 289 288 293 292 291 290 292 287 293 293 293 290 287 295 284 291 295 297 299 299 299 301 302
314 314 312 310 302 299 301 301 300 296 266 288 291 302 299 292 290 292 301 295 285 286 289 287 289 290 289 289 293 291 295 293 294 291 290 290 285 287 293 294 297 296 298 300 303
313 313 312 307 303 303 302 301 296 280 268 283 292 290 292 294 294 295 295 296 294 290 293 292 297 294 292 295 296 296 293 293 292 290 281 288 286 284 287 292 295 295 297 300 301
312 312 309 307 299 303 301 294 279 276 286 282 286 290 290 290 290 291 289 284 281 281 285 290 291 295 297 292 294 294 287 280 279 280 279 287 285 286 290 291 294 295 296 298 298
311 311 308 307 305 302 297 285 275 280 281 290 289 289 287 291 289 290 287 283 290 289 286 281 278 291 296 293 290 291 285 280 276 277 277 286 282 286 288 291 293 295 296 295 295
311 306 303 304 304 301 289 276 277 280 285 289 288 283 284 289 290 287 284 285 289 290 285 282 284 294 296 297 296 289 280 286 280 279 277 281 284 288 289 289 291 292 293 292 293
303 301 300 305 305 298 284 281 282 290 291 290 282 286 281 285 286 287 285 289 290 292 291 287 283 292 294 296 294 291 291 282 280 274 274 276 278 280 285 287 290 291 291 293 293
301 294 302 305 302 291 279 280 286 293 294 290 286 285 285 285 287 285 284 288 292 292 291 289 285 287 289 286 285 287 287 285 283 279 274 273 278 284 286 288 289 290 291 293 294
299 287 302 304 288 288 281 286 294 292 294 292 291 290 286 287 287 289 285 287 293 293 288 290 284 281 283 289 291 288 285 285 277 277 275 275 278 287 286 290 291 291 292 294 295
293 293 301 300 283 283 286 288 291 291 291 291 289 291 290 287 286 290 287 293 293 291 288 289 281 273 277 283 287 286 288 287 284 281 274 273 278 289 290 291 291 291 292 294 296
294 286 293 295 293 285 284 286 290 293 292 292 290 290 290 288 290 286 287 292 293 293 298 293 283 280 274 279 283 282 286 287 282 275 278 279 281 284 287 289 289 291 293 293 294
293 288 292 285 287 287 287 288 289 287 290 291 287 289 289 286 286 285 288 289 293 295 291 288 278 275 283 287 285 284 284 286 280 282 278 282 283 285 288 289 290 289 292 292 294
290 288 290 286 290 288 289 286 288 288 288 287 287 289 288 287 287 286 288 287 287 290 287 288 278 280 280 284 284 282 284 285 285 286 286 285 285 290 289 290 290 292 292 292 293
293 293 290 289 287 286 287 286 288 290 291 291 290 288 287 289 289 289 289 291 290 288 286 285 281 277 274 280 281 278 282 284 284 286 286 282 288 289 288 290 290 291 292 291 292

GFSSW_sfc_thetae_090.txt.gz
Theta_e
321 320 319 318 318 319 319 316 315 315 317 316 315 315 316 314 313 303 297 303 308 317 316 309 307 306 305 302 305 305 294 290 293 296 297 301 302 307 310 314 317 319 320 324 330
322 320 319 318 317 317 317 317 314 314 313 317 315 314 315 313 304 299 307 314 313 315 306 303 301 302 296 298 301 298 292 292 299 299 296 301 304 305 311 314 316 321 325 328 327
324 321 320 318 318 316 316 316 315 313 313 316 316 314 314 308 295 293 311 311 311 313 309 306 304 300 294 296 296 296 292 297 301 303 305 304 304 308 308 309 316 318 321 323 324
326 322 320 319 318 316 316 316 314 312 313 315 315 313 312 302 280 295 310 311 311 308 305 303 301 294 292 290 296 291 297 299 302 304 306 304 307 303 306 307 313 324 324 323 320
327 322 319 319 317 316 316 315 313 312 312 313 314 312 303 293 293 303 309 309 307 305 300 297 296 294 290 294 295 293 295 300 302 303 304 307 304 302 302 306 323 325 323 323 321
327 323 318 318 317 316 315 314 312 312 314 312 313 311 298 287 300 302 301 305 305 304 300 299 298 298 294 294 293 295 297 298 302 301 305 303 303 304 303 307 324 323 321 324 324
323 323 318 318 316 316 315 313 312 312 313 312 313 307 297 294 302 303 303 305 307 305 301 301 302 298 298 294 298 296 293 298 296 299 303 304 300 299 304 307 316 321 320 322 323
317 323 319 317 316 315 314 313 311 312 312 312 311 303 292 304 303 302 303 304 308 306 303 304 304 298 296 298 295 291 293 288 296 295 299 301 295 301 304 304 306 312 318 321 323
317 320 319 316 315 314 312 311 311 312 312 312 303 297 291 306 298 301 302 301 305 304 304 306 303 296 294 290 287 289 285 288 291 297 300 298 297 301 304 303 302 303 307 315 321
315 316 318 315 314 313 311 312 311 310 307 307 304 294 294 294 299 301 303 302 301 299 296 298 295 289 291 286 278 283 285 288 289 296 296 294 294 299 302 301 300 301 302 304 312
311 314 317 315 313 311 308 301 297 293 296 292 292 293 295 299 302 299 302 299 300 297 288 292 286 285 288 289 289 289 288 287 291 296 294 292 294 297 300 299 299 299 301 302 306
312 314 316 313 312 310 304 297 295 296 288 296 296 296 298 298 293 296 302 292 290 285 290 287 286 290 295 294 291 290 288 289 293 295 294 293 292 297 299 300 301 301 301 301 303
310 313 315 312 310 307 300 299 302 299 287 292 296 295 295 297 291 292 298 293 288 284 286 281 288 294 293 292 290 289 287 288 289 294 296 293 289 293 298 301 302 301 302 302 303
309 312 314 311 302 302 298 304 303 298 276 285 290 294 296 295 288 298 300 294 287 283 287 286 293 292 290 289 291 287 293 293 292 289 285 294 283 288 294 296 300 298 298 300 302
309 311 313 309 303 300 302 304 300 294 266 287 290 301 298 291 288 290 300 293 284 285 287 286 290 290 289 289 293 290 294 293 292 290 289 288 285 287 292 292 296 296 297 299 301
308 310 311 308 304 304 303 301 295 276 267 285 291 289 292 293 294 294 293 294 293 289 292 291 296 293 293 295 295 296 293 293 291 290 279 287 284 284 288 292 295 298 298 299 300
307 308 307 308 299 306 302 295 278 269 284 282 285 289 289 289 289 290 288 284 281 282 285 288 290 295 297 290 294 295 288 281 280 280 278 286 283 285 291 292 295 295 295 297 298
307 308 307 306 307 303 299 286 270 280 281 288 288 288 285 289 287 288 284 282 287 287 285 277 274 289 295 291 288 290 286 281 275 275 278 286 282 285 289 291 293 295 293 295 296
307 304 304 305 307 303 291 278 277 280 284 287 286 282 283 288 287 286 283 283 287 288 282 280 282 294 294 297 295 289 283 287 281 280 277 281 284 287 289 290 291 292 291 292 292
300 300 300 306 305 299 287 282 282 287 290 288 281 284 280 283 283 287 284 287 289 292 292 286 282 290 294 296 293 289 290 282 281 276 274 276 277 280 285 287 289 291 292 292 293
298 293 302 306 303 293 283 280 285 291 293 288 284 283 283 283 285 283 282 287 292 292 291 287 284 286 288 287 284 286 285 284 283 279 275 274 277 284 285 287 288 289 292 293 294
296 287 302 304 289 289 285 285 292 290 292 290 290 288 285 286 284 284 283 285 294 292 286 288 284 279 284 288 289 287 284 283 277 277 275 275 278 286 285 289 290 291 293 294 295
293 293 302 301 284 285 286 287 289 289 290 290 289 290 288 286 283 286 286 292 293 291 288 288 280 278 280 283 287 285 286 285 282 280 275 273 278 288 288 289 290 291 291 293 294
293 286 293 295 293 286 285 284 286 292 290 292 290 289 288 286 288 285 286 291 292 292 297 292 282 278 274 279 283 281 285 285 282 276 278 278 278 283 286 289 288 291 291 291 292
294 289 292 285 287 286 285 286 287 286 290 290 287 288 288 284 285 284 286 288 291 294 289 287 278 275 283 285 284 284 284 284 278 281 278 280 282 284 287 287 289 289 291 292 292
290 289 290 289 290 287 286 286 287 287 288 286 286 288 287 286 286 285 287 285 285 288 286 286 277 280 278 282 283 282 283 283 284 285 283 282 283 288 287 287 288 291 291 291 292
293 293 292 289 288 286 283 285 289 290 290 290 289 288 287 288 289 289 288 290 288 287 285 284 280 277 274 279 280 277 281 283 284 284 285 282 286 289 288 290 289 290 291 291 291

GFSSW_sfc_thetae_093.txt.gz
Theta_e
326 325 322 320 319 318 318 319 318 316 315 315 317 316 315 315 313 305 298 302 308 316 314 308 307 306 306 303 306 307 292 288 292 294 298 304 303 308 310 309 318 319 319 325 327
328 327 324 321 319 319 318 317 317 316 314 315 317 316 314 314 305 300 307 312 315 313 306 303 300 302 299 299 301 297 290 290 297 299 299 303 303 305 306 309 314 319 327 327 326
327 328 325 322 320 319 318 317 317 315 314 314 316 315 314 308 295 293 311 314 311 312 307 306 304 300 294 297 297 295 289 295 297 300 304 304 303 306 305 304 313 316 323 325 323
323 324 327 322 320 319 317 316 316 314 313 314 315 313 311 303 282 296 311 310 312 308 303 302 301 294 292 291 296 290 295 296 299 302 303 302 306 305 306 307 312 322 324 323 321
321 321 323 322 320 318 317 316 315 314 313 314 314 312 303 294 293 303 310 306 307 305 301 298 294 295 290 292 293 291 293 297 300 300 303 305 302 303 305 310 310 322 324 322 321
317 318 319 322 319 318 316 315 314 313 313 314 313 310 299 288 299 303 301 303 304 303 301 300 295 299 294 292 292 294 295 296 299 300 302 301 301 303 306 309 310 321 321 322 320
314 314 317 321 319 317 316 315 313 312 312 313 313 308 298 293 303 304 304 303 306 305 300 302 301 297 296 292 297 294 288 295 296 299 299 302 295 295 306 307 310 318 320 319 321
312 313 316 321 318 316 315 313 312 311 311 312 312 304 293 304 303 304 303 304 308 305 303 304 303 299 295 295 293 290 291 287 295 298 296 297 290 300 305 305 309 313 319 321 323
311 312 313 318 316 315 313 312 311 312 312 312 305 300 291 306 299 301 302 300 305 304 304 306 302 296 294 286 284 290 284 287 291 297 296 292 290 299 303 304 303 305 309 319 323
309 311 311 315 315 312 311 311 311 309 307 307 304 295 295 293 299 301 303 302 301 299 297 298 294 289 289 285 281 283 285 288 289 294 294 290 288 292 302 302 302 303 306 313 320
309 309 310 315 313 312 308 303 298 295 297 294 294 293 295 299 302 299 302 300 300 297 289 292 287 282 288 288 290 289 288 287 292 296 293 291 289 294 301 301 302 303 305 308 313
308 309 310 314 313 310 305 298 297 297 289 297 297 296 298 298 292 295 302 292 291 286 290 287 285 290 290 290 291 290 289 288 292 295 292 290 288 294 300 300 302 303 303 305 307
308 308 311 313 311 307 302 300 304 300 288 292 296 295 295 297 291 292 298 294 289 285 287 283 289 294 293 291 289 289 288 288 288 293 293 291 287 293 299 301 303 304 304 304 305
308 308 311 310 303 302 299 304 305 300 282 286 291 294 296 295 288 298 300 294 288 285 287 287 293 292 290 290 291 287 293 292 290 289 285 293 282 289 295 297 301 303 303 302 304
307 308 309 309 302 299 303 305 302 296 273 288 290 300 297 290 289 290 300 294 286 286 288 288 290 290 287 290 293 290 295 293 292 290 289 288 285 288 293 293 297 302 303 303 303
306 307 307 306 304 305 303 302 297 282 273 286 291 289 291 293 294 294 293 294 293 290 292 291 296 294 293 294 295 296 293 291 291 289 282 287 285 286 290 293 296 301 302 304 304
306 307 304 306 299 306 303 296 281 276 286 284 285 288 289 288 289 289 288 284 283 280 284 287 290 294 297 290 294 293 288 281 279 278 279 287 285 287 291 291 294 300 299 301 303
306 306 304 304 307 304 299 287 276 281 283 288 287 287 285 288 287 288 285 282 288 288 283 275 275 289 294 292 289 289 287 281 275 276 280 288 283 287 290 292 294 295 295 298 299
305 298 301 305 305 303 291 280 281 282 285 286 286 282 285 289 287 286 282 283 287 289 282 280 283 294 294 296 294 289 284 287 281 281 281 282 285 289 291 292 293 293 294 294 295
299 296 297 306 305 298 287 283 283 287 289 287 281 283 280 283 282 284 284 287 289 291 291 286 281 289 294 296 294 291 291 282 282 275 274 279 280 281 286 289 291 293 293 294 295
297 291 301 305 304 291 282 284 285 290 291 287 283 283 282 282 283 282 282 287 293 292 291 289 286 287 289 288 286 287 285 285 284 280 277 276 280 287 287 289 291 292 294 295 296
295 286 302 304 288 288 285 286 291 290 291 289 289 287 284 285 283 283 282 285 294 292 287 288 284 283 285 289 291 289 286 283 280 279 277 278 280 288 287 290 292 293 294 296 297
291 289 302 301 284 285 288 287 289 289 289 289 288 289 287 285 283 286 286 292 294 291 288 288 281 278 279 284 287 286 287 284 283 282 277 277 280 290 290 291 292 292 294 294 295
292 284 293 295 293 288 286 285 285 292 290 290 288 289 287 285 287 284 285 291 293 293 296 291 282 279 274 280 284 283 286 286 283 278 280 280 282 286 289 290 291 292 293 293 294
292 287 291 284 288 288 288 286 284 288 291 289 287 288 287 283 284 284 286 288 291 294 289 287 278 276 282 284 285 285 285 285 280 282 280 282 284 286 289 291 292 292 293 294 294
290 289 291 289 290 287 288 284 286 288 288 285 286 287 287 286 286 285 287 285 285 288 286 286 278 280 280 283 283 283 285 285 286 285 285 285 285 290 289 291 291 292 293 293 293
290 293 292 290 288 287 283 287 289 289 289 289 288 287 287 287 288 289 288 289 288 287 285 284 281 277 275 280 281 278 282 284 285 286 286 283 287 290 290 290 291 292 292 292 293

GFSSW_sfc_thetae_096.txt.gz
Theta_e
325 328 328 326 323 320 320 318 318 316 315 314 314 317 316 315 315 310 301 304 307 315 314 308 305 306 307 302 306 307 294 291 293 294 296 303 302 309 313 311 312 317 321 324 330
322 325 326 328 324 321 320 318 317 317 315 313 314 317 315 314 307 301 307 312 315 312 307 301 299 301 299 299 301 298 291 291 297 298 298 301 303 305 307 308 309 313 324 330 332
319 322 323 325 325 321 320 318 317 316 315 313 314 316 314 310 299 297 311 315 314 314 308 305 304 300 295 298 297 296 291 295 297 299 301 301 303 307 306 304 309 310 316 326 328
316 318 320 323 326 322 320 318 316 315 314 313 312 314 311 305 288 301 312 311 312 312 307 303 300 295 292 291 296 291 294 295 297 299 300 298 304 303 306 307 312 315 317 326 325
313 315 316 319 322 322 319 318 315 314 312 313 313 313 306 297 297 305 311 308 308 307 303 300 297 295 290 292 295 292 293 295 297 297 299 302 301 303 305 311 313 314 316 319 324
313 313 314 315 319 322 319 316 315 312 312 313 313 311 303 292 304 306 305 305 306 305 303 301 297 298 294 294 293 294 294 294 296 296 299 298 300 303 306 311 312 313 313 316 322
312 312 312 312 316 321 318 315 315 311 311 312 312 309 299 298 306 307 307 306 307 306 302 304 302 296 296 293 297 296 291 294 295 296 297 300 297 299 306 309 308 311 312 316 321
311 311 311 312 315 320 316 314 311 310 311 311 312 306 297 306 309 306 308 305 309 307 304 306 304 298 296 298 294 288 291 286 294 296 298 299 291 299 306 305 306 310 312 316 319
311 310 310 311 313 316 315 312 311 311 312 312 306 301 294 307 302 305 305 302 306 306 307 305 302 297 297 291 287 288 285 286 291 298 298 297 293 300 301 301 301 309 312 316 317
310 310 310 310 313 314 312 312 312 310 309 309 304 296 299 295 301 303 306 304 302 300 300 299 296 293 291 288 281 284 287 289 289 295 296 294 294 298 299 300 300 309 312 315 317
310 309 309 311 313 312 309 305 298 296 300 295 296 295 297 302 304 301 304 303 302 299 290 293 288 284 290 291 288 286 289 288 292 297 295 294 294 295 298 300 297 308 311 316 316
309 308 309 311 314 311 307 299 298 299 292 299 298 299 301 301 294 298 304 296 294 290 293 289 285 292 292 292 290 289 289 289 292 295 294 293 292 297 298 298 297 307 309 314 315
308 308 308 311 311 307 303 301 305 301 291 292 297 296 298 299 293 294 300 296 292 289 290 288 290 294 293 291 289 291 289 289 289 293 294 293 290 290 295 297 299 306 307 311 314
308 307 307 309 304 304 300 305 306 303 286 287 292 296 298 298 291 300 302 297 291 289 290 290 294 293 292 290 292 288 294 293 290 290 287 294 282 288 292 298 304 305 306 307 311
309 307 306 307 304 300 302 306 307 300 278 290 291 302 299 293 292 293 303 297 289 290 291 289 291 291 289 291 294 290 296 294 292 290 291 290 286 288 295 297 301 305 306 306 308
307 307 306 307 305 304 306 305 301 285 277 286 292 291 292 294 294 295 296 298 296 292 292 292 296 294 293 295 295 298 295 294 294 292 285 288 287 286 289 292 298 303 305 307 306
307 306 305 306 299 305 304 297 285 280 287 285 286 291 290 289 290 291 290 289 288 285 285 289 290 295 297 291 295 294 292 284 282 283 281 288 287 287 291 294 296 300 304 307 308
305 306 305 305 308 305 300 289 280 283 284 290 289 290 286 290 289 290 288 286 290 290 288 284 282 289 295 292 289 290 290 285 278 280 283 290 284 286 295 297 298 301 300 304 306
304 305 304 306 308 305 293 283 284 285 288 288 289 286 286 288 289 289 288 287 290 292 286 285 285 294 295 296 294 291 288 291 286 289 285 287 289 295 295 295 295 295 298 299 300
302 299 299 307 307 299 288 285 286 288 290 291 285 288 284 285 286 287 287 291 291 293 295 290 284 291 294 297 296 293 294 287 289 281 279 283 286 287 292 294 296 296 297 298 300
300 293 300 307 303 292 285 286 287 292 292 289 288 287 288 287 288 287 287 291 294 294 295 292 289 288 292 290 289 291 290 289 289 286 283 281 284 291 292 294 295 297 299 300 301
296 287 301 304 287 289 287 288 291 291 294 293 293 291 289 290 288 288 288 290 296 296 291 293 290 285 287 293 294 293 290 289 288 283 283 287 285 293 294 296 298 297 299 301 301
291 292 302 301 285 287 288 288 290 290 292 293 292 293 293 291 287 290 291 295 296 294 293 293 288 285 285 290 293 291 291 290 289 290 283 285 285 295 296 296 298 299 299 300 301
292 286 291 294 293 289 287 287 287 293 293 294 293 294 293 291 293 290 291 294 296 296 295 295 288 285 283 285 289 288 290 291 290 288 286 287 287 292 294 295 297 298 299 300 300
293 288 292 286 288 289 289 288 286 287 293 294 292 293 292 289 290 290 292 293 295 295 294 293 286 285 287 288 289 289 290 290 287 288 287 287 289 293 295 296 297 298 299 299 298
290 291 294 291 290 289 289 288 287 289 291 291 291 293 293 291 291 290 292 292 292 294 293 292 287 286 286 288 288 286 289 290 290 289 290 291 290 295 297 298 297 297 298 297 298
298 298 296 290 288 288 288 289 290 291 292 292 293 293 292 292 295 297 296 296 295 293 291 290 289 287 283 286 286 285 286 288 289 291 291 288 292 296 295 295 296 297 297 298 298

GFSSW_sfc_thetae_099.txt.gz
Theta_e
318 320 323 326 326 325 323 321 318 317 316 315 314 314 317 315 315 312 303 307 307 311 316 309 307 305 307 303 304 305 294 291 292 294 296 302 300 305 309 307 310 312 313 318 329
315 316 320 322 324 326 323 321 319 318 317 314 313 314 315 314 310 304 309 310 312 315 308 302 299 301 299 299 301 297 292 292 297 298 297 300 300 302 302 304 306 309 315 318 330
314 314 316 318 319 323 324 321 319 317 316 314 313 314 314 312 302 299 313 315 317 314 308 304 303 300 297 298 298 297 292 295 296 298 299 298 300 303 301 300 306 306 311 320 328
314 314 313 315 317 320 324 322 319 316 315 313 312 314 313 308 291 303 317 316 312 311 308 304 300 295 293 292 296 291 295 296 296 298 297 297 300 300 302 303 309 310 313 317 321
314 313 313 313 314 317 320 322 318 317 315 313 313 314 309 301 300 307 314 311 308 306 303 300 297 296 293 293 294 293 294 296 297 297 297 298 296 299 300 306 310 311 313 316 319
312 313 312 312 313 315 318 321 317 315 313 312 314 314 306 295 307 307 308 306 305 305 303 302 298 298 294 294 293 296 296 296 297 296 296 294 295 297 300 306 307 311 313 313 316
313 312 312 311 312 314 317 318 316 314 311 313 314 310 301 300 307 308 307 306 306 306 303 304 303 297 296 293 298 297 292 294 295 296 294 296 291 293 300 304 305 309 312 314 316
313 312 311 311 311 313 318 316 314 312 312 313 313 308 298 309 310 307 307 306 307 309 306 306 306 300 295 298 295 291 292 286 293 294 296 295 287 295 301 302 304 307 310 312 314
312 312 311 310 311 313 316 314 311 312 313 313 307 303 297 308 303 305 306 301 306 307 307 305 304 296 296 290 288 290 284 286 288 297 295 293 289 297 302 304 303 306 309 312 313
311 311 311 310 310 313 312 312 312 312 310 309 307 297 301 297 302 303 306 305 302 303 300 299 296 292 292 288 283 285 286 289 289 294 294 292 292 299 302 302 302 305 310 309 312
311 311 310 309 310 312 310 306 300 296 300 296 297 297 298 303 305 302 304 303 302 299 291 295 289 285 288 290 291 290 288 286 291 293 292 292 293 296 300 301 301 303 308 309 312
311 310 309 309 314 314 307 300 300 302 293 299 299 301 302 303 295 299 304 297 296 290 294 290 285 292 293 293 291 290 288 288 293 296 293 293 293 297 299 299 301 300 302 311 314
310 309 308 309 310 307 304 302 306 304 292 295 299 297 298 301 294 295 301 297 293 290 290 287 291 295 292 290 289 289 288 290 289 293 296 293 291 294 298 300 301 302 303 312 314
309 309 307 309 304 304 300 307 307 305 288 289 293 296 299 299 293 300 302 298 292 289 292 291 295 293 292 290 291 287 294 292 289 289 285 294 283 289 292 297 300 300 303 312 312
306 308 307 307 304 301 304 309 307 302 278 291 292 303 300 294 294 295 303 298 291 291 292 289 292 291 290 291 294 291 295 292 290 289 289 290 287 288 291 294 298 302 306 310 312
307 308 307 306 306 307 307 307 301 285 279 287 293 292 292 294 293 296 296 299 298 293 293 292 298 295 294 295 295 295 294 293 293 291 284 288 286 286 288 289 299 302 303 307 310
306 307 306 307 301 309 307 297 284 281 289 286 287 291 291 290 292 291 290 290 288 286 286 291 292 295 297 290 294 294 289 283 282 282 282 289 287 285 291 293 300 302 303 305 308
306 306 305 305 309 307 300 288 280 286 285 291 290 291 287 290 290 290 289 288 292 291 288 285 283 290 295 292 289 292 290 285 278 281 283 290 283 286 296 299 301 300 303 305 305
305 306 305 306 308 304 293 283 285 286 289 289 290 286 286 289 290 289 289 289 292 294 286 286 285 294 295 294 294 292 289 293 288 290 285 286 288 293 297 295 297 296 298 300 302
304 301 300 307 308 300 288 285 288 290 291 292 285 289 283 286 287 288 289 293 292 295 296 291 285 291 293 296 297 294 295 287 290 282 279 284 285 286 291 292 295 296 296 299 301
303 294 301 308 305 293 285 287 288 293 293 290 289 288 288 286 289 289 289 293 295 295 296 292 288 289 293 291 290 292 290 291 290 287 283 281 283 293 294 296 295 297 299 300 301
299 288 302 306 289 290 288 289 290 293 295 294 294 292 290 291 289 290 289 292 298 297 291 294 291 286 288 295 295 294 291 291 288 285 289 287 284 296 298 298 299 298 300 301 301
294 290 301 301 286 287 289 289 291 292 294 294 293 294 294 292 288 292 293 297 298 296 293 294 290 284 286 291 295 292 294 293 292 293 286 285 285 297 298 299 300 299 300 301 301
295 287 291 294 295 290 288 288 288 294 294 296 294 295 294 292 294 291 292 296 297 297 296 297 291 287 284 286 290 289 291 292 292 289 288 288 288 293 296 297 299 300 301 300 301
297 291 293 287 291 291 290 289 288 289 295 297 294 294 293 290 291 291 294 294 297 297 297 296 287 287 289 291 291 291 291 291 289 291 288 289 290 293 296 298 299 300 300 300 300
293 293 295 292 293 290 288 289 289 291 293 292 292 294 295 292 293 291 293 294 293 296 295 296 289 289 287 290 290 288 291 292 291 292 292 292 291 298 299 299 299 299 299 299 300
302 302 297 290 289 290 290 290 291 293 294 295 295 295 294 294 298 299 299 298 297 295 293 293 291 289 284 288 288 286 288 290 291 293 293 289 294 297 296 297 298 299 299 299 300

GFSSW_sfc_thetae_102.txt.gz
Theta_e
316 316 316 318 321 322 325 325 322 320 318 317 316 315 315 318 316 311 306 308 309 313 313 309 306 305 305 302 304 302 290 287 289 291 293 299 297 302 304 301 303 306 306 314 328
315 315 315 315 316 318 320 324 323 320 318 317 315 314 316 316 310 306 313 314 313 316 309 303 299 301 297 297 299 295 289 289 294 295 293 297 297 298 298 298 299 303 308 311 326
314 316 314 314 314 316 318 321 324 320 318 317 314 314 316 314 303 301 315 315 317 315 308 304 302 300 295 297 295 294 288 293 295 296 297 295 295 298 296 295 299 299 303 308 318
314 314 315 314 314 314 316 318 323 320 318 316 314 315 315 309 290 304 316 318 317 312 307 302 300 295 292 291 295 288 293 294 295 297 296 293 296 294 296 297 303 304 307 309 314
315 315 313 313 313 313 314 317 320 320 318 315 314 315 309 300 300 311 317 314 310 307 303 300 297 295 290 292 294 291 293 295 296 296 295 296 293 293 294 300 303 305 306 311 313
315 314 313 312 312 312 313 316 319 318 316 314 314 315 305 294 306 309 309 307 305 304 302 302 298 299 294 292 292 294 294 295 297 297 296 293 293 294 295 298 300 303 304 309 312
314 314 313 313 312 312 312 316 319 317 315 314 316 310 302 299 307 307 307 305 306 305 301 304 304 298 296 292 296 295 290 293 294 295 294 296 290 290 295 297 297 301 303 308 311
313 313 313 312 312 311 313 318 316 314 313 314 315 308 297 309 309 306 306 305 307 307 306 306 306 299 296 297 293 290 291 284 292 293 295 294 284 292 296 295 294 299 303 307 309
312 312 312 312 311 310 315 316 314 313 313 314 307 304 295 308 302 306 306 301 304 307 307 306 303 296 295 289 285 288 281 284 287 295 294 292 286 293 296 295 294 297 303 305 307
311 310 311 311 310 310 311 312 312 312 311 309 307 297 300 297 302 303 305 304 302 303 301 299 296 291 291 287 278 283 284 287 286 293 293 291 289 293 296 295 295 301 302 304 307
311 310 310 310 310 312 309 305 298 296 301 296 296 297 299 303 305 301 303 301 301 298 290 295 288 283 287 289 289 287 286 285 288 295 291 289 289 292 297 297 298 299 302 305 307
310 310 309 309 311 313 308 299 300 301 292 299 299 300 302 303 295 299 304 296 295 289 293 289 283 290 293 292 290 288 286 285 290 295 291 290 289 293 296 296 298 298 298 302 306
309 309 308 309 309 307 303 302 306 304 293 296 298 298 298 300 295 295 299 297 292 289 289 287 289 294 292 290 289 287 286 286 287 290 294 292 288 292 296 299 299 299 300 302 307
306 307 308 308 303 305 299 305 306 306 286 288 292 296 298 300 293 300 301 298 292 288 290 289 294 292 291 290 291 285 293 292 290 287 284 292 280 289 292 293 296 298 300 303 310
307 307 308 307 303 300 303 306 307 302 277 291 292 302 300 294 294 293 303 297 289 290 291 287 291 290 289 291 293 288 294 292 291 288 285 288 284 287 290 292 296 297 301 309 310
307 306 307 304 305 305 307 306 301 284 277 286 292 292 291 293 291 295 296 299 298 292 292 290 296 294 293 295 295 295 292 292 291 288 282 287 285 284 286 289 295 303 307 309 310
308 307 305 306 300 308 306 298 283 279 289 285 287 291 290 289 291 290 288 289 286 283 284 290 291 296 296 290 293 293 288 280 280 281 280 287 285 284 290 294 298 301 305 308 309
307 306 305 305 308 307 301 288 279 285 286 292 290 290 287 290 290 290 289 285 292 290 286 283 282 290 294 292 288 290 289 282 277 279 283 288 281 284 295 297 302 303 303 303 303
305 306 304 305 308 306 293 282 282 286 289 288 290 285 286 289 289 288 287 288 292 292 286 285 285 294 294 295 293 291 287 291 284 287 283 285 286 291 294 295 296 298 301 301 302
304 301 300 307 307 300 288 285 286 291 292 291 285 288 283 286 286 286 287 292 292 295 295 290 283 290 293 295 295 292 295 284 286 280 279 282 282 284 288 293 296 296 297 299 301
302 294 301 308 305 293 284 286 289 293 293 291 289 287 286 285 288 287 289 293 295 295 295 292 286 288 292 291 289 290 288 288 287 284 279 278 281 293 292 295 295 296 298 298 299
298 287 302 306 288 289 287 289 291 292 295 294 294 292 289 289 289 289 289 292 297 296 289 293 290 284 287 293 294 291 289 288 280 281 283 281 282 296 296 296 297 296 297 298 298
292 290 302 302 285 286 289 289 291 292 294 294 293 294 294 291 287 291 292 297 298 296 291 292 286 281 283 288 291 290 290 291 290 288 280 278 281 294 293 295 296 296 296 297 298
294 286 292 295 294 290 287 287 289 295 295 296 294 295 293 291 293 290 291 296 297 297 297 296 288 283 279 282 287 285 288 290 288 281 283 283 285 290 292 293 294 295 295 296 297
296 290 292 287 291 290 290 289 289 290 296 296 293 294 292 288 290 290 292 293 296 299 294 293 282 280 287 289 289 288 288 289 285 287 282 286 287 290 292 292 294 295 296 296 297
294 292 295 292 292 290 288 289 289 292 293 292 292 294 294 290 292 289 292 292 290 293 291 293 283 283 283 288 288 284 288 289 289 290 289 289 287 293 293 294 294 295 296 296 297
300 301 295 291 289 289 289 290 291 293 295 295 294 294 292 293 296 295 295 295 293 291 290 290 286 283 278 285 285 281 285 288 288 290 289 285 289 293 293 295 294 295 296 296 296

GFSSW_sfc_thetae_105.txt.gz
Theta_e
315 316 316 314 315 315 317 321 323 324 321 320 318 316 315 317 318 311 304 308 311 314 312 308 306 303 301 298 301 299 287 284 287 288 291 296 294 299 300 297 298 298 299 313 329
315 315 315 315 314 314 314 317 320 323 322 320 318 315 315 317 311 305 315 318 318 316 309 306 298 300 293 294 296 292 285 287 292 292 290 294 294 294 294 294 295 298 301 320 327
316 316 315 315 315 314 314 314 318 321 322 320 317 315 316 314 303 301 318 318 316 315 309 303 302 299 292 293 292 292 287 292 293 295 296 294 294 295 292 291 294 295 299 304 311
316 316 316 315 314 314 313 313 315 319 322 320 317 315 316 309 288 303 317 317 320 313 308 302 299 293 290 289 293 287 292 293 294 296 294 292 294 292 293 293 297 299 302 303 309
315 316 315 315 314 313 313 313 314 318 321 319 317 316 310 300 298 309 319 318 311 308 303 299 295 295 290 290 292 289 291 294 295 296 295 295 292 292 293 296 297 299 300 302 308
315 315 315 314 314 313 312 312 314 317 320 318 316 317 305 293 307 313 309 308 306 304 301 299 297 299 294 290 289 292 293 293 294 294 295 294 294 292 293 296 296 298 298 299 307
315 314 314 313 313 313 312 313 314 318 319 316 316 311 302 299 305 308 308 305 306 304 301 304 304 298 295 290 295 294 289 292 292 294 293 296 290 290 295 295 295 296 297 299 307
313 312 312 312 312 312 312 317 318 317 316 316 317 308 298 310 304 305 305 304 306 307 306 305 304 300 295 296 292 288 288 281 291 293 295 293 283 292 294 293 293 295 296 297 305
311 312 311 311 311 311 311 314 316 315 314 315 308 304 295 309 302 304 305 301 304 306 307 306 302 295 294 287 282 285 275 280 286 294 293 292 286 292 295 293 292 293 294 296 304
306 309 309 309 310 310 310 312 313 313 311 309 307 296 299 297 303 304 304 304 302 303 300 298 295 289 290 285 273 278 279 284 284 290 292 290 290 294 295 294 292 293 295 299 303
309 310 309 309 309 310 308 304 298 294 302 296 297 297 299 303 304 301 303 301 300 299 290 295 287 282 284 286 286 285 284 283 287 292 291 290 290 292 294 295 293 293 296 298 302
309 309 308 309 309 312 306 297 299 299 291 300 300 300 302 303 295 299 303 294 293 287 292 289 284 288 291 289 288 287 285 284 288 292 291 289 289 292 293 294 294 295 298 297 302
307 308 307 307 308 306 300 300 306 305 292 295 298 298 298 301 295 295 299 296 292 287 287 283 287 293 290 289 288 288 286 284 285 289 291 289 287 289 293 296 295 296 298 299 300
307 307 306 307 301 302 297 305 306 306 286 288 293 297 299 299 293 300 301 296 291 286 287 286 291 290 290 289 291 285 291 291 290 287 282 290 278 287 290 291 295 294 295 298 302
306 307 306 307 301 299 303 306 307 301 274 290 292 303 299 294 293 294 302 296 288 288 288 285 291 289 288 289 292 288 293 290 290 289 285 286 283 287 291 289 292 293 295 303 308
308 308 308 302 300 303 306 306 300 283 274 286 292 292 291 293 292 296 296 297 296 290 290 288 294 292 292 294 294 295 291 290 290 288 281 287 285 284 286 289 292 295 300 307 309
308 308 305 307 298 305 303 296 281 277 289 284 287 290 289 288 289 290 288 287 283 279 282 288 289 294 295 288 293 292 288 279 279 280 280 287 284 284 288 294 295 301 304 308 310
307 307 304 306 306 302 297 288 278 285 284 291 289 290 287 290 290 288 286 282 288 288 282 277 277 289 294 291 289 289 289 281 275 279 282 287 280 282 291 302 302 303 303 303 303
307 299 299 302 305 301 291 280 281 286 289 288 289 283 284 288 287 286 284 285 289 291 284 283 283 294 294 295 293 290 287 291 284 286 281 283 285 289 293 296 299 300 301 300 302
296 294 296 304 302 296 284 285 286 291 292 291 283 285 280 283 283 284 285 291 292 294 294 289 282 290 292 295 294 290 294 284 284 277 277 281 282 282 287 292 296 296 298 300 302
295 288 297 303 298 288 283 286 289 293 293 291 287 285 283 284 287 286 287 292 294 294 295 290 286 287 292 290 286 288 287 289 286 284 280 277 281 289 292 293 293 295 297 299 300
292 283 300 301 284 289 285 288 292 291 294 293 292 290 286 287 287 288 289 291 297 296 290 293 289 282 286 292 293 290 289 287 279 281 281 279 282 295 295 295 295 295 296 296 297
289 290 297 296 280 281 288 289 291 292 293 292 291 292 291 290 287 291 292 297 297 295 291 292 284 278 281 285 289 288 289 289 289 284 280 276 283 295 292 293 294 293 295 296 297
288 279 287 290 291 284 285 285 288 293 293 294 293 292 291 289 290 288 289 295 296 295 298 295 286 281 275 281 285 284 287 288 286 278 281 281 285 288 289 291 293 293 294 295 295
290 284 287 281 286 286 285 286 288 288 293 293 291 292 290 287 288 288 290 291 295 298 293 291 281 279 285 288 288 285 286 287 285 285 281 284 286 288 289 290 291 293 295 295 296
288 286 292 290 288 283 285 285 289 290 291 289 289 292 291 288 288 287 290 289 287 291 289 290 280 282 282 286 286 283 286 287 288 288 287 286 285 291 291 292 291 293 294 294 295
293 295 290 288 285 284 284 287 290 291 292 293 292 290 289 291 292 291 292 292 290 288 288 288 283 280 276 283 283 280 284 285 286 288 288 284 287 290 290 292 292 293 294 294 294

GFSSW_sfc_thetae_108.txt.gz
Theta_e
317 316 316 315 316 315 314 315 316 320 324 323 322 318 316 317 318 311 304 308 311 316 309 307 304 302 299 297 299 297 286 283 286 288 290 293 291 295 297 294 295 296 296 304 322
317 317 317 316 315 315 315 314 314 317 321 323 321 318 315 316 311 306 313 319 319 316 307 304 297 298 292 293 294 291 284 286 291 291 288 292 292 293 292 292 292 295 300 303 307
317 317 317 316 316 316 314 314 314 314 318 323 321 318 316 314 301 301 318 321 319 315 307 302 301 298 291 292 291 291 286 290 292 294 295 294 293 294 291 290 292 292 295 300 306
316 316 316 316 316 315 314 313 312 313 316 321 320 317 317 308 287 302 321 320 318 311 305 301 298 291 288 287 292 286 291 293 293 295 294 291 293 291 291 292 295 296 297 300 302
315 316 315 315 315 315 314 313 312 313 316 320 320 317 310 299 298 308 319 319 311 307 302 298 294 292 287 288 290 288 290 294 295 295 294 295 292 291 291 295 296 297 298 297 301
314 314 314 315 314 314 313 313 313 312 316 320 317 317 305 294 306 311 311 308 307 303 300 298 295 296 290 289 288 290 291 292 294 294 294 292 292 293 294 295 295 296 296 296 298
313 312 313 313 313 313 313 313 313 316 315 319 318 312 302 299 309 310 307 305 305 303 299 302 302 296 293 289 294 293 288 290 292 293 292 294 289 290 295 295 294 295 296 297 298
311 310 310 312 311 311 311 312 316 317 317 318 317 308 298 310 307 307 305 303 305 307 305 305 303 297 295 294 290 287 286 280 289 292 293 292 282 290 293 293 293 294 295 296 296
309 308 308 307 309 311 310 309 315 318 318 317 308 304 295 310 302 304 303 301 303 305 305 306 301 295 293 287 282 282 274 279 284 293 292 290 285 292 294 292 292 292 293 294 295
308 308 308 307 308 310 310 309 314 313 311 309 308 297 299 297 302 303 303 304 301 301 300 298 295 290 289 284 271 276 277 282 282 288 290 288 288 293 296 295 292 291 291 294 297
309 308 307 308 309 309 308 300 295 297 301 297 296 297 299 303 305 301 302 300 301 298 286 294 284 282 282 285 284 283 283 282 286 290 288 288 289 292 295 294 291 291 292 294 297
308 309 309 309 311 312 305 298 296 298 290 301 300 299 301 302 294 298 303 293 292 286 291 287 284 287 289 287 286 285 284 284 287 290 289 288 288 292 294 292 293 293 292 294 296
308 307 308 308 308 304 300 301 306 305 291 294 299 298 299 300 294 294 298 295 291 285 285 281 285 291 288 287 287 288 285 284 283 288 291 287 286 287 292 293 293 293 296 297 297
308 307 307 308 301 299 297 305 306 305 285 288 293 297 299 299 292 300 300 295 291 286 286 285 290 288 287 286 289 284 291 289 289 287 281 289 279 286 289 290 293 293 293 296 297
309 308 307 306 300 299 302 305 304 299 273 290 292 302 299 294 293 293 300 295 287 287 289 284 288 289 287 288 292 287 292 289 288 286 284 286 282 283 290 289 290 292 293 295 299
309 308 308 301 301 302 304 305 298 280 270 285 291 291 291 293 292 295 295 297 295 289 289 288 293 291 289 293 293 294 290 289 288 287 279 286 284 283 286 288 291 293 295 298 305
309 309 307 306 297 304 301 295 280 275 288 285 286 289 288 287 288 289 288 285 282 279 281 286 287 292 293 288 292 292 287 277 276 278 277 288 284 284 289 292 293 296 301 305 309
309 306 305 305 303 301 297 283 275 284 283 290 289 289 285 289 288 287 284 281 287 286 280 281 275 288 293 290 289 288 287 280 275 277 279 287 280 284 290 301 303 302 302 304 304
306 297 298 302 302 299 287 279 282 285 289 287 288 282 283 287 286 285 283 283 288 289 283 283 280 294 293 295 293 289 286 290 283 285 281 284 285 287 291 296 299 299 300 301 303
295 293 295 303 301 293 285 284 286 291 291 290 281 283 278 281 281 283 284 291 292 294 295 289 282 291 293 295 294 290 293 285 285 278 276 280 282 280 285 291 295 297 298 300 301
292 287 295 302 297 289 283 285 289 293 292 289 285 283 284 285 286 286 288 292 295 294 295 290 287 286 292 289 287 289 287 288 287 283 278 276 281 288 289 292 292 295 297 297 299
290 280 296 298 284 289 285 287 292 290 293 291 290 288 284 287 288 289 288 290 297 296 290 292 288 281 285 291 293 291 289 288 280 280 281 280 281 293 294 294 294 294 296 296 297
286 286 295 294 278 283 286 287 290 290 291 291 290 291 290 288 286 289 290 296 297 295 290 292 283 278 280 285 288 287 289 289 288 284 279 277 282 294 294 294 295 294 294 295 295
286 279 286 289 287 282 282 284 287 292 292 293 292 292 289 288 289 286 288 293 295 294 299 294 284 280 276 282 285 283 286 287 284 279 281 282 284 286 288 290 292 292 293 293 293
287 283 286 280 284 285 284 285 287 287 292 292 291 290 289 286 286 286 289 290 293 295 292 289 281 278 283 285 285 284 284 286 283 284 279 284 284 286 288 289 290 292 294 294 294
287 285 288 285 286 284 285 285 288 289 289 288 289 291 290 287 286 285 288 287 286 290 288 289 280 281 281 285 285 282 285 286 286 286 286 285 284 289 289 290 290 292 293 293 294
292 293 289 285 283 282 283 287 289 290 291 292 290 289 288 289 290 290 290 290 288 287 287 286 282 279 276 281 283 278 283 284 285 287 286 283 287 289 288 291 290 292 293 293 293

GFSSW_sfc_thetae_111.txt.gz
Theta_e
317 317 318 317 317 316 316 315 314 314 317 321 324 323 318 317 316 312 303 306 309 317 309 306 302 299 298 296 298 295 285 282 285 288 289 291 290 294 296 292 293 295 294 300 303
317 317 317 317 316 316 316 315 314 314 315 319 322 322 318 317 310 305 313 318 321 317 305 300 295 297 291 292 293 289 283 284 290 289 287 291 291 293 292 291 290 293 297 299 302
316 316 317 317 316 316 315 315 313 313 313 317 322 320 317 314 300 300 318 321 320 314 304 301 300 296 290 291 290 289 285 289 291 293 294 292 291 294 290 289 291 291 292 296 300
314 315 315 316 316 316 315 315 314 312 312 315 321 319 318 308 289 302 319 322 319 309 304 300 297 290 287 285 290 285 290 292 293 293 293 290 292 290 290 291 294 295 296 296 298
314 313 314 315 316 316 316 315 314 312 312 314 319 318 309 299 298 307 322 319 309 306 300 297 293 290 286 287 289 287 289 293 294 294 293 294 291 291 291 295 297 297 297 295 297
313 312 312 313 314 314 314 314 314 313 312 313 318 317 304 294 307 311 310 308 306 302 299 297 294 294 290 288 286 289 290 291 293 293 293 291 291 291 292 295 295 296 295 294 296
311 310 310 310 311 313 313 313 313 312 313 315 318 311 303 298 309 310 308 304 304 302 298 301 299 294 291 287 293 292 286 289 290 292 291 293 288 288 293 294 294 295 296 297 296
310 309 309 308 309 311 310 311 311 315 315 315 316 308 297 310 310 307 304 302 306 306 304 303 301 296 294 293 289 286 284 280 288 291 293 291 282 290 293 292 292 294 296 296 296
310 308 308 308 307 307 310 309 313 317 316 317 306 303 295 310 304 304 305 300 303 303 305 305 299 294 293 286 281 281 273 278 283 291 291 289 284 290 293 292 291 293 293 294 295
309 308 308 308 308 309 309 309 311 312 310 309 307 296 299 297 302 304 304 304 301 300 299 297 294 289 288 285 271 275 276 280 281 286 289 286 286 291 294 293 292 293 292 292 293
310 309 307 308 308 309 303 299 296 294 302 295 296 297 298 302 305 301 303 299 300 296 286 291 283 277 281 284 283 283 283 282 285 289 288 286 286 289 293 293 292 292 290 291 293
308 309 309 310 311 310 304 293 295 297 291 301 299 299 301 302 295 298 302 294 292 285 289 288 281 285 287 286 285 286 284 283 286 289 288 287 286 291 293 292 293 292 290 291 294
309 308 308 309 309 304 302 300 306 305 290 294 299 297 298 300 293 293 297 294 289 284 284 280 284 290 288 286 284 286 285 285 285 288 290 288 284 286 291 293 293 292 292 294 296
309 309 308 309 301 299 297 305 306 304 285 286 292 295 299 299 291 299 299 294 290 284 285 283 288 287 286 284 287 283 289 289 288 286 280 287 277 282 287 289 291 291 292 293 294
310 311 308 307 298 298 301 304 304 298 269 290 292 301 299 293 292 292 299 294 286 285 286 282 286 288 287 287 290 286 291 289 288 286 284 285 281 282 287 287 289 291 292 295 296
310 310 308 301 299 303 305 302 296 276 272 284 291 291 290 292 291 294 293 295 293 288 287 286 291 290 288 291 292 293 290 289 288 286 279 282 283 276 285 289 291 292 294 297 297
309 309 305 304 296 302 299 292 276 272 287 285 285 288 287 286 288 288 287 284 281 275 278 284 286 289 292 287 290 291 288 275 274 275 276 287 284 282 289 291 295 293 298 303 304
309 305 303 303 301 299 294 282 273 283 283 289 288 288 285 288 286 286 283 281 285 284 281 281 275 287 293 290 287 288 287 280 273 272 277 287 280 284 291 299 301 302 302 303 304
305 296 297 299 302 297 289 280 281 284 288 287 288 282 283 286 285 284 282 282 288 288 280 283 282 292 292 294 293 289 286 291 283 284 281 283 285 288 290 295 298 299 300 301 302
294 291 292 300 299 293 286 284 285 290 290 288 281 282 278 281 281 282 283 290 291 293 293 289 281 288 292 294 294 290 293 284 284 277 277 281 282 280 284 288 295 296 297 298 299
291 286 294 300 296 289 283 285 289 293 291 289 285 282 283 285 285 286 287 291 295 294 295 291 286 285 291 288 287 289 287 289 288 282 278 277 280 287 286 289 293 294 296 296 296
288 282 295 296 285 282 282 285 291 290 292 290 289 286 284 288 288 288 288 290 295 295 288 291 288 281 285 290 293 292 289 288 280 280 279 280 281 291 292 292 294 293 295 295 296
285 285 294 293 279 279 284 286 289 290 290 290 289 290 289 287 284 288 289 295 296 294 289 292 283 277 280 284 287 286 289 289 288 284 279 276 282 294 294 293 294 292 293 294 295
286 281 287 288 286 282 282 284 286 292 291 291 290 291 289 287 288 286 287 292 294 294 299 293 283 280 276 281 284 283 284 286 286 278 281 281 283 286 287 289 291 291 292 292 293
287 283 285 279 284 283 283 285 287 287 291 291 290 289 288 284 286 285 287 289 291 293 291 288 281 278 283 285 284 283 283 285 281 283 280 283 283 285 287 289 290 292 292 293 293
287 285 285 283 284 283 284 284 287 288 289 288 288 290 288 285 285 284 286 285 285 288 286 288 280 281 280 283 283 282 284 285 285 285 285 284 283 289 288 289 290 291 292 292 293
290 291 287 284 282 281 282 285 288 289 290 291 289 288 287 288 290 290 290 289 288 285 286 285 281 278 275 281 282 277 282 283 284 285 286 282 286 288 287 290 290 291 292 292 292

GFSSW_sfc_thetae_114.txt.gz
Theta_e
317 317 316 316 315 316 317 317 314 314 314 316 319 324 321 319 317 312 302 306 309 316 311 303 300 297 297 295 297 294 285 281 284 287 287 290 290 293 295 291 292 293 292 299 300
316 316 316 316 316 316 316 316 315 314 313 314 317 321 320 318 309 304 312 317 317 316 303 298 294 296 291 291 293 288 282 283 288 288 286 290 290 291 291 290 289 292 296 297 299
315 315 315 316 316 316 316 315 315 313 312 312 316 321 318 314 301 300 317 320 322 313 304 300 298 295 289 290 289 288 283 288 290 292 292 290 289 292 289 287 290 290 292 295 297
312 314 314 314 314 315 316 315 315 314 312 310 315 320 318 308 290 302 320 323 318 307 303 299 295 289 286 285 289 283 290 291 291 293 292 290 291 290 290 289 293 294 295 295 295
313 312 313 313 313 314 315 315 315 314 311 311 313 319 309 299 298 309 323 320 308 304 299 296 292 289 284 286 288 286 288 292 293 293 292 293 290 290 290 295 296 296 297 295 295
311 311 311 311 311 312 313 314 314 314 313 311 314 314 304 295 309 312 309 307 305 302 298 296 293 293 289 287 285 288 290 290 292 292 292 290 290 290 291 293 294 295 295 294 295
311 310 309 309 309 311 312 312 312 312 313 312 314 311 303 299 310 310 307 305 304 302 299 300 298 293 291 286 292 290 285 288 289 290 290 292 287 287 292 292 292 294 295 296 296
310 309 308 307 307 310 311 311 311 312 313 313 315 308 297 310 311 306 305 303 306 305 303 302 300 295 292 291 288 284 283 279 286 290 292 290 282 289 291 290 290 292 295 295 296
310 309 310 309 307 306 310 311 314 316 316 314 306 303 295 311 305 305 305 301 303 304 304 304 298 292 291 284 277 281 273 278 282 290 290 287 283 290 292 292 291 293 293 294 296
310 309 309 309 309 309 310 310 313 311 309 308 306 296 299 298 303 303 305 305 301 300 298 295 292 285 287 278 271 275 276 281 280 285 288 286 285 290 292 292 291 292 293 294 294
310 310 310 310 307 308 302 301 297 296 301 293 295 296 299 303 305 301 303 301 300 295 285 290 279 273 280 282 281 284 283 282 285 288 287 285 285 288 292 292 291 292 293 293 294
310 310 310 312 310 310 302 294 296 299 291 300 299 299 301 302 294 298 302 294 292 283 288 283 277 284 286 285 284 284 283 280 285 288 286 286 286 290 292 292 292 292 292 292 293
311 310 310 310 308 305 301 300 306 305 290 293 298 297 297 300 294 294 297 293 288 284 283 279 283 288 287 285 283 282 281 281 283 287 288 287 282 284 289 292 292 293 292 292 292
311 310 310 308 300 299 298 305 306 304 285 286 292 294 299 299 291 298 299 293 288 283 284 282 287 286 285 284 285 280 287 287 287 286 281 288 277 282 286 288 290 291 291 292 294
310 310 309 307 301 299 301 303 303 296 270 290 292 301 299 291 291 292 298 293 285 284 284 281 284 285 286 286 287 285 289 288 287 286 284 284 281 281 287 286 290 293 293 293 295
309 309 308 301 299 300 301 299 293 276 272 284 292 290 289 290 291 293 292 294 292 286 285 284 289 288 287 289 290 291 288 288 286 287 278 281 282 279 286 288 290 294 295 298 299
309 308 304 302 294 300 298 291 276 273 287 282 284 287 286 285 287 287 286 283 280 274 275 283 284 288 291 286 288 289 287 274 272 276 274 287 284 284 289 291 296 297 300 303 304
308 304 302 302 300 298 293 282 274 283 283 288 287 286 283 286 283 284 283 280 284 282 280 278 274 286 292 289 286 288 287 279 271 272 277 286 278 284 292 294 300 301 301 302 302
304 295 295 297 300 295 288 280 279 284 286 285 286 282 282 285 284 282 279 281 286 285 279 282 277 290 292 293 293 288 286 290 283 283 280 282 285 290 291 291 296 297 298 298 298
293 290 291 298 297 292 285 285 284 290 289 287 281 281 277 280 280 279 280 288 289 289 290 288 282 287 291 294 294 290 293 284 284 277 276 281 281 280 284 286 291 294 294 295 297
290 288 294 297 295 289 283 284 287 291 290 288 284 281 281 285 285 283 284 289 293 294 295 291 286 283 290 288 287 289 288 289 288 283 278 277 279 286 285 288 289 293 294 294 295
288 283 296 295 286 281 281 286 291 289 291 289 289 288 285 288 287 288 287 290 294 294 289 292 288 282 284 290 292 291 288 288 280 280 280 280 281 292 291 293 293 293 294 295 295
285 285 294 294 280 278 283 286 288 289 290 290 289 290 289 287 285 288 288 294 295 293 289 290 282 276 279 283 286 285 287 287 287 284 280 278 282 294 294 293 293 292 293 294 295
286 281 287 287 285 281 281 283 286 291 290 290 289 290 288 286 287 285 286 291 293 294 298 293 283 280 275 281 283 283 284 285 285 278 280 281 284 288 289 289 290 290 292 292 293
286 283 285 278 283 282 282 284 285 286 290 290 288 288 286 284 285 284 286 288 291 293 291 287 280 278 282 284 283 284 283 283 280 282 280 282 283 286 288 288 288 291 291 291 292
286 284 284 282 283 281 284 283 285 287 287 287 286 288 288 284 283 283 285 284 283 288 285 286 279 281 280 282 282 282 283 284 285 284 284 284 282 288 287 288 288 291 291 291 291
289 289 286 283 282 281 281 283 287 287 289 291 288 286 286 287 289 289 289 288 287 284 285 284 281 279 275 280 281 278 282 283 284 284 285 281 286 287 286 289 290 291 291 291 291

GFSSW_sfc_thetae_117.txt.gz
Theta_e
317 318 316 317 316 315 315 315 316 315 313 315 317 321 323 320 319 311 304 307 310 317 313 303 301 299 299 298 299 298 288 285 287 288 290 293 293 296 298 296 296 298 297 302 302
315 316 315 316 316 316 316 316 315 315 312 312 314 320 322 319 309 305 312 318 320 315 303 299 296 297 294 294 296 292 285 286 291 292 290 293 293 294 294 293 294 296 300 302 301
312 313 313 314 314 315 316 316 316 314 312 311 312 319 319 314 301 300 316 320 321 312 305 301 299 296 292 293 292 291 286 289 291 293 294 292 291 294 292 290 293 294 297 298 300
312 310 311 313 313 313 313 315 315 314 311 310 313 320 316 308 292 303 318 323 319 307 303 299 296 291 288 288 292 287 291 292 292 294 293 291 293 292 292 293 296 297 297 298 298
312 311 311 312 311 312 313 314 315 315 311 310 311 318 309 300 299 310 321 317 307 305 300 296 293 291 287 289 290 288 289 292 294 293 293 293 291 291 292 296 297 297 298 297 299
312 311 310 310 310 310 312 312 313 314 313 311 317 315 305 296 309 313 308 307 305 302 299 298 295 294 290 289 288 290 291 291 292 292 293 291 291 291 293 296 295 296 297 298 298
311 311 310 308 309 311 312 313 313 313 312 313 315 311 303 299 311 311 308 304 305 303 300 301 299 295 293 289 293 291 287 289 290 292 290 293 288 289 295 294 294 295 296 298 299
311 311 311 308 309 311 311 311 311 311 311 312 315 308 297 311 312 306 306 304 307 306 303 303 301 296 293 293 288 286 285 282 288 291 293 291 285 291 294 293 293 295 296 297 299
311 311 310 309 308 310 312 315 316 314 314 314 306 303 296 312 304 306 306 302 304 305 305 304 300 293 292 284 281 283 279 281 284 290 290 289 286 291 295 294 293 295 296 297 298
311 312 310 310 310 310 312 312 312 309 307 307 306 296 300 299 302 303 306 305 301 300 298 295 292 287 286 281 277 279 279 282 282 287 288 287 286 291 293 293 293 294 295 296 297
311 311 311 309 309 307 303 301 295 293 300 294 296 296 299 303 306 301 304 301 300 294 287 291 283 278 282 284 283 284 282 281 284 289 287 286 287 290 293 294 293 294 295 296 297
311 311 310 310 310 309 302 296 297 298 288 299 299 299 302 302 294 298 303 294 292 286 289 284 280 285 287 286 285 284 282 281 285 288 287 287 287 291 293 293 294 294 295 295 296
311 311 311 309 309 305 301 301 306 305 289 293 298 296 298 300 293 294 298 294 289 286 285 281 285 288 287 285 283 283 281 282 283 287 290 288 285 286 291 294 294 296 296 296 296
311 310 310 308 302 301 298 304 305 304 284 287 292 294 299 298 291 298 299 294 290 284 285 284 287 286 285 284 285 281 286 286 285 286 281 289 279 285 289 290 293 295 296 297 297
309 309 309 307 298 297 300 302 302 296 270 289 292 301 298 292 291 292 298 294 286 286 285 282 285 286 285 286 287 285 290 288 287 286 285 285 282 284 290 289 290 294 296 299 299
310 308 306 300 297 299 300 297 292 277 272 285 292 290 289 290 291 293 292 294 293 287 286 285 289 289 287 289 289 290 288 288 287 285 280 283 282 281 286 288 290 294 300 302 302
310 308 303 301 293 299 297 290 276 275 286 281 285 288 286 285 286 288 286 283 281 275 277 284 285 289 290 287 289 289 286 275 274 278 275 285 284 285 289 291 293 298 298 301 301
308 303 301 300 299 297 292 283 274 282 281 287 286 286 283 285 283 284 284 281 284 283 279 277 275 286 291 289 287 288 287 278 272 274 277 286 279 284 291 293 295 297 297 298 300
304 294 293 296 299 294 288 280 281 284 285 285 285 281 281 284 284 283 280 281 286 285 279 282 278 290 291 292 293 288 285 290 284 284 280 282 285 290 291 290 293 294 295 295 297
291 289 292 297 296 292 286 284 283 289 289 287 280 281 278 281 280 281 282 288 289 289 290 288 280 286 291 294 294 291 293 285 285 276 274 281 281 281 284 286 290 292 293 294 296
289 288 295 296 295 289 282 285 287 290 290 288 283 281 282 286 285 283 285 289 294 294 295 291 286 284 290 288 288 289 287 288 288 285 278 277 278 287 286 289 290 292 294 294 295
288 284 296 295 286 281 279 285 290 288 291 289 288 286 285 287 287 288 287 289 294 294 289 292 288 283 285 290 293 292 289 288 282 282 282 281 281 293 293 293 293 293 294 295 295
285 285 294 294 281 278 283 285 287 289 289 288 288 289 288 286 283 286 288 294 294 293 290 291 284 278 280 284 288 286 288 288 287 284 281 279 282 294 294 294 294 293 293 294 295
286 282 287 287 284 283 281 283 285 290 289 289 288 289 287 285 286 284 286 291 293 293 298 294 283 281 277 282 284 282 285 285 284 281 281 281 284 289 291 291 292 292 293 293 294
285 283 283 278 283 281 282 283 284 285 289 290 287 287 285 282 283 283 285 287 290 292 291 288 280 278 282 284 284 283 284 284 281 283 281 283 284 287 289 290 291 292 293 293 293
285 284 283 282 283 281 284 283 284 285 286 286 286 287 286 284 285 283 284 284 283 287 285 286 280 281 280 283 283 282 284 285 285 285 284 284 284 289 290 291 290 292 292 292 292
288 287 286 283 281 280 282 284 286 286 288 289 287 285 284 287 289 289 289 288 287 284 284 283 281 279 276 280 281 278 281 284 285 286 285 283 287 288 288 289 290 291 292 292 292